[[{"header":{"parameterUnit":"m.s-1","parameterCategory":1,"la1":30.6,"la2":28.766,"lo1":-90.7593,"lo2":-88.6598,"dy":0.0162,"dx":0.0183,"nx":116,"ny":114,"refTime":"2023-04-20T12:00:00:Z","depth":0,"parameterNumber":2,"parameterNumberName":"U-component_of_WINDS"},"data":[0.0,0.0,0.0,0.0,0.0,0.0,0.0,0.0,0.0,0.0,0.0,0.0,0.0,0.0,0.0,0.0,0.0,0.0,0.0,0.0,0.0,0.0,0.0,0.0,0.0,0.0,0.0,0.0,0.0,0.0,0.0,0.0,0.0,0.0,0.0,0.0,0.0,0.0,0.0,0.0,0.0,0.0,0.0,0.0,0.0,0.0,0.0,0.0,0.0,0.0,0.0,0.0,0.0,0.0,0.0,0.0,0.0,0.0,0.0,0.0,0.0,0.0,0.0,0.0,0.0,0.0,0.0,0.0,0.0,0.0,0.0,0.0,0.0,0.0,0.0,0.0,0.0,0.0,0.0,0.0,0.0,0.0,0.0,0.0,0.0,0.0,0.0,0.0,0.0,0.0,0.0,0.0,0.0,0.0,0.0,0.0,0.0,0.0,0.0,0.0,0.0,0.0,0.0,0.0,0.0,0.0,0.0,0.0,0.0,0.0,0.0,0.0,0.0,0.0,0.0,0.0,0.0,0.0,0.0,0.0,0.0,0.0,0.0,0.0,0.0,0.0,0.0,0.0,0.0,0.0,0.0,0.0,0.0,0.0,0.0,0.0,0.0,0.0,0.0,0.0,0.0,0.0,0.0,0.0,0.0,0.0,0.0,0.0,0.0,0.0,0.0,0.0,0.0,0.0,0.0,0.0,0.0,0.0,0.0,0.0,0.0,0.0,0.0,0.0,0.0,0.0,0.0,0.0,0.0,0.0,0.0,0.0,0.0,0.0,0.0,0.0,0.0,0.0,0.0,0.0,0.0,0.0,0.0,0.0,0.0,0.0,0.0,0.0,0.0,0.0,0.0,0.0,0.0,0.0,0.0,0.0,0.0,0.0,0.0,0.0,0.0,0.0,0.0,0.0,0.0,0.0,0.0,0.0,0.0,0.0,0.0,0.0,0.0,0.0,0.0,0.0,0.0,0.0,0.0,0.0,0.0,0.0,0.0,0.0,0.0,0.0,0.0,0.0,0.0,0.0,0.0,0.0,0.0,0.0,0.0,0.0,0.0,0.0,0.0,0.0,0.0,0.0,0.0,0.0,0.0,0.0,0.0,0.0,0.0,0.0,0.0,0.0,0.0,0.0,0.0,0.0,0.0,0.0,0.0,0.0,0.0,0.0,0.0,0.0,0.0,0.0,0.0,0.0,0.0,0.0,0.0,0.0,0.0,0.0,0.0,0.0,0.0,0.0,0.0,0.0,0.0,0.0,0.0,0.0,0.0,0.0,0.0,0.0,0.0,0.0,0.0,0.0,0.0,0.0,0.0,0.0,0.0,0.0,0.0,0.0,0.0,0.0,0.0,0.0,0.0,0.0,0.0,0.0,0.0,0.0,0.0,0.0,0.0,0.0,0.0,0.0,0.0,0.0,0.0,0.0,0.0,0.0,0.0,0.0,0.0,0.0,0.0,0.0,0.0,0.0,0.0,0.0,0.0,0.0,0.0,0.0,0.0,0.0,0.0,0.0,0.0,0.0,0.0,0.0,0.0,0.0,0.0,0.0,0.0,0.0,0.0,0.0,0.0,0.0,0.0,0.0,0.0,0.0,0.0,0.0,0.0,0.0,0.0,0.0,0.0,0.0,0.0,0.0,0.0,0.0,0.0,0.0,0.0,0.0,0.0,0.0,0.0,0.0,0.0,0.0,0.0,0.0,0.0,0.0,0.0,0.0,0.0,0.0,0.0,0.0,0.0,0.0,0.0,0.0,0.0,0.0,0.0,0.0,0.0,0.0,0.0,0.0,0.0,0.0,0.0,0.0,0.0,0.0,0.0,0.0,0.0,0.0,0.0,0.0,0.0,0.0,0.0,0.0,0.0,0.0,0.0,0.0,0.0,0.0,0.0,0.0,0.0,0.0,0.0,0.0,0.0,0.0,0.0,0.0,0.0,0.0,0.0,0.0,0.0,0.0,0.0,0.0,0.0,0.0,0.0,0.0,0.0,0.0,0.0,0.0,0.0,0.0,0.0,0.0,0.0,0.0,0.0,0.0,0.0,0.0,0.0,0.0,0.0,0.0,0.0,0.0,0.0,0.0,0.0,0.0,0.0,0.0,0.0,0.0,0.0,0.0,0.0,0.0,0.0,0.0,0.0,0.0,0.0,0.0,0.0,0.0,0.0,0.0,0.0,0.0,0.0,0.0,0.0,0.0,0.0,0.0,0.0,0.0,0.0,0.0,0.0,0.0,0.0,0.0,0.0,0.0,0.0,0.0,0.0,0.0,0.0,0.0,0.0,0.0,0.0,0.0,0.0,0.0,0.0,0.0,0.0,0.0,0.0,0.0,0.0,0.0,0.0,0.0,0.0,0.0,0.0,0.0,0.0,0.0,0.0,0.0,0.0,0.0,0.0,0.0,0.0,0.0,0.0,0.0,0.0,0.0,0.0,0.0,0.0,0.0,0.0,0.0,0.0,0.0,0.0,0.0,0.0,0.0,0.0,0.0,0.0,0.0,0.0,0.0,0.0,0.0,0.0,0.0,0.0,0.0,0.0,0.0,0.0,0.0,0.0,0.0,0.0,0.0,0.0,0.0,0.0,0.0,0.0,0.0,0.0,0.0,0.0,0.0,0.0,0.0,0.0,0.0,0.0,0.0,0.0,0.0,0.0,0.0,0.0,0.0,0.0,0.0,0.0,0.0,0.0,0.0,0.0,0.0,0.0,0.0,0.0,0.0,0.0,0.0,0.0,0.0,0.0,0.0,0.0,0.0,0.0,0.0,0.0,0.0,0.0,0.0,0.0,0.0,0.0,0.0,0.0,0.0,0.0,0.0,0.0,0.0,0.0,0.0,0.0,0.0,0.0,0.0,0.0,0.0,0.0,0.0,0.0,0.0,0.0,0.0,0.0,0.0,0.0,0.0,0.0,0.0,0.0,0.0,0.0,0.0,0.0,0.0,0.0,0.0,0.0,0.0,0.0,0.0,0.0,0.0,0.0,0.0,0.0,0.0,0.0,0.0,0.0,0.0,0.0,0.0,0.0,0.0,0.0,0.0,0.0,0.0,0.0,0.0,0.0,0.0,0.0,0.0,0.0,0.0,0.0,0.0,0.0,0.0,0.0,0.0,0.0,0.0,0.0,0.0,0.0,0.0,0.0,0.0,0.0,0.0,0.0,0.0,0.0,0.0,0.0,0.0,0.0,0.0,0.0,0.0,0.0,0.0,0.0,0.0,0.0,0.0,0.0,0.0,0.0,0.0,0.0,0.0,0.0,0.0,0.0,0.0,0.0,0.0,0.0,0.0,0.0,0.0,0.0,0.0,0.0,0.0,0.0,0.0,0.0,0.0,0.0,0.0,0.0,0.0,0.0,0.0,0.0,0.0,0.0,0.0,0.0,0.0,0.0,0.0,0.0,0.0,0.0,0.0,0.0,0.0,0.0,0.0,0.0,0.0,0.0,0.0,0.0,0.0,0.0,0.0,0.0,0.0,0.0,0.0,0.0,0.0,0.0,0.0,0.0,0.0,0.0,0.0,0.0,0.0,0.0,0.0,0.0,0.0,0.0,0.0,0.0,0.0,0.0,0.0,0.0,0.0,0.0,0.0,0.0,0.0,0.0,0.0,0.0,0.0,0.0,0.0,0.0,0.0,0.0,0.0,0.0,0.0,0.0,0.0,0.0,0.0,0.0,0.0,0.0,0.0,0.0,0.0,0.0,0.0,0.0,0.0,0.0,0.0,0.0,0.0,0.0,0.0,0.0,0.0,0.0,0.0,0.0,0.0,0.0,0.0,0.0,0.0,0.0,0.0,0.0,0.0,0.0,0.0,0.0,0.0,0.0,0.0,0.0,0.0,0.0,0.0,0.0,0.0,0.0,0.0,0.0,0.0,0.0,0.0,0.0,0.0,0.0,0.0,0.0,0.0,0.0,0.0,0.0,0.0,0.0,0.0,0.0,0.0,0.0,0.0,0.0,0.0,0.0,0.0,0.0,0.0,0.0,0.0,0.0,0.0,0.0,0.0,0.0,0.0,0.0,0.0,0.0,0.0,0.0,0.0,0.0,0.0,0.0,0.0,0.0,0.0,0.0,0.0,0.0,0.0,0.0,0.0,0.0,0.0,0.0,0.0,0.0,0.0,0.0,0.0,0.0,0.0,0.0,0.0,0.0,0.0,0.0,0.0,0.0,0.0,0.0,0.0,0.0,0.0,0.0,0.0,0.0,0.0,0.0,0.0,0.0,0.0,0.0,0.0,0.0,0.0,0.0,0.0,0.0,0.0,0.0,0.0,0.0,0.0,0.0,0.0,0.0,0.0,0.0,0.0,0.0,0.0,0.0,0.0,0.0,0.0,0.0,0.0,0.0,0.0,0.0,0.0,0.0,0.0,0.0,0.0,0.0,0.0,0.0,0.0,0.0,0.0,0.0,0.0,0.0,0.0,0.0,0.0,0.0,0.0,0.0,0.0,0.0,0.0,0.0,0.0,0.0,0.0,0.0,0.0,0.0,0.0,0.0,0.0,0.0,0.0,0.0,0.0,0.0,0.0,0.0,0.0,0.0,0.0,0.0,0.0,0.0,0.0,0.0,0.0,0.0,0.0,0.0,0.0,0.0,0.0,0.0,0.0,0.0,0.0,0.0,0.0,0.0,0.0,0.0,0.0,0.0,0.0,0.0,0.0,0.0,0.0,0.0,0.0,0.0,0.0,0.0,0.0,0.0,0.0,0.0,0.0,0.0,0.0,0.0,0.0,0.0,0.0,0.0,0.0,0.0,0.0,0.0,0.0,0.0,0.0,0.0,0.0,0.0,0.0,0.0,0.0,0.0,0.0,0.0,0.0,0.0,0.0,0.0,0.0,0.0,0.0,0.0,0.0,0.0,0.0,0.0,0.0,0.0,0.0,0.0,0.0,0.0,0.0,0.0,0.0,0.0,0.0,0.0,0.0,0.0,0.0,0.0,0.0,0.0,0.0,0.0,0.0,0.0,0.0,0.0,0.0,0.0,0.0,0.0,0.0,0.0,0.0,0.0,0.0,0.0,0.0,0.0,0.0,0.0,0.0,0.0,0.0,0.0,0.0,0.0,0.0,0.0,0.0,0.0,0.0,0.0,0.0,0.0,0.0,0.0,0.0,0.0,0.0,0.0,0.0,0.0,0.0,0.0,0.0,0.0,0.0,0.0,0.0,0.0,0.0,0.0,0.0,0.0,0.0,0.0,0.0,0.0,0.0,0.0,0.0,0.0,0.0,0.0,0.0,0.0,0.0,0.0,0.0,0.0,0.0,0.0,0.0,0.0,0.0,0.0,0.0,0.0,0.0,0.0,0.0,0.0,0.0,0.0,0.0,0.0,0.0,0.0,0.0,0.0,0.0,0.0,0.0,0.0,0.0,0.0,0.0,0.0,0.0,0.0,0.0,0.0,0.0,0.0,0.0,0.0,0.0,0.0,0.0,0.0,0.0,0.0,0.0,0.0,0.0,0.0,0.0,0.0,0.0,0.0,0.0,0.0,0.0,0.0,0.0,0.0,0.0,0.0,0.0,0.0,0.0,0.0,0.0,0.0,0.0,0.0,0.0,0.0,0.0,0.0,0.0,0.0,0.0,0.0,0.0,0.0,0.0,0.0,0.0,0.0,0.0,0.0,0.0,0.0,0.0,0.0,0.0,0.0,0.0,0.0,0.0,0.0,0.0,0.0,0.0,0.0,0.0,0.0,0.0,0.0,0.0,0.0,0.0,0.0,0.0,0.0,0.0,0.0,0.0,0.0,0.0,0.0,0.0,0.0,0.0,0.0,0.0,0.0,0.0,0.0,0.0,0.0,0.0,0.0,0.0,0.0,0.0,0.0,0.0,0.0,0.0,0.0,0.0,0.0,0.0,0.0,0.0,0.0,0.0,0.0,0.0,0.0,0.0,0.0,0.0,0.0,0.0,0.0,0.0,0.0,0.0,0.0,0.0,0.0,0.0,0.0,0.0,0.0,0.0,0.0,0.0,0.0,0.0,0.0,0.0,0.0,0.0,0.0,0.0,0.0,0.0,0.0,0.0,0.0,0.0,0.0,0.0,0.0,0.0,0.0,0.0,0.0,0.0,0.0,0.0,0.0,0.0,0.0,0.0,0.0,0.0,0.0,0.0,0.0,0.0,-2.2073,-2.2403,0.0,0.0,0.0,0.0,0.0,0.0,0.0,0.0,0.0,0.0,0.0,0.0,0.0,0.0,0.0,0.0,0.0,0.0,0.0,0.0,0.0,0.0,0.0,0.0,0.0,0.0,0.0,0.0,0.0,0.0,0.0,0.0,0.0,0.0,0.0,0.0,0.0,0.0,-2.4946,-2.4612,-2.4311,-2.5184,-2.4618,-2.2927,0.0,0.0,0.0,0.0,0.0,0.0,0.0,0.0,0.0,0.0,0.0,0.0,0.0,0.0,0.0,0.0,0.0,0.0,0.0,0.0,0.0,0.0,0.0,0.0,0.0,0.0,0.0,0.0,0.0,0.0,0.0,0.0,0.0,0.0,0.0,0.0,0.0,0.0,0.0,0.0,0.0,0.0,0.0,0.0,0.0,0.0,0.0,0.0,0.0,0.0,0.0,0.0,0.0,0.0,0.0,0.0,0.0,0.0,0.0,0.0,0.0,0.0,0.0,0.0,0.0,0.0,0.0,0.0,0.0,0.0,-2.3556,-2.2793,0.0,0.0,0.0,0.0,0.0,0.0,0.0,0.0,0.0,0.0,0.0,0.0,0.0,0.0,0.0,0.0,0.0,0.0,0.0,0.0,0.0,0.0,0.0,-2.4004,-2.4079,-2.4255,-2.4695,-2.5184,0.0,0.0,0.0,0.0,0.0,0.0,0.0,-2.5423,-2.5649,-2.5749,-2.5322,-2.5372,-2.5912,-2.6942,-2.6251,-2.4104,-2.4054,0.0,0.0,0.0,0.0,0.0,0.0,0.0,0.0,0.0,0.0,0.0,0.0,0.0,0.0,0.0,0.0,0.0,0.0,0.0,0.0,0.0,0.0,0.0,0.0,0.0,0.0,0.0,0.0,0.0,0.0,0.0,0.0,0.0,0.0,0.0,0.0,0.0,0.0,0.0,0.0,0.0,0.0,0.0,0.0,0.0,0.0,0.0,0.0,0.0,0.0,0.0,0.0,0.0,0.0,0.0,0.0,0.0,0.0,0.0,0.0,0.0,0.0,0.0,-2.9288,-2.9695,-2.9475,-3.0866,-3.0294,-2.8022,-2.5948,-2.3964,-2.2233,-2.2688,0.0,0.0,0.0,0.0,0.0,0.0,0.0,0.0,0.0,0.0,0.0,0.0,0.0,0.0,0.0,0.0,0.0,0.0,0.0,0.0,0.0,-2.4004,-2.4368,-2.5297,-2.5448,-2.5737,-2.6336,0.0,0.0,0.0,0.0,0.0,-2.6273,-2.5824,-2.585,-2.6386,-2.6311,-2.6562,-2.7067,-2.7708,-2.8059,-2.8073,-2.6699,-2.6433,-2.6854,0.0,0.0,0.0,0.0,0.0,0.0,0.0,0.0,0.0,0.0,0.0,0.0,0.0,0.0,0.0,0.0,0.0,0.0,0.0,0.0,0.0,0.0,0.0,0.0,0.0,0.0,0.0,0.0,0.0,0.0,0.0,0.0,0.0,0.0,0.0,0.0,0.0,0.0,0.0,0.0,0.0,-2.1893,-2.0762,0.0,0.0,0.0,0.0,0.0,0.0,0.0,0.0,0.0,0.0,0.0,0.0,0.0,-2.9622,-3.1232,-3.1328,-3.0946,-3.0128,-3.0296,-2.9816,-2.8789,-3.0207,-3.0631,-3.0301,-3.0648,0.0,-2.4186,-2.3684,0.0,0.0,0.0,0.0,0.0,0.0,0.0,0.0,0.0,0.0,0.0,0.0,0.0,0.0,0.0,0.0,0.0,0.0,0.0,0.0,0.0,-2.5109,-2.59,-2.6097,-2.6821,-2.6941,-2.6139,-2.6493,0.0,0.0,0.0,-2.6235,-2.6487,-2.6248,-2.6549,-2.7381,-2.8335,-2.9063,-2.9603,-3.0156,-3.0721,-3.1198,-2.9842,-2.8674,-2.7657,-2.6314,0.0,0.0,0.0,0.0,0.0,0.0,0.0,0.0,0.0,0.0,0.0,0.0,0.0,0.0,0.0,0.0,0.0,0.0,0.0,0.0,0.0,0.0,0.0,0.0,0.0,0.0,0.0,0.0,0.0,0.0,0.0,0.0,0.0,0.0,0.0,0.0,0.0,0.0,0.0,-2.5369,-2.5824,-2.4155,-2.5394,-2.6182,0.0,0.0,0.0,0.0,0.0,0.0,0.0,0.0,0.0,-2.8708,-2.9588,-3.0312,-3.0828,-3.1149,-3.1628,-3.2191,-3.2652,-3.2527,-3.1977,-3.3446,-3.3691,-3.2983,-3.375,-3.2435,-2.9642,-2.7751,-2.6506,-2.5728,0.0,0.0,0.0,0.0,-2.4669,-2.4914,0.0,0.0,0.0,0.0,0.0,0.0,0.0,0.0,0.0,0.0,0.0,0.0,-2.5036,-2.664,-2.7708,-2.7756,-2.8468,-2.8326,-2.6916,-2.6824,-2.6486,0.0,-2.6243,-2.6625,-2.6901,-2.7203,-2.7882,-2.895,-3.0633,-3.1725,-3.2252,-3.2805,-3.3445,-3.4073,-3.2805,-3.1173,-2.9264,-2.7618,-2.6402,-2.5515,0.0,0.0,0.0,0.0,0.0,0.0,0.0,0.0,0.0,0.0,0.0,0.0,0.0,0.0,0.0,0.0,0.0,0.0,0.0,0.0,0.0,0.0,0.0,0.0,0.0,0.0,0.0,0.0,0.0,0.0,0.0,0.0,0.0,0.0,0.0,0.0,0.0,-2.7978,-2.8765,-2.7079,-2.837,-2.9239,0.0,0.0,0.0,0.0,0.0,0.0,-3.0544,-3.0792,-3.0785,-3.0595,-3.136,-3.1644,-3.1389,-3.1958,-3.2929,-3.4281,-3.4877,-3.5106,-3.5067,-3.6438,-3.6593,-3.5805,-3.6578,-3.6235,-3.4897,-3.1744,-2.9819,-2.8828,-2.8129,-2.8086,-2.8302,-2.7819,-2.7773,-2.789,0.0,0.0,0.0,0.0,0.0,0.0,0.0,0.0,0.0,0.0,0.0,-2.5028,-2.7607,-2.8461,-2.9465,-3.1009,-3.0292,-2.9702,-2.9589,-2.7648,-2.6934,-2.7898,-2.7017,-2.6989,-2.7996,-2.9076,-3.0143,-3.1223,-3.2905,-3.4022,-3.4562,-3.5069,-3.5956,-3.691,-3.5278,-3.3909,-3.2659,-2.939,-2.7996,-2.7723,-2.5163,0.0,0.0,0.0,0.0,0.0,0.0,0.0,0.0,0.0,0.0,0.0,0.0,0.0,0.0,0.0,0.0,0.0,0.0,0.0,0.0,0.0,0.0,0.0,0.0,0.0,0.0,0.0,0.0,0.0,0.0,0.0,0.0,0.0,0.0,0.0,0.0,0.0,0.0,-2.7733,-2.9945,0.0,0.0,0.0,0.0,-3.3251,-3.39,-3.4039,-3.3419,-3.4005,-3.4038,-3.3336,-3.4577,-3.5534,-3.6133,-3.6746,-3.684,-3.6349,-3.6379,-3.6427,-3.6537,-3.7377,-3.8096,-3.8739,-3.9536,-3.9454,-3.8419,-3.439,-3.2692,-3.2563,-3.1884,-3.2385,-3.318,-3.1206,-3.0886,-3.1176,0.0,0.0,0.0,0.0,0.0,0.0,0.0,0.0,-2.3897,-2.3978,-2.5652,-2.7267,-2.8485,-3.0721,-3.2215,-3.2453,-3.2,-3.0997,-2.9452,-2.8415,-2.7625,-2.7149,-2.737,-2.8047,-2.9164,-3.0608,-3.2064,-3.3533,-3.5203,-3.6295,-3.6847,-3.7036,-3.7149,-3.7161,-3.6571,-3.5692,-3.4474,-3.1486,-2.9603,-2.8424,-2.607,-2.5319,0.0,0.0,0.0,0.0,0.0,0.0,0.0,0.0,0.0,0.0,0.0,0.0,0.0,0.0,0.0,0.0,0.0,0.0,0.0,0.0,0.0,0.0,0.0,0.0,0.0,0.0,0.0,0.0,0.0,0.0,0.0,0.0,0.0,0.0,0.0,0.0,0.0,-3.2902,-3.4201,0.0,-3.4948,-3.436,-3.4274,-3.5026,-3.5679,-3.5935,-3.5663,-3.6254,-3.6415,-3.6016,-3.6477,-3.6851,-3.7075,-3.73,-3.7105,-3.6492,-3.6492,-3.6546,-3.663,-3.7427,-3.8189,-3.8935,-3.9756,-3.996,-3.9597,-3.8112,-3.6693,-3.5311,-3.4155,-3.3964,-3.4293,-3.3595,-3.3208,-3.2932,0.0,0.0,0.0,0.0,0.0,0.0,0.0,0.0,-2.459,-2.5318,-2.7327,-2.921,-3.0624,-3.3169,-3.465,-3.4474,-3.3633,-3.2374,-3.0547,-2.9161,-2.8204,-2.7695,-2.8648,-2.9654,-3.0583,-3.2403,-3.406,-3.5554,-3.7023,-3.7939,-3.8304,-3.8304,-3.8203,-3.8015,-3.7626,-3.7161,-3.6508,-3.4085,-3.1788,-2.9552,-2.7394,-2.697,-2.7356,0.0,0.0,0.0,0.0,0.0,0.0,0.0,0.0,0.0,0.0,0.0,0.0,0.0,0.0,0.0,0.0,0.0,0.0,0.0,0.0,0.0,0.0,0.0,0.0,0.0,0.0,0.0,0.0,0.0,0.0,0.0,0.0,0.0,0.0,-3.3808,-3.5875,-3.717,-3.7932,-3.8613,-3.9319,-3.7852,-3.7319,-3.8362,-3.8794,-3.9024,-3.8985,-3.9109,-3.8866,-3.8201,-3.8131,-3.7973,-3.7749,-3.7973,-3.7921,-3.7594,-3.7349,-3.7415,-3.7803,-3.8046,-3.8596,-3.9342,-3.9876,-4.0096,-4.0096,-4.0096,-3.9233,-3.7814,-3.6898,-3.6511,-3.6488,-3.6277,-3.5721,-3.5065,0.0,0.0,0.0,0.0,0.0,0.0,0.0,-2.4279,-2.5194,-2.7795,-2.8766,-3.0542,-3.4048,-3.5647,-3.6644,-3.7111,-3.514,-3.3633,-3.3124,-2.9967,-2.8649,-2.9792,-3.0846,-3.17,-3.2303,-3.443,-3.6132,-3.7236,-3.8404,-3.8944,-3.8944,-3.8944,-3.917,-3.9622,-3.8517,-3.8329,-3.8793,-3.7159,-3.4582,-3.1379,-2.9278,-2.8986,-2.9551,0.0,0.0,0.0,0.0,0.0,0.0,0.0,0.0,0.0,0.0,0.0,0.0,0.0,0.0,0.0,0.0,0.0,0.0,0.0,0.0,0.0,0.0,0.0,0.0,0.0,0.0,0.0,0.0,0.0,0.0,0.0,0.0,0.0,-3.3554,-3.6812,-3.9343,-4.0096,-4.0899,-4.1627,-4.2337,-4.1762,-4.1931,-4.3358,-4.3477,-4.3474,-4.3336,-4.2522,-4.1356,-3.9827,-3.9531,-3.9146,-3.8467,-3.9095,-3.9496,-3.9701,-3.8984,-3.9153,-4.0067,-3.9298,-3.9358,-4.0096,-4.0096,-4.0096,-4.0096,-4.0096,-4.0096,-4.0096,-4.0096,-4.0096,-4.002,-3.9219,-3.8469,-3.7602,0.0,0.0,0.0,0.0,0.0,0.0,0.0,-2.3512,-2.4313,-2.6791,-2.8588,-3.0609,-3.3204,-3.5575,-3.6908,-3.6656,-3.462,-3.3056,-3.2491,-3.0093,-2.9377,-3.0884,-3.1625,-3.2817,-3.4542,-3.6019,-3.7287,-3.8404,-3.912,-3.9471,-3.9471,-3.9471,-3.9333,-3.9082,-3.8768,-3.8492,-3.8216,-3.7751,-3.6797,-3.5316,-3.1925,-3.0468,-3.0167,0.0,0.0,0.0,0.0,0.0,0.0,0.0,0.0,0.0,0.0,0.0,0.0,0.0,0.0,0.0,0.0,0.0,0.0,0.0,0.0,0.0,0.0,0.0,0.0,0.0,0.0,0.0,0.0,0.0,0.0,0.0,-3.5798,-3.7577,-3.6892,-3.8983,-4.1068,-4.2327,-4.3673,-4.4553,-4.4756,-4.4587,-4.4637,-4.5043,-4.5568,-4.535,-4.4158,-4.3863,-4.2929,-4.1221,-4.0636,-4.0197,-3.9843,-3.9559,-3.9496,-3.9701,-3.9482,-3.9643,-4.0084,-3.9869,-3.9884,-4.0096,-4.0096,-4.0096,-4.0096,-4.0096,-4.0096,-4.0096,-4.0096,-4.0096,-4.007,-3.9833,-3.9262,-3.8386,0.0,0.0,0.0,0.0,0.0,0.0,0.0,-2.4127,-2.5024,-2.7785,-2.9381,-3.1148,-3.3427,-3.559,-3.648,-3.5416,-3.3947,-3.2641,-3.1612,-3.0557,-3.0482,-3.1687,-3.2943,-3.4437,-3.6194,-3.7324,-3.8329,-3.922,-3.9534,-3.9697,-3.9697,-3.9697,-3.9521,-3.922,-3.922,-3.9032,-3.8705,-3.8467,-3.8178,-3.7651,-3.4914,-3.3495,-3.2817,-3.0909,-3.0069,-2.9761,-2.8764,-2.7585,-2.6479,-2.6278,0.0,0.0,0.0,0.0,0.0,0.0,0.0,0.0,0.0,0.0,0.0,0.0,0.0,0.0,0.0,0.0,0.0,0.0,0.0,0.0,0.0,0.0,0.0,0.0,-3.864,-4.0818,-4.1182,-4.2307,-4.3521,-4.4705,-4.5618,-4.6397,-4.7022,-4.6532,-4.6413,-4.7039,-4.7192,-4.6831,-4.5907,-4.5235,-4.422,-4.2739,-4.1408,-4.0596,-4.0397,-3.9753,-3.9632,-4.0119,-3.9823,-4.0103,-4.0962,-4.0649,-4.0523,-4.0544,-4.0544,-4.04,-4.0096,-4.0096,-4.0096,-4.0096,0.0,0.0,0.0,0.0,-3.9315,-3.8674,0.0,0.0,0.0,0.0,0.0,0.0,0.0,-2.5412,-2.6454,-2.9362,-3.0309,-3.1471,-3.3548,-3.5028,-3.5261,-3.3746,-3.3006,-3.2039,-3.0708,-3.116,-3.1813,-3.2554,-3.4568,-3.6245,-3.7349,-3.8417,-3.9195,-3.9697,-3.9697,-3.9697,-3.9697,-3.9697,-3.9697,-3.9697,-3.9697,-3.9697,-3.9659,-3.917,-3.9007,-3.8881,-3.7877,-3.7071,-3.6191,-3.4123,-3.3088,-3.2442,-3.0833,-2.9093,-2.7531,-2.7426,0.0,0.0,0.0,0.0,0.0,0.0,0.0,0.0,0.0,0.0,0.0,0.0,0.0,0.0,0.0,0.0,0.0,0.0,0.0,0.0,0.0,0.0,0.0,0.0,-4.099,-4.2974,-4.5696,-4.6143,-4.638,-4.687,-4.6989,-4.7564,-4.8866,-4.7817,-4.7581,-4.89,-4.8409,-4.7973,-4.7889,-4.6555,0.0,0.0,0.0,-4.0955,-4.0671,-3.988,-3.9905,-4.0675,-4.0034,-4.0562,-4.2022,-4.1424,-4.1144,-4.1175,-4.127,-4.095,-4.035,-4.0265,-4.018,-4.0096,-4.0096,-4.0096,-4.002,-3.9289,-3.9032,-3.8827,0.0,0.0,0.0,0.0,0.0,0.0,0.0,-2.5473,-2.5937,-2.7421,-2.8732,-2.9489,-2.9363,-3.1143,-3.2227,-3.1901,-3.0557,-2.9941,-3.057,-3.1524,-3.2905,-3.4781,-3.6169,-3.7387,-3.8567,-3.9195,-3.9584,-3.9697,-3.9697,-3.9697,-3.9697,-3.9697,-3.9697,-3.9697,-3.9697,-3.9697,-3.9685,-3.9584,-3.9534,-3.9521,-3.9295,-3.8065,-3.6317,-3.5403,-3.4715,-3.4118,-3.2909,-3.2354,-3.2108,-3.14,-3.0967,-3.0644,-3.0294,-2.8514,0.0,0.0,0.0,0.0,0.0,0.0,0.0,0.0,0.0,0.0,0.0,0.0,0.0,0.0,0.0,0.0,0.0,0.0,0.0,-4.2142,-4.4415,-4.6364,-4.8108,-4.8866,-4.8849,-4.7817,-4.8223,-4.8697,-4.8968,-4.8748,-4.8697,-4.8984,-4.8883,-4.8545,-4.7922,-4.7599,-4.7003,-4.6061,-4.4343,-4.3094,-4.2335,-4.0943,-4.0359,-4.069,-4.0566,0.0,-4.116,-4.1713,-4.1622,-4.1099,-4.1782,-4.1999,-4.1839,-4.1221,-4.0629,-4.0096,-4.0096,-4.0096,-4.007,-3.9927,-3.9876,-3.9731,0.0,0.0,0.0,0.0,0.0,0.0,0.0,-2.528,-2.5849,-2.6918,-2.8184,-2.9085,-2.9294,-3.0823,-3.1624,-3.1046,-3.0127,-3.0046,-3.1163,-3.2642,-3.4211,-3.5881,-3.7287,-3.8417,-3.927,-3.9546,-3.9697,-3.9697,-3.9697,-3.9697,-3.9697,-3.9697,-3.9697,-3.9697,-3.9697,-3.9697,-3.9697,-3.9697,-3.9697,-3.9697,-3.9697,-3.9032,-3.7965,-3.7412,-3.686,-3.6257,-3.5429,-3.4863,-3.4399,-3.3701,-3.3008,-3.2355,-3.1618,-3.0288,-2.886,0.0,0.0,0.0,0.0,0.0,0.0,0.0,0.0,0.0,0.0,0.0,0.0,0.0,0.0,-3.6693,-3.8178,0.0,-4.263,-4.574,-4.7068,-4.8149,-4.9379,-4.9864,-4.9678,-4.8595,-4.9103,-4.9407,-4.9035,-4.9001,-4.9001,-4.9001,-4.9001,-4.8849,-4.8477,-4.8091,-4.7639,-4.7078,-4.5587,-4.4321,-4.3304,-4.2165,-4.1422,-4.105,-4.105,-4.1372,-4.1981,-4.2379,-4.2455,-4.2217,-4.2665,-4.2439,-4.1694,-4.095,-4.0434,-4.0096,-4.0096,-4.0096,-4.0096,-4.0096,-4.0096,-3.9927,0.0,0.0,0.0,0.0,0.0,0.0,0.0,-2.5162,-2.5824,-2.6681,-2.7758,-2.8736,-2.9424,-3.0555,-3.0959,-3.0156,-3.0546,-3.1267,-3.2306,-3.411,-3.5684,-3.6845,-3.8303,-3.9245,-3.9685,-3.9697,-3.9697,-3.9697,-3.9697,-3.9697,-3.9697,-3.9697,-3.9697,-3.9697,-3.9697,-3.9697,-3.9697,-3.9697,-3.9697,-3.9697,-3.9697,-3.9697,-3.9634,-3.9082,-3.858,-3.809,-3.7425,-3.6408,-3.527,-3.4831,-3.406,-3.3093,-3.229,-3.1888,-3.1323,-2.9327,-2.875,0.0,0.0,0.0,0.0,0.0,0.0,0.0,0.0,-3.4188,-3.5537,-3.6447,-3.8312,-4.0367,-4.2349,-4.3927,-4.5898,-4.8935,-4.9257,-4.9377,-5.0192,-5.0304,-4.9982,-4.9103,-4.9526,-4.9644,-4.9069,-4.9001,-4.9001,-4.9001,-4.9001,-4.9001,-4.9001,-4.8443,-4.8051,-4.7884,-4.6581,-4.539,-4.4362,-4.3452,-4.2565,-4.1693,-4.1483,-4.1949,-4.2979,-4.2969,-4.3224,-4.3603,-4.3607,-4.2794,-4.1373,-4.0764,-4.0367,-4.0096,-4.0096,-4.0096,-4.0096,-4.0096,-4.0096,-3.9927,0.0,0.0,0.0,0.0,0.0,0.0,0.0,0.0,-2.5608,-2.5657,-2.6627,-2.6962,-2.6075,-2.6937,-2.7772,-2.8243,-3.1199,-3.333,-3.3996,-3.577,-3.7348,-3.8542,-3.9245,-3.9634,-3.9697,-3.9697,-3.9697,-3.9697,-3.9697,-3.9697,-3.9697,-3.9697,-3.9697,-3.9697,-3.9697,-3.9697,-3.9697,-3.9697,-3.9697,-3.9697,-3.9697,-3.9697,-3.9634,-3.9082,-3.8881,-3.868,-3.7563,-3.6157,-3.4756,-3.4705,-3.4311,-3.3872,-3.4236,-3.3684,-3.2641,-3.1386,-2.9679,-2.833,-2.8982,-3.0567,-3.2384,-3.3804,-3.4294,-3.51,0.0,-3.8242,-3.8482,-4.0337,-4.1658,-4.2965,-4.4569,-4.6255,-4.8165,-5.0582,-5.0934,-5.0953,-5.105,-5.1099,-5.0574,-4.9171,-4.9069,-4.9086,-4.9018,-4.9001,-4.9001,-4.9001,-4.9001,-4.9001,-4.9001,-4.8934,-4.8886,-4.8829,-4.7881,-4.7013,-4.6307,-4.4566,-4.334,-4.2628,-4.179,-4.1878,-4.2844,-4.2958,-4.3476,-4.431,-4.4404,-4.3616,-4.2168,-4.2083,-4.1297,-4.0096,-4.0096,-4.0096,-4.0096,-4.0096,-4.0096,-4.0087,0.0,0.0,0.0,0.0,0.0,0.0,0.0,0.0,0.0,-2.5516,-2.6285,-2.6904,-2.7229,-2.8016,-2.877,-2.9392,-3.0834,-3.2386,-3.4004,-3.5414,-3.6828,-3.8328,-3.922,-3.9697,-3.9697,-3.9697,-3.9697,-3.9697,-3.9697,-3.9697,-3.9697,-3.9697,-3.9697,-3.9697,-3.9697,-3.9697,-3.9697,-3.9697,-3.9697,-3.9697,-3.9697,-3.9697,-3.9559,-3.8354,-3.75,-3.6835,-3.6031,-3.5167,0.0,-3.353,-3.3639,-3.4084,-3.3858,-3.3219,-3.2303,-3.0871,-3.019,-3.0213,-3.1708,-3.2718,-3.3827,-3.5695,-3.706,-3.8287,-3.9679,-4.0352,-4.125,-4.3045,-4.4866,-4.641,-4.7457,-4.9059,-5.0516,-5.1439,-5.1608,-5.1646,-5.1812,-5.1488,-5.0627,-4.9187,-4.8513,-4.8401,-4.894,-4.9001,-4.9001,-4.9001,-4.9001,-4.9001,-4.9001,-4.9001,-4.9001,-4.9001,-4.8608,-4.8011,-4.7177,-4.6395,-4.5597,-4.4784,-4.4371,-4.4473,-4.4957,-4.4577,-4.4432,-4.4495,-4.4075,-4.3284,-4.2252,-4.183,-4.1305,-4.073,-4.073,-4.0984,-4.1297,-4.0417,-4.0096,-4.0045,0.0,0.0,0.0,0.0,0.0,0.0,0.0,0.0,0.0,0.0,-2.6138,-2.6752,-2.7919,-2.8801,-2.9564,-3.0193,-3.0742,-3.1825,-3.3619,-3.5047,-3.6335,-3.7524,-3.8781,-3.9471,-3.9471,-3.9622,-3.9697,-3.9697,-3.9697,-3.9697,-3.9697,-3.9697,-3.9697,-3.9697,-3.9697,-3.9697,-3.9697,-3.9697,-3.9697,-3.9697,-3.9697,-3.9509,-3.9044,-3.7362,-3.5882,-3.4635,-3.423,-3.3604,-3.275,-3.1963,-3.2253,-3.2949,-3.2647,-3.2523,-3.2151,-3.0855,-3.1088,-3.2003,-3.3414,-3.4428,-3.5531,-3.7476,-3.9469,-4.1025,-4.1399,-4.2357,-4.3666,-4.5255,-4.7193,-4.8717,-4.891,-5.0415,-5.1608,-5.1608,-5.1773,-5.1928,-5.1982,-5.114,-5.0001,-4.8522,-4.7356,-4.7029,-4.7941,-4.8373,-4.8719,-4.897,-4.9001,-4.9001,-4.9001,-4.9001,-4.9001,-4.9001,-4.9001,-4.8688,-4.7982,-4.7737,-4.7273,-4.6574,-4.6048,-4.6177,-4.6798,-4.6098,-4.5464,-4.484,-4.4079,-4.3301,-4.2557,-4.2033,-4.1694,-4.1508,-4.1508,-4.183,-4.2151,-4.1111,-4.0722,-4.0628,0.0,0.0,0.0,0.0,0.0,0.0,0.0,0.0,0.0,0.0,0.0,0.0,0.0,-2.7829,-2.8891,-2.9577,-3.1347,-3.2649,-3.3111,-3.5339,-3.6614,-3.6474,-3.8052,-3.8944,-3.8944,-3.9421,-3.9697,-3.9697,-3.9697,-3.9697,-3.9697,-3.9697,-3.9697,-3.9697,-3.9697,-3.9697,-3.9697,-3.9697,-3.9697,-3.9697,-3.9697,-3.9032,-3.7877,-3.6172,-3.4297,-3.2579,-3.2553,-3.1185,-2.9469,-3.0129,-3.0025,-2.9834,-3.0926,-3.2028,-3.2888,-3.2368,-3.2591,-3.3049,-3.3186,-3.5217,-3.7639,-3.8985,-4.0846,-4.2665,-4.3913,-4.4721,-4.5589,-4.6948,-4.8317,-4.899,-4.8034,-4.9497,-5.085,-5.0905,-5.1479,-5.1746,-5.1307,-4.9875,-4.8332,-4.6862,-4.5276,-4.4657,-4.5512,-4.683,-4.8015,-4.894,-4.9001,-4.9001,-4.9001,-4.9001,-4.9001,-4.9001,-4.9001,-4.9001,-4.897,-4.8047,-4.7589,-4.7556,-4.5706,-4.5814,-4.754,-4.7002,-4.635,-4.5635,-4.4874,-4.4096,-4.3358,-4.3341,-4.2912,-4.2252,-4.2252,-4.2269,-4.2286,-4.2236,-4.2219,-4.2219,0.0,0.0,0.0,0.0,0.0,0.0,0.0,0.0,0.0,0.0,0.0,0.0,0.0,0.0,0.0,0.0,-2.9999,-3.1001,-3.2707,-3.4582,-3.5764,-3.5984,-3.8126,-3.9302,-3.9302,-3.9146,-3.9317,-3.9767,-3.8954,-3.8567,-3.858,-3.8969,-3.9145,-3.917,-3.9534,-3.9697,-3.9672,-3.9308,-3.9145,-3.9044,-3.7952,-3.7635,-3.7487,-3.4085,-3.2597,-3.2115,0.0,-2.9255,-2.9066,-2.8753,-2.8913,-2.9257,-2.947,-2.9859,-3.0484,-3.1847,-3.2272,-3.2945,-3.5859,-3.7972,-3.9918,-4.2117,-4.3494,-4.4661,-4.5992,-4.6471,-4.6819,-4.747,-4.73,-4.695,-4.6671,-4.7869,-4.8993,-4.9302,-5.0941,-5.2102,-5.193,-5.1461,-5.0221,-4.774,-4.6862,-4.6223,-4.5671,-4.5452,-4.6159,-4.8118,-4.8197,-4.8585,-4.9664,-5.0202,-5.0253,-4.9746,-4.9729,-4.9492,-4.9001,-4.8688,-4.8225,-4.7589,-4.6968,-4.6782,-4.7069,-4.6887,-4.6397,-4.5669,-4.4936,-4.4462,-4.4147,-4.3639,-4.324,-4.3031,-4.3031,-4.3352,-4.3836,-4.3836,-4.3836,-4.3684,0.0,0.0,0.0,0.0,0.0,0.0,0.0,0.0,0.0,0.0,0.0,0.0,0.0,0.0,0.0,0.0,0.0,-3.0317,-3.2011,-3.3473,-3.4319,-3.4544,-3.6866,-3.8193,-3.8193,-3.8084,-3.8238,-3.8682,-3.7873,-3.7503,-3.7529,-3.7791,-3.7881,-3.7906,-3.81,-3.8389,-3.8745,-3.8375,-3.8287,-3.8312,-3.7019,-3.634,-3.5751,-3.2579,-3.1069,0.0,-2.8363,-2.785,-2.814,-2.7839,-2.8111,-2.8595,-2.8635,-2.9339,-3.0492,-3.2445,-3.3415,-3.4681,-3.8472,-4.0427,-4.2028,-4.4436,-4.5529,-4.6247,-4.71,-4.7115,-4.6894,-4.66,-4.5788,-4.4915,-4.4133,-4.4948,-4.6045,-4.6893,-4.8564,-5.0154,-5.1354,-5.0805,-4.9652,-4.8025,-4.6977,-4.6207,-4.5688,-4.4754,-4.5228,-4.7713,-4.7744,-4.8379,-5.0019,-5.0557,-5.071,-5.049,-4.9915,-4.9545,-4.939,-4.8822,-4.8193,-4.7589,-4.7933,-4.7725,-4.7088,-4.7173,-4.6938,-4.6464,-4.5703,-4.5258,-4.4942,-4.4451,-4.4079,-4.3826,-4.3826,-4.413,-4.4615,-4.4615,-4.4615,-4.4462,0.0,0.0,0.0,0.0,0.0,0.0,0.0,0.0,0.0,0.0,0.0,0.0,0.0,0.0,0.0,0.0,0.0,0.0,-3.1106,-3.2133,-3.2625,-3.2335,-3.4547,-3.5783,-3.5783,-3.6251,-3.6538,-3.6566,-3.6484,-3.6484,-3.6457,-3.6154,-3.6044,-3.604,-3.5672,-3.6051,-3.7029,-3.6914,-3.7084,-3.7357,-3.6606,-3.4934,-3.2721,-3.1542,-2.9689,-2.7734,-2.7371,-2.6933,-2.6616,-2.7401,-2.769,-2.7869,-2.8577,-3.0509,-3.2781,-3.4262,-3.601,-3.8068,-4.0801,-4.2491,-4.3917,-4.5846,-4.6845,-4.7294,-4.7264,-4.6711,-4.5828,-4.4451,-4.3777,-4.2802,-4.0624,-4.1069,-4.2349,-4.3972,-4.4903,-4.6576,-4.9755,-4.8322,-4.7175,-4.7753,-4.5896,-4.4836,-4.561,-4.4886,-4.5375,-4.7831,-4.7779,-4.8397,-5.012,-5.0236,-5.0543,-5.1154,-4.966,-4.921,-5.0021,-4.8396,-4.7622,-4.7688,-4.8513,-4.8448,-4.7622,-4.7804,-4.7889,-4.7838,-4.7124,-4.6397,-4.5754,-4.572,-4.5263,-4.4615,-4.4615,-4.4615,-4.4615,-4.4615,-4.4615,-4.4615,0.0,0.0,0.0,0.0,0.0,0.0,0.0,0.0,0.0,0.0,0.0,0.0,0.0,0.0,0.0,0.0,0.0,0.0,-3.1323,-3.258,-3.3048,-3.2474,-3.446,-3.5585,-3.5585,-3.5325,-3.5427,-3.5944,-3.5058,-3.4671,-3.4646,-3.4981,-3.513,-3.5117,-3.5433,-3.5728,-3.5937,-3.5547,-3.5143,-3.465,-3.323,-3.2063,-3.0979,-2.8719,-2.7701,-2.7335,-2.6717,-2.6495,-2.6688,-2.7925,-2.8966,-2.9953,-3.115,-3.1855,-3.294,-3.6399,-3.7982,-3.9398,-4.2678,-4.4541,-4.5756,-4.68,-4.7174,-4.7174,-4.6696,-4.5663,-4.4317,-4.2506,-4.0482,-3.8732,-3.7744,-3.922,-4.1426,-4.4076,-4.6962,-4.9544,-5.1472,-5.1746,-5.1177,-4.9663,-4.9437,-4.9069,-4.8186,-4.7273,-4.7506,-4.9413,-4.8893,-4.9443,-5.1624,-5.2317,-5.2118,-5.0935,-5.0693,-5.0041,-4.8995,-4.8051,-4.795,-4.8656,-4.8193,-4.791,-4.7849,-4.7865,-4.7889,-4.7838,-4.7124,-4.6684,-4.6481,-4.5923,-4.5263,-4.4615,-4.4615,-4.4615,-4.4615,-4.4615,-4.4615,-4.4615,0.0,0.0,0.0,0.0,0.0,0.0,0.0,0.0,0.0,0.0,0.0,0.0,0.0,0.0,0.0,0.0,0.0,0.0,0.0,-3.1629,-3.2018,-3.1644,-3.3006,-3.3888,-3.4188,-3.36,-3.3598,-3.4301,-3.3345,-3.2897,-3.2911,-3.3101,-3.3181,-3.3159,-3.3293,-3.3792,-3.4474,-3.4126,-3.3675,0.0,0.0,-3.0233,-2.9055,-2.7251,-2.6323,-2.5961,-2.5877,-2.668,-2.803,-2.972,-3.0986,-3.2108,-3.3739,-3.4747,-3.5991,-3.9211,-4.0738,-4.1991,-4.4851,-4.6172,-4.692,-4.7578,-4.7309,-4.6546,-4.5248,-4.3988,-4.2297,-3.9753,-3.7823,-3.628,-3.5399,-3.6847,-3.9153,-4.2155,-4.5183,-4.8139,-5.093,-5.1725,-5.1775,-5.1133,-5.115,-5.0847,-5.0067,-4.9077,-4.9227,-5.0933,-4.9643,-4.9809,-5.2182,-5.2739,-5.2674,-5.201,-5.1379,-5.0292,-4.8642,-4.8679,-4.8783,-4.9001,-4.8482,-4.8264,-4.8392,-4.8392,-4.8392,-4.8376,-4.7953,-4.7581,-4.7225,-4.6481,-4.5737,-4.5043,-4.4733,-4.4818,-4.5026,-4.4733,-4.4818,-4.5077,0.0,0.0,0.0,0.0,0.0,0.0,0.0,0.0,0.0,0.0,0.0,0.0,0.0,0.0,0.0,0.0,0.0,0.0,0.0,0.0,0.0,-3.0507,-3.1047,-3.1675,-3.2333,-3.1705,-3.1645,-3.2243,-3.157,-3.1241,-3.1256,-3.1024,-3.0935,-3.1005,-3.0662,-3.1396,-3.289,-3.2749,-3.2531,-3.2124,-3.0703,-2.9016,-2.7267,0.0,0.0,-2.4263,-2.5091,-2.7074,-2.9624,-3.1872,-3.326,-3.4367,-3.6372,-3.8302,-4.0217,-4.2321,-4.3688,-4.502,-4.7025,-4.7504,-4.7578,-4.8132,-4.716,-4.5517,-4.3604,-4.1983,-3.9978,-3.69,-3.5624,-3.4726,-3.3469,-3.4583,-3.6665,-3.9626,0.0,-4.5187,-4.9453,-5.024,-5.0862,-5.2147,-5.1843,-5.1522,-5.1522,-5.0626,-5.0724,-5.2335,-5.0426,-5.0142,-5.2351,-5.2469,-5.2739,-5.3331,-5.1758,-5.023,-4.8911,-4.97,-4.9729,-4.9001,-4.9001,-4.9001,-4.9001,-4.9001,-4.9001,-4.9001,-4.9001,-4.8595,-4.7838,-4.7208,-4.6447,-4.5652,-4.4993,-4.5128,-4.5618,-4.4976,-4.5196,-4.5855,0.0,0.0,0.0,0.0,0.0,0.0,0.0,0.0,0.0,0.0,-2.8289,-2.76,0.0,0.0,0.0,0.0,0.0,0.0,0.0,0.0,0.0,0.0,-3.0612,-3.1001,-3.166,-3.1002,-3.0731,-3.0851,-3.0223,-2.9924,-2.9924,-2.989,-3.0119,-3.0609,-3.0541,-3.0969,-3.1768,-3.1753,-3.1395,-3.0735,-2.9317,-2.7883,-2.644,-2.516,0.0,0.0,-2.4894,-2.6764,-2.9073,0.0,-3.4846,-3.7075,-3.9095,-4.0711,-4.2381,-4.49,-4.5798,-4.6411,-4.8386,-4.8536,-4.8132,-4.8252,-4.6456,-4.4287,-4.2905,-4.0232,-3.7479,-3.5312,-3.3873,-3.2766,-3.1989,-3.4003,-3.6712,-3.9565,-4.2939,-4.6291,-4.9442,-5.1044,-5.2012,0.0,-5.2773,-5.3112,-5.3112,-5.2353,-5.2252,-5.323,-5.2302,-5.2134,-5.3247,-5.3298,-5.3061,-5.252,-5.1406,-5.0522,-4.9845,-5.0021,-4.9729,-4.9001,-4.9001,-4.9001,-4.9001,-4.9001,-4.9001,-4.9001,-4.9001,-4.8595,-4.7872,-4.7753,-4.6921,-4.5703,-4.5568,-4.5602,-4.5686,-4.5568,-4.5974,-4.6599,0.0,0.0,0.0,0.0,0.0,0.0,0.0,-2.7649,-2.8166,-2.9664,-2.9737,-2.937,-2.8723,-2.8019,-2.7854,0.0,0.0,0.0,0.0,0.0,0.0,0.0,0.0,0.0,-2.9853,-2.8884,-2.8893,-3.0028,0.0,-2.8882,-2.9592,-2.922,-2.9579,-3.0492,-3.0163,-3.0582,-3.1467,-3.1058,-3.0485,-2.971,-2.7918,-2.6763,0.0,0.0,0.0,0.0,0.0,0.0,-2.8295,-3.136,-3.4424,-3.7449,-4.0472,-4.259,-4.4212,-4.5843,-4.6815,-4.7623,-4.8955,-4.909,-4.879,-4.879,-4.6531,-4.3568,-4.0799,-3.7847,-3.5001,-3.2351,-3.1557,-3.1294,-3.1035,-3.3014,-3.5506,-3.8013,-4.0585,-4.3651,-4.7638,-4.926,-5.0624,-5.2131,-5.301,-5.3501,-5.3501,-5.2638,-5.2485,-5.3433,-5.2638,-5.2502,-5.345,-5.3501,-5.3331,-5.2942,-5.2034,-5.1296,-5.0693,-5.0287,-4.9729,-4.9001,-4.9001,-4.9001,-4.9001,-4.9001,-4.9001,-4.9001,-4.9001,-4.8798,-4.846,-4.8041,-4.7466,-4.6819,-4.643,-4.6515,-4.6819,-4.6413,-4.6735,-4.7378,0.0,0.0,0.0,0.0,0.0,0.0,0.0,-2.9056,-2.9305,-3.0655,-3.1102,-3.0957,-3.0103,-2.8828,-2.7974,0.0,0.0,0.0,0.0,0.0,0.0,0.0,0.0,0.0,0.0,0.0,0.0,-2.9166,-2.7904,0.0,0.0,0.0,0.0,0.0,-2.9398,-2.9873,-3.0749,-3.0127,-2.9555,0.0,0.0,-2.5827,0.0,0.0,0.0,0.0,0.0,0.0,-2.725,-2.9848,-3.2713,-3.5773,-3.9284,-4.2451,-4.4964,-4.5469,-4.6895,-4.8461,-4.9254,-4.9419,-4.9284,-4.9134,-4.6352,-4.2684,-3.8783,-3.5685,-3.2742,-2.97,-2.9517,-2.9987,-3.0214,-3.189,-3.3975,-3.6244,-3.7923,-4.0605,-4.547,-4.7225,-4.8992,-5.1744,-5.2909,0.0,-5.3501,-5.2749,-5.2505,-5.311,-5.24,-5.2364,-5.3433,-5.3501,-5.3501,-5.3501,-5.2723,-5.1846,-5.0891,-5.036,-4.9618,-4.8688,-4.8892,-4.9001,-4.9001,-4.9001,-4.9001,-4.9001,-4.9001,-4.9001,-4.8968,-4.8392,-4.8024,-4.7821,-4.7259,-4.7394,-4.7821,-4.7259,-4.7513,-4.8125,0.0,0.0,0.0,0.0,0.0,0.0,0.0,-2.9146,-3.0374,-3.284,-3.1661,-3.0791,-3.1271,-3.0178,-2.916,0.0,0.0,0.0,0.0,0.0,0.0,0.0,0.0,0.0,0.0,0.0,0.0,-2.767,-2.6953,0.0,0.0,0.0,0.0,0.0,0.0,-2.8438,-2.8493,-2.8432,0.0,0.0,0.0,0.0,0.0,0.0,0.0,0.0,0.0,-2.4763,-2.5708,-2.7848,-2.9585,-3.1218,-3.3303,-3.8358,-4.3468,-4.3409,-4.5707,-4.8566,-4.9808,-4.9718,-4.9164,-4.8521,-4.499,-4.0896,-3.7937,-3.4366,-3.103,-2.875,-2.8435,-2.8756,-2.9392,-3.0703,-3.2556,-3.5198,-3.6968,-3.9535,-4.3843,-4.6454,-4.8759,-5.1019,0.0,0.0,-5.3501,-5.3416,-5.299,-5.2117,-5.1957,-5.2364,-5.3433,-5.3501,-5.3501,-5.3501,-5.2723,-5.1547,-4.9935,-5.002,-4.9298,-4.7737,-4.8576,-4.9001,-4.9001,-4.9001,-4.9001,-4.9001,-4.9001,-4.9001,-4.9001,-4.8934,-4.8511,-4.7889,-4.7821,-4.7821,-4.7872,-4.7804,-4.8274,-4.89,0.0,0.0,0.0,0.0,0.0,0.0,-2.946,-2.9654,-3.0339,-3.2388,-3.2093,-3.1383,-3.0509,-3.025,-2.9549,-2.8124,0.0,0.0,0.0,0.0,0.0,0.0,0.0,0.0,0.0,0.0,-2.6258,-2.7561,-2.6397,0.0,0.0,0.0,0.0,0.0,0.0,-2.7547,-2.8138,-2.7291,0.0,0.0,0.0,0.0,0.0,0.0,0.0,0.0,0.0,0.0,-2.4845,-2.6018,-2.7358,-2.8535,-2.8794,-3.2414,-3.7162,-4.0361,-4.3747,-4.686,-4.8596,-4.9449,-4.9598,-4.8551,-4.4811,-4.0426,-3.6776,-3.288,-2.933,-2.6833,-2.7051,-2.7909,-2.867,-2.9939,-3.1788,-3.4561,-3.521,0.0,-4.1085,-4.2553,-4.4698,-4.8675,-5.0126,-5.1497,-5.3332,-5.3501,-5.3298,-5.2904,-5.287,-5.3059,-5.3467,-5.3501,-5.3501,-5.3501,-5.23,-5.1246,-5.0424,-4.9754,-4.9016,-4.8198,-4.8746,-4.9001,-4.9001,-4.9001,-4.9001,-4.9001,-4.9001,-4.9001,-4.9001,-4.9001,-4.8832,-4.8578,-4.8578,-4.8578,-4.8578,-4.8578,-4.8748,-4.9001,0.0,0.0,0.0,0.0,0.0,-2.7634,-2.9879,-2.9864,-3.0162,-3.1738,-3.1704,-3.1126,-2.9931,-2.9488,-2.8772,-2.7533,-2.6845,0.0,0.0,0.0,0.0,0.0,0.0,0.0,0.0,0.0,-2.5214,-2.6613,-2.573,-2.5615,0.0,0.0,-2.601,-2.6661,0.0,0.0,0.0,0.0,0.0,0.0,0.0,0.0,0.0,0.0,0.0,0.0,0.0,0.0,0.0,0.0,0.0,-2.5991,-2.5599,0.0,0.0,-3.629,-4.0739,-4.4507,-4.6578,-4.8222,-4.8955,-4.7347,-4.3816,-3.9545,-3.5059,-3.1164,-2.7808,-2.5297,-2.577,-2.6884,-2.7655,-2.9137,-3.1086,0.0,0.0,-3.5331,-3.9147,-4.028,-4.2169,-4.5995,0.0,-4.9591,-5.1934,-5.2689,-5.3025,-5.3025,-5.3025,-5.2921,-5.2609,-5.2886,-5.3025,-5.3025,-5.1766,-5.0721,-4.9904,-4.8958,-4.8349,-4.8199,-4.8694,-4.8938,-4.9018,-4.9221,-4.9204,-4.9001,-4.9001,-4.9001,-4.9001,-4.9001,-4.9001,-4.9001,-4.9001,-4.9001,-4.9001,-4.9001,-4.9001,-4.9001,0.0,0.0,0.0,0.0,0.0,0.0,-2.9412,-2.9606,-3.0058,-3.1346,-3.0294,-2.9608,-3.0045,-2.7904,-2.6588,-2.6964,-2.6693,0.0,0.0,0.0,0.0,0.0,0.0,0.0,0.0,0.0,-2.3514,-2.4337,-2.483,-2.4442,-2.318,-2.5228,-2.5114,-2.3206,0.0,0.0,0.0,0.0,0.0,0.0,0.0,0.0,0.0,0.0,0.0,0.0,0.0,0.0,0.0,0.0,0.0,0.0,0.0,0.0,0.0,0.0,-3.6462,-4.1591,-4.3771,-4.5813,-4.6736,-4.4327,-4.1427,-3.7792,-3.2701,-2.9259,-2.6517,-2.4424,-2.476,-2.5633,-2.6284,-2.8174,-3.0271,-3.2292,-3.3777,0.0,-3.8528,-4.0841,-4.2548,0.0,-4.6072,-4.8217,-4.8962,-5.0775,-5.1921,-5.1921,-5.1921,-5.1504,-5.049,-5.1394,-5.1921,-5.1921,-5.1196,-4.9831,-4.7843,-4.7431,-4.7225,-4.7241,-4.8215,-4.8795,-4.9018,-4.9746,-4.9678,-4.9001,-4.9001,-4.9001,-4.9001,-4.9001,-4.9001,-4.9001,-4.9001,-4.9001,-4.9001,-4.9001,-4.9001,-4.9001,0.0,0.0,0.0,0.0,0.0,0.0,0.0,-2.7002,-2.7224,-2.8589,-2.7582,-2.6905,-2.7376,-2.6106,-2.537,-2.5668,-2.574,0.0,0.0,0.0,0.0,0.0,0.0,0.0,0.0,0.0,-2.5397,-2.6131,-2.5824,-2.5245,-2.4468,-2.4633,-2.4359,-2.3715,-2.3733,-2.3829,0.0,0.0,0.0,0.0,0.0,0.0,-2.3108,0.0,0.0,0.0,0.0,0.0,0.0,0.0,0.0,0.0,0.0,0.0,0.0,-2.6859,-3.1977,-3.7513,-3.9519,-4.1276,-4.2147,-4.0344,-3.7817,-3.4695,-3.0703,-2.8039,-2.5986,-2.4523,-2.483,-2.5758,-2.6931,-2.8125,-2.9879,-3.2869,-3.3724,0.0,0.0,0.0,0.0,-4.3618,-4.7881,-5.0735,-5.0973,-5.2192,-5.2714,-5.1957,-5.2592,-5.2522,-5.1467,-5.1724,-5.1578,-5.0892,-5.016,-4.9359,-4.85,-4.878,-4.8839,-4.8632,-4.9324,-4.9678,-4.9729,-4.9475,-4.9221,-4.9001,-4.9001,-4.9001,-4.9001,-4.9001,-4.9001,-4.9001,-4.9001,-4.9001,-4.9001,-4.9001,-4.9001,-4.9001,0.0,0.0,0.0,0.0,0.0,0.0,0.0,-2.519,-2.5285,-2.5993,-2.5104,-2.4763,-2.5666,-2.4579,-2.412,-2.4918,-2.4711,0.0,0.0,0.0,0.0,0.0,0.0,0.0,-2.4326,-2.49,-2.5419,-2.5864,-2.5806,-2.5503,-2.4986,-2.4716,-2.4381,-2.3979,-2.3615,-2.3509,0.0,0.0,0.0,0.0,0.0,0.0,-2.3108,0.0,0.0,0.0,0.0,0.0,0.0,0.0,0.0,0.0,0.0,0.0,0.0,0.0,-2.8085,-3.2382,-3.5198,-3.7573,-3.8769,-3.6641,-3.4539,-3.2092,-2.8518,-2.6466,-2.5136,-2.4432,-2.4908,-2.5744,-2.6906,-2.7924,-2.9456,-3.2106,-3.3177,-3.436,-3.6298,-3.9026,-4.2038,-4.5178,-4.8282,-5.0572,-5.1519,-5.2415,-5.2784,-5.2505,-5.311,-5.2886,-5.1431,-5.134,-5.0703,-4.9287,-4.9166,-4.8708,-4.7869,-4.8586,-4.8951,-4.885,-4.9603,-4.9899,-4.9678,-4.9492,-4.9255,-4.9001,-4.9001,-4.9001,0.0,-4.9001,-4.9001,-4.9001,-4.9001,-4.9001,-4.9001,-4.9001,-4.9187,-4.9424,0.0,0.0,0.0,0.0,0.0,0.0,0.0,-2.3978,-2.4116,-2.3612,-2.2921,-2.3065,-2.4603,-2.3205,-2.2769,-2.4412,0.0,0.0,0.0,0.0,0.0,0.0,0.0,0.0,-2.3158,-2.3766,-2.4079,-2.4117,-2.5146,-2.541,-2.4913,-2.5385,-2.5046,-2.4054,-2.4017,-2.3647,-2.3108,-2.3108,-2.3108,-2.3108,-2.3108,-2.3108,0.0,0.0,0.0,0.0,0.0,0.0,0.0,0.0,0.0,0.0,0.0,0.0,0.0,0.0,0.0,0.0,0.0,-3.4182,-3.5981,-3.3066,-3.1528,-2.9816,-2.6279,-2.472,0.0,-2.4324,-2.4922,-2.5674,-2.6572,-2.773,-2.9067,-3.05,-3.2365,-3.3854,-3.4552,-3.9127,-4.3774,-4.7494,-4.7732,-4.8516,-5.0858,-5.1657,-5.24,-5.3314,-5.3382,-5.2487,-5.0528,-5.0272,-4.9258,-4.7246,-4.8072,-4.7854,-4.6396,-4.7313,-4.7934,-4.8222,-4.9227,-4.951,-4.9103,-4.9729,-4.9644,-4.9001,-4.9001,-4.9001,-4.9001,-4.9001,-4.9001,-4.9001,-4.9001,-4.9001,-4.9001,-4.9001,-4.9458,-5.0084,0.0,0.0,0.0,0.0,0.0,0.0,0.0,0.0,0.0,0.0,-2.1537,-2.1338,-2.1747,-2.0963,-2.0903,0.0,0.0,0.0,0.0,0.0,0.0,0.0,0.0,0.0,-2.3791,-2.4343,-2.482,-2.5222,-2.5946,-2.6223,-2.6097,-2.5749,-2.5247,-2.4575,-2.4192,-2.3647,-2.3108,-2.3108,-2.3108,-2.3108,-2.3108,-2.3108,0.0,0.0,0.0,0.0,-2.3108,-2.3108,0.0,0.0,0.0,0.0,0.0,0.0,0.0,0.0,-2.43,-2.5515,-2.6053,0.0,-2.9355,-2.8012,-2.7457,-2.6777,0.0,-2.418,-2.4216,-2.4973,-2.5287,-2.6105,-2.8437,-2.8725,-2.9364,-3.1679,-3.2475,-3.3596,-3.5938,-4.0368,-4.4584,-4.7834,-4.9093,-4.9727,-4.9819,-5.1816,-5.2904,-5.2312,-5.2277,-5.174,-5.0474,-4.915,-4.7577,-4.5825,-4.5988,-4.641,-4.707,-4.7543,-4.8224,-4.9032,-4.8982,-4.9277,-4.9813,-4.9441,-4.9171,-4.9001,-4.9001,-4.9001,-4.9001,-4.9001,-4.9001,-4.9001,-4.9001,-4.9001,-4.9001,-4.9001,-4.9458,-5.0084,0.0,0.0,0.0,0.0,0.0,0.0,0.0,0.0,0.0,0.0,0.0,0.0,0.0,0.0,0.0,0.0,0.0,0.0,0.0,0.0,0.0,0.0,0.0,-2.3371,-2.3991,-2.4544,-2.5039,-2.5598,-2.621,-2.6499,-2.6487,-2.5704,-2.4933,-2.4161,-2.3376,-2.2862,-2.2567,-2.2944,-2.3108,-2.3108,-2.3108,0.0,0.0,0.0,0.0,0.0,-2.3108,-2.3108,0.0,-2.3471,-2.3358,-2.3158,0.0,0.0,0.0,0.0,-2.3658,-2.4171,-2.3844,-2.5453,-2.6992,-2.5908,-2.5642,-2.5363,-2.4241,0.0,-2.3836,-2.4706,-2.5147,-2.6049,-2.8247,-2.8884,-2.9714,-3.1705,-3.2572,-3.4319,-3.818,-4.1111,-4.4246,-4.7901,-4.9032,-4.9743,-5.0464,-5.1886,-5.2522,-5.1957,-5.2348,-5.1974,-5.049,-4.921,-4.7894,-4.6478,-4.5714,-4.5499,-4.5933,-4.7305,-4.8137,-4.8344,-4.9021,-4.9419,-4.9576,-4.9187,-4.9001,-4.9001,-4.9001,-4.9001,-4.9001,-4.9001,-4.9001,-4.9001,-4.9001,-4.9001,-4.9001,-4.9001,-4.9678,-5.0608,0.0,0.0,0.0,0.0,0.0,0.0,0.0,0.0,0.0,0.0,0.0,0.0,0.0,0.0,0.0,0.0,0.0,0.0,0.0,0.0,0.0,0.0,-2.3145,-2.3371,-2.3991,-2.4544,-2.5039,-2.5598,-2.6298,-2.6593,-2.6494,-2.5563,-2.4447,-2.3221,-2.2182,-2.169,-2.1753,-2.2433,-2.272,-2.272,-2.272,0.0,0.0,0.0,0.0,0.0,0.0,0.0,0.0,-2.3108,-2.3108,-2.3108,-2.3108,0.0,0.0,0.0,0.0,0.0,-2.3208,-2.5074,-2.6644,-2.5322,-2.5024,-2.4896,-2.4206,-2.3659,-2.3484,-2.4147,-2.4975,-2.6022,-2.7637,-2.8996,-3.0342,-3.172,-3.3171,-3.5805,-4.0665,-4.2015,-4.3953,-4.7845,-4.8673,-4.9637,-5.1405,-5.1789,-5.1872,-5.1756,-5.2426,-5.2021,-5.0122,-4.9247,-4.8345,-4.7309,-4.5783,-4.4721,-4.4167,-4.663,-4.7654,-4.7241,-4.8912,-4.9468,-4.9001,-4.9001,-4.9001,-4.9001,-4.9001,-4.9001,-4.9001,-4.9001,-4.9001,-4.9001,-4.9001,-4.9001,-4.9001,-4.9001,-4.9864,-5.1048,0.0,0.0,0.0,0.0,0.0,0.0,0.0,0.0,0.0,0.0,0.0,0.0,0.0,0.0,0.0,0.0,0.0,0.0,0.0,0.0,0.0,-2.3841,-2.3358,-2.3371,-2.3991,-2.4544,-2.5039,-2.5598,-2.664,-2.6952,-2.6486,-2.5934,-2.4436,-2.2173,-2.1223,-2.0814,-2.0814,-2.0942,-2.0974,-2.0974,-2.0974,0.0,0.0,0.0,0.0,0.0,0.0,0.0,0.0,-2.3108,-2.3108,-2.3108,-2.3108,0.0,0.0,0.0,0.0,0.0,-2.3728,-2.4823,-2.5614,-2.4659,-2.4764,-2.4942,-2.4367,-2.4184,-2.4147,-2.4263,-2.5329,-2.7015,-2.949,-3.0631,-3.1809,-3.3724,-3.5704,-3.8356,-4.2379,-4.4355,-4.5986,-4.7684,-4.9957,-5.1037,-5.021,-5.1196,-5.1622,-5.1032,-5.0318,-4.9425,-4.8277,-4.6983,-4.5827,-4.487,-4.4053,-4.3544,-4.3439,-4.5218,-4.6473,-4.7225,-4.7731,-4.8325,-4.9001,-4.9001,-4.9001,-4.9001,-4.9001,-4.9001,-4.9001,-4.9001,-4.9001,-4.9001,-4.9001,-4.9001,-4.9001,-4.9001,-4.9543,-5.027,0.0,0.0,0.0,0.0,0.0,0.0,0.0,0.0,0.0,0.0,0.0,0.0,0.0,0.0,0.0,0.0,0.0,0.0,0.0,0.0,-2.2917,-2.3935,-2.374,-2.4004,-2.4845,-2.5423,-2.5975,-2.6502,-2.7331,-2.7163,-2.6061,-2.4059,-2.2056,-2.016,-1.9993,-1.989,-1.9944,-2.0398,-2.059,-2.059,0.0,0.0,0.0,0.0,0.0,0.0,0.0,0.0,0.0,0.0,-2.3108,-2.3108,-2.3108,0.0,0.0,0.0,0.0,0.0,-2.3434,-2.4117,-2.4798,-2.5079,-2.5845,-2.6484,-2.6404,-2.6161,-2.6027,-2.6383,-2.729,-2.861,-3.0576,-3.2414,-3.4442,-3.6761,-3.8258,-3.9859,-4.1961,-4.3007,-4.4226,-4.6229,-4.7784,-4.884,-4.9206,-5.0392,-5.0548,-4.9297,-4.9287,-4.8748,-4.741,-4.6369,-4.5596,-4.5159,-4.3961,-4.329,-4.329,-4.4573,-4.5435,-4.5919,-4.7062,-4.7836,-4.8257,-4.875,-4.9001,-4.9001,-4.9001,-4.9001,-4.9001,-4.9001,-4.9001,-4.9001,-4.9001,-4.9001,-4.9052,-4.9441,-4.9796,-5.0084,0.0,0.0,0.0,0.0,0.0,0.0,0.0,0.0,0.0,0.0,0.0,0.0,0.0,0.0,0.0,0.0,0.0,0.0,0.0,-2.2125,-2.244,-2.3641,-2.4023,-2.4695,-2.5774,-2.6273,-2.6826,-2.7469,-2.8034,-2.7324,-2.5449,-2.2363,-2.0088,-1.8613,-1.889,-1.9011,-1.9044,-1.9726,-1.9977,-1.9977,0.0,0.0,0.0,0.0,0.0,0.0,0.0,0.0,0.0,0.0,0.0,0.0,0.0,0.0,0.0,-2.3108,-2.3108,-2.3133,-2.3271,-2.3864,-2.4681,-2.569,-2.653,-2.7285,-2.8067,-2.7895,-2.7742,-2.8474,-2.9409,-3.0448,-3.1669,-3.4115,-3.6716,-3.9,-4.0098,-4.0965,-4.1923,-4.2486,-4.3525,-4.5626,-4.6578,-4.7538,-4.8785,-4.9458,-4.9174,-4.7656,-4.8166,-4.7889,-4.6374,-4.5905,-4.5518,-4.5303,-4.4004,-4.329,-4.329,-4.4066,-4.4548,-4.4812,-4.6712,-4.7589,-4.7622,-4.8576,-4.9001,-4.9001,-4.9001,-4.9001,-4.9001,-4.9001,-4.9001,-4.9001,-4.9001,-4.9001,-4.9069,-4.9627,-4.983,-4.983,0.0,0.0,0.0,0.0,0.0,0.0,0.0,0.0,0.0,0.0,0.0,0.0,0.0,0.0,0.0,0.0,0.0,0.0,0.0,-2.1491,-2.2178,-2.2767,-2.404,-2.5272,-2.6411,-2.6474,-2.7014,-2.8047,-2.8562,-2.7369,-2.4536,-2.2362,-2.0375,-1.8588,-1.8262,-1.8076,-1.811,-1.8168,-1.8202,-1.8202,-1.8202,0.0,0.0,0.0,0.0,0.0,0.0,0.0,0.0,0.0,0.0,0.0,0.0,0.0,-2.3108,-2.3108,-2.3108,-2.3221,-2.3791,-2.4813,-2.5805,-2.6025,-2.5664,-2.5827,-2.79,-2.8311,-2.8491,-2.9409,-3.0969,-3.2411,-3.3126,-3.5429,-3.7734,-3.9185,-4.0487,-4.1968,-4.3838,-4.5708,-4.7067,-4.757,-4.9309,-5.0131,-4.9351,-4.8498,-4.7641,-4.6825,-4.6269,-4.5525,-4.4539,-4.4726,-4.4435,-4.3508,-4.3359,-4.329,-4.329,-4.3369,-4.3888,-4.4812,-4.6712,-4.7589,-4.7622,-4.8576,-4.9001,-4.9001,-4.9001,-4.9001,-4.9001,-4.9001,-4.9001,-4.9001,-4.9001,-4.9001,-4.9018,-4.9069,-4.9086,-4.9086,0.0,0.0,0.0,0.0,0.0,0.0,0.0,0.0,0.0,0.0,0.0,0.0,0.0,0.0,0.0,0.0,0.0,0.0,0.0,-2.1049,-2.1573,-2.264,-2.354,-2.4791,-2.6505,-2.717,-2.7858,-2.8612,-2.784,-2.6767,-2.5376,-2.2921,-2.0965,-1.9499,-1.9015,-1.8496,-1.8008,-1.8008,-1.8008,-1.8008,-1.8008,-1.8202,0.0,0.0,0.0,0.0,0.0,0.0,0.0,0.0,-2.3108,-2.3108,-2.3108,-2.3108,-2.3108,-2.3108,-2.3108,-2.3158,-2.3371,-2.4323,-2.5422,-2.6362,-2.6717,-2.7541,-3.0276,-3.1118,-3.1843,-3.3576,-3.4766,-3.5722,-3.6388,-3.7337,-3.8601,-4.0352,-4.1399,-4.2575,-4.4092,-4.4589,-4.5178,-4.6113,-4.6535,-4.678,-4.6794,-4.6468,-4.5966,-4.5243,-4.4955,-4.4327,-4.3174,-4.3225,-4.3128,-4.277,-4.2342,-4.2312,-4.2731,-4.2327,-4.2505,-4.332,-4.5044,-4.585,-4.5921,-4.7456,-4.8112,-4.8161,-4.875,-4.9001,-4.9001,-4.9001,-4.9001,-4.9001,-4.9001,-4.9001,-4.9001,-4.9001,-4.9001,-4.9001,0.0,0.0,0.0,0.0,0.0,0.0,0.0,0.0,0.0,0.0,0.0,0.0,0.0,0.0,0.0,0.0,0.0,0.0,-2.0348,-2.0379,-2.1007,-2.2425,-2.3292,-2.4679,-2.6784,-2.7655,-2.8461,-2.9164,-2.7778,-2.6601,-2.5709,-2.3665,-2.2126,-2.1015,-2.0143,-1.9445,-1.8873,-1.84,-1.8135,-1.8008,-1.8008,-1.8008,0.0,0.0,0.0,0.0,0.0,0.0,0.0,0.0,-2.2884,-2.3108,-2.3108,-2.3108,-2.3108,-2.3108,-2.3119,-2.3153,-2.3105,-2.3984,-2.5221,-2.6403,-2.7477,-2.919,-3.2795,-3.3916,-3.4816,-3.7057,-3.7808,-3.8123,-3.8347,-3.8571,-3.923,-4.0816,-4.1968,-4.2985,-4.3883,-4.3877,-4.4076,-4.4896,-4.484,-4.4906,-4.5271,-4.511,-4.4721,-4.4007,-4.3808,-4.3225,-4.2156,-4.2096,-4.2096,-4.2096,-4.1647,-4.1632,-4.2081,-4.1647,-4.1647,-4.2096,-4.3191,-4.411,-4.4849,-4.6747,-4.744,-4.7239,-4.8465,-4.8829,-4.8576,-4.8892,-4.9001,-4.9001,-4.9001,-4.9001,-4.9001,-4.9001,-4.9001,-4.9001,0.0,0.0,0.0,0.0,0.0,0.0,0.0,0.0,0.0,0.0,0.0,0.0,0.0,0.0,0.0,0.0,0.0,0.0,-1.8648,-1.9416,-2.0559,-2.1967,-2.3421,-2.5185,-2.7268,-2.7833,-2.8674,-2.9792,-2.8662,-2.7136,-2.5217,-2.4619,-2.3908,-2.3047,-2.1523,-2.0861,-2.0783,-1.9259,-1.8398,-1.8018,-1.8008,-1.8008,-1.8008,0.0,0.0,0.0,0.0,0.0,0.0,0.0,-2.2445,-2.3108,-2.3108,-2.3108,-2.3108,-2.3108,-2.318,-2.3274,-2.3153,-2.4137,-2.5379,-2.6072,-2.7641,-3.0341,-3.5189,-3.6306,-3.6961,-3.9338,-3.9591,-3.9215,-3.8542,-3.896,-3.9649,-4.0307,-4.2043,-4.329,-4.329,-4.4143,-4.4657,-4.4333,-4.5105,-4.5585,-4.5323,-4.4676,-4.4032,-4.3334,-4.2716,-4.2111,-4.1452,-4.1407,-4.1407,-4.1407,-4.1369,-4.1369,-4.1407,-4.1369,-4.1369,-4.1407,-4.1407,-4.2599,-4.4818,-4.6712,-4.7054,-4.6263,-4.8193,-4.8465,-4.7655,-4.8608,-4.9001,-4.9001,-4.9001,-4.9001,-4.9001,-4.9001,-4.9001,-4.9001,0.0,0.0,0.0,0.0,0.0,0.0,0.0,0.0,0.0,0.0,0.0,0.0,0.0,0.0,0.0,0.0,0.0,0.0,-2.0494,-2.0546,-2.1271,-2.2972,-2.384,-2.5073,-2.676,-2.8437,-2.9453,-2.9792,-2.9051,-2.8363,-2.7779,-2.685,-2.5761,-2.4543,-2.3653,-2.2372,-2.0794,-1.9983,-1.9172,-1.8393,-1.8091,-1.8008,-1.8008,0.0,0.0,0.0,0.0,0.0,0.0,0.0,0.0,0.0,-2.3108,-2.3108,-2.3108,-2.3108,-2.3132,-2.3255,-2.3803,-2.48,-2.6126,-2.7982,-3.0491,-3.3322,-3.6384,-3.628,-3.6408,-3.9579,-3.9772,-3.9499,-3.9753,-3.9978,-4.0322,-4.098,-4.1968,-4.2821,-4.323,-4.3551,-4.3705,-4.3599,-4.3837,-4.3976,-4.3898,-4.3329,-4.2905,-4.2671,-4.2081,-4.1422,-4.0726,-4.0696,-4.0696,-4.0696,-4.0247,-4.0232,-4.0681,-4.0232,-4.0232,-4.0696,-4.0696,-4.1318,-4.247,-4.4148,-4.4784,-4.4636,-4.6993,-4.7868,-4.7655,-4.8608,-4.9001,-4.9001,-4.9001,-4.9001,-4.9001,-4.9001,-4.9001,-4.9001,0.0,0.0,0.0,0.0,0.0,0.0,0.0,0.0,0.0,0.0,0.0,0.0,0.0,0.0,0.0,0.0,0.0,0.0,0.0,-2.1381,-2.2266,-2.4324,-2.4944,-2.5949,-2.7479,-2.9035,-2.9792,-2.9792,-2.9214,-2.8775,-2.8549,-2.7921,-2.728,-2.6614,-2.5636,-2.4353,-2.2791,-2.1914,-2.0941,-1.9979,-1.9168,-1.8825,-1.8771,0.0,0.0,0.0,0.0,0.0,0.0,0.0,0.0,0.0,-2.3017,-2.3108,-2.3058,-2.2844,-2.3198,-2.3704,-2.42,-2.5571,-2.7453,-2.9977,-3.254,-3.5145,-3.7615,-3.8299,-3.9092,-4.1449,-4.101,-4.0397,-4.1055,-4.0531,-4.0307,-4.1235,-4.1752,-4.2141,-4.2491,-4.2551,-4.2551,-4.2551,-4.2551,-4.2551,-4.2551,-4.2207,-4.1901,-4.1647,-4.1205,-4.0711,-4.0053,-3.9753,-3.9723,-3.9993,-3.911,-3.8931,-3.9589,-3.92,-3.9215,-3.9604,-3.9888,-4.0217,-4.0658,-4.2539,-4.3349,-4.3361,-4.5616,-4.6865,-4.7343,-4.8211,-4.8578,-4.8595,-4.89,-4.9001,-4.9001,-4.9001,-4.9001,-4.9001,0.0,0.0,0.0,0.0,0.0,0.0,0.0,0.0,0.0,0.0,-1.9251,0.0,0.0,0.0,0.0,0.0,0.0,0.0,0.0,-2.1961,-2.3288,-2.5718,-2.6438,-2.7454,-2.8875,-2.9503,-2.9792,-2.9792,-2.9264,-2.8712,-2.826,-2.826,-2.8499,-2.8825,-2.7393,-2.6464,-2.5864,-2.439,-2.3157,-2.2149,-2.0807,-2.0262,-2.0075,-1.8706,0.0,0.0,0.0,0.0,0.0,0.0,0.0,0.0,-2.2854,-2.3108,-2.3007,-2.2506,-2.3265,-2.4354,-2.4585,-2.6394,-2.89,-3.1845,-3.4118,-3.628,-3.8975,-4.1406,-4.326,-4.3853,-4.2641,-4.1677,-4.2216,-4.0801,-3.9993,-4.119,-4.1422,-4.1422,-4.1422,-4.1422,-4.1422,-4.1422,-4.1422,-4.1392,-4.1294,-4.1235,-4.0935,-4.0277,-4.0157,-3.9873,-3.9275,-3.8646,-3.8586,-3.9179,-3.8048,-3.7689,-3.8287,-3.8302,-3.8332,-3.8407,-3.9035,-3.9334,-3.9364,-4.1592,-4.2573,-4.2659,-4.4299,-4.5685,-4.6836,-4.753,-4.7821,-4.7956,-4.8646,-4.8951,-4.9001,-4.9001,-4.9001,-4.9001,0.0,0.0,0.0,0.0,0.0,0.0,0.0,0.0,0.0,0.0,0.0,0.0,0.0,0.0,0.0,0.0,0.0,0.0,0.0,-2.2321,-2.3563,-2.5705,-2.747,-2.8562,-2.8888,-2.9503,-2.9792,-2.9792,-2.9666,-2.9553,-2.9428,-2.9428,-2.9252,-2.8863,-2.8114,-2.7054,-2.5755,-2.4637,-2.363,-2.2701,-2.2034,-2.1497,-2.1008,-2.0012,-1.9815,0.0,0.0,0.0,0.0,0.0,0.0,0.0,-2.2854,-2.3108,-2.3083,-2.2957,-2.3145,-2.3868,-2.6068,-2.7076,-2.856,-3.2961,-3.6287,-3.8939,-4.0584,-4.1384,-4.1698,-4.1324,-4.1728,-4.2066,-4.1707,-4.125,-4.1055,-4.1324,-4.1422,-4.1422,-4.1422,-4.1422,-4.1422,-4.1422,-4.1422,-4.1175,-4.0666,-4.0142,-3.9559,-3.8871,-3.8347,-3.7988,-3.7853,-3.7704,-3.7689,-3.7838,-3.7554,-3.7479,-3.7614,-3.7629,-3.7883,-3.8392,-3.8542,-3.8616,-3.8661,-4.0197,-4.1955,-4.375,-4.4163,-4.526,-4.6802,-4.6972,-4.7394,-4.7906,-4.8058,-4.8494,-4.9001,-4.9001,-4.9001,-4.9001,0.0,0.0,0.0,0.0,0.0,0.0,0.0,0.0,0.0,0.0,0.0,0.0,0.0,0.0,0.0,0.0,0.0,0.0,0.0,0.0,-2.5045,-2.7615,-2.8748,-2.934,-2.934,-2.9641,-2.9792,-2.9792,-2.9792,-2.9792,-2.9792,-2.9792,-2.9628,-2.9327,-2.9038,-2.8164,-2.6858,-2.6332,-2.5548,-2.4541,-2.3582,-2.3027,-2.2671,-2.1552,-2.104,-2.0872,-1.9959,0.0,0.0,0.0,0.0,0.0,0.0,0.0,-2.3058,-2.2794,-2.3162,-2.409,-2.5916,-2.7592,-2.9931,-3.4693,-3.7659,-3.9679,-4.0681,-4.0905,-4.0816,-4.0472,-4.095,-4.1324,-4.098,-4.0651,-4.0442,-4.0442,-4.0157,-3.9948,-3.9948,-3.9679,-3.9469,-3.9469,-3.9469,-3.9349,-3.9005,-3.8661,-3.8317,-3.7943,-3.7599,-3.7404,-3.7404,-3.7135,-3.7105,-3.7404,-3.6821,-3.6641,-3.6971,-3.6971,-3.7135,-3.7479,-3.7778,-3.8078,-3.8422,-3.9454,-4.108,-4.3117,-4.342,-4.4393,-4.5754,-4.6126,-4.6718,-4.7411,-4.7753,-4.8359,-4.9001,-4.9001,-4.9001,-4.9001,0.0,0.0,0.0,0.0,0.0,0.0,0.0,0.0,0.0,0.0,0.0,0.0,0.0,0.0,0.0,0.0,0.0,0.0,0.0,0.0,0.0,-2.9367,-2.9714,-2.9792,-2.9792,-2.9792,-2.9792,-2.9792,-2.9792,-2.9792,-2.9792,-2.9792,-2.9792,-2.9792,-2.9691,-2.9076,-2.8097,-2.8009,-2.7381,-2.638,-2.5174,-2.4611,-2.4376,-2.3051,-2.232,-2.1951,-2.1653,-2.136,-2.1204,-2.1918,0.0,0.0,0.0,0.0,-2.3007,-2.2556,-2.3231,-2.4319,-2.5324,-2.8206,-3.1866,-3.5907,-3.8003,-3.9215,-3.9768,-3.9888,-3.9888,-3.9888,-3.9978,-4.0053,-4.0053,-3.9514,-3.9029,-3.9029,-3.8601,-3.8227,-3.8227,-3.7749,-3.7404,-3.7404,-3.7404,-3.736,-3.7255,-3.724,-3.721,-3.709,-3.7075,-3.7075,-3.7075,-3.6596,-3.6552,-3.706,-3.6058,-3.5774,-3.6312,-3.6312,-3.6372,-3.6492,-3.7,-3.7584,-3.8242,-3.8691,-4.0021,-4.2029,-4.2573,-4.351,-4.4649,-4.5263,-4.594,-4.6667,-4.7428,-4.8173,-4.8815,-4.8815,-4.89,-4.8984,0.0,0.0,0.0,0.0,0.0,0.0,0.0,0.0,0.0,0.0,-2.0001,0.0,0.0,0.0,0.0,0.0,0.0,0.0,0.0,0.0,0.0,-2.8243,-2.9275,-2.9792,-2.9792,-2.9792,-2.9792,-2.9792,-2.9792,-2.9792,-2.9792,-2.9792,-2.9792,-2.9767,-2.9264,-2.8699,-2.8072,-2.7595,-2.7065,-2.6487,-2.6296,-2.589,-2.534,-2.4374,-2.415,-2.4153,-2.2648,-2.2534,-2.3122,-2.3266,-2.2968,0.0,0.0,0.0,-2.3095,-2.3007,-2.3135,-2.3688,-2.5588,-2.9495,-3.3302,-3.4567,-3.6282,-3.7704,-3.7793,-3.7808,-3.7808,-3.7808,-3.8257,-3.8661,-3.8661,-3.8123,-3.7674,-3.7674,-3.7599,-3.7539,-3.7539,-3.7464,-3.7404,-3.7404,-3.7404,-3.7195,-3.6656,-3.6611,-3.6372,-3.5804,-3.5759,-3.5759,-3.5759,-3.5684,-3.5669,-3.5759,-3.5594,-3.5549,-3.5639,-3.5639,-3.5923,-3.6492,-3.6567,-3.6941,-3.7524,-3.7075,-3.8767,-4.1997,-4.2093,-4.3082,-4.4615,-4.4716,-4.5162,-4.5923,-4.665,-4.7394,-4.8041,-4.8041,-4.846,-4.8917,0.0,0.0,0.0,0.0,0.0,0.0,0.0,0.0,0.0,0.0,0.0,-2.0732,0.0,0.0,0.0,0.0,0.0,0.0,0.0,0.0,0.0,-2.8964,-2.9534,-2.9792,-2.9792,-2.9792,-2.9792,-2.9792,-2.9792,-2.9792,-2.9792,-2.9792,-2.9792,-2.9779,-2.9528,-2.9101,-2.8512,-2.831,-2.7708,-2.6952,-2.6952,-2.6424,-2.5603,-2.5552,-2.5236,-2.4748,-2.4271,-2.4165,-2.423,-2.423,-2.4071,-2.389,-2.3954,0.0,0.0,0.0,-2.3108,-2.3653,-2.6152,-2.8679,-3.1036,-3.2929,-3.4577,-3.5863,-3.6252,-3.6626,-3.6985,-3.7345,-3.7075,-3.6881,-3.7255,-3.7375,-3.73,-3.6941,-3.6896,-3.6896,-3.6896,-3.6567,-3.6342,-3.6342,-3.6342,-3.6237,-3.5968,-3.5938,-3.5818,-3.5534,-3.5504,-3.5504,-3.5504,-3.5504,-3.5504,-3.5504,-3.5504,-3.5504,-3.5504,-3.5504,-3.5654,-3.5938,-3.6312,-3.6626,-3.6896,-3.6971,-3.8162,-4.0196,-4.0626,-4.1762,-4.3325,-4.3771,-4.4637,-4.5737,-4.6058,-4.6904,-4.7838,-4.7445,-4.7767,-4.8359,0.0,0.0,0.0,0.0,0.0,0.0,0.0,0.0,0.0,0.0,0.0,0.0,0.0,0.0,0.0,0.0,0.0,0.0,0.0,0.0,0.0,-2.9689,-2.9792,-2.9792,-2.9792,-2.9792,-2.9792,-2.9792,-2.9792,-2.9792,-2.9792,-2.9792,-2.9792,-2.9792,-2.9792,-2.9465,-2.8888,-2.8888,-2.8373,-2.7469,-2.7216,-2.66,-2.5871,-2.6021,-2.5611,-2.5071,-2.546,-2.5435,-2.5234,-2.5234,-2.5146,-2.4946,-2.4531,-2.4217,0.0,0.0,0.0,-2.359,-2.5907,-2.7451,-2.8872,-3.094,-3.275,-3.4113,-3.4622,-3.525,-3.5908,-3.6537,-3.6043,-3.5654,-3.6148,-3.6611,-3.6776,-3.6312,-3.6237,-3.6237,-3.6237,-3.5818,-3.5504,-3.5504,-3.5504,-3.5504,-3.5504,-3.5504,-3.5504,-3.5504,-3.5504,-3.5504,-3.5504,-3.5504,-3.5504,-3.5504,-3.5504,-3.5504,-3.5504,-3.5504,-3.5504,-3.5504,-3.6013,-3.6237,-3.6252,-3.6716,-3.7265,-3.7971,-3.9283,-4.0782,-4.2348,-4.3069,-4.417,-4.5432,-4.5635,-4.638,-4.7263,-4.6718,-4.6989,-4.7597,0.0,0.0,0.0,0.0,0.0,0.0,0.0,0.0,0.0,0.0,0.0,0.0,-2.1142,-2.119,-2.1531,-2.2402,0.0,0.0,0.0,0.0,0.0,-2.9689,-2.9792,0.0,-2.9792,-2.9792,-2.9792,-2.9792,-2.9792,-2.9792,-2.9792,-2.9792,-2.9792,-2.9792,-2.9792,-2.9465,-2.8888,-2.8888,-2.8549,-2.7971,-2.6952,-2.6499,-2.6336,-2.5297,-2.5172,-2.5561,-2.5586,-2.5971,-2.6411,-2.6411,-2.6047,-2.5548,-2.5523,-2.482,-2.3991,0.0,0.0,0.0,-2.4213,-2.6342,-2.8336,-2.8541,-3.0616,-3.2617,-3.2662,-3.317,-3.3844,-3.4518,-3.51,-3.5519,-3.5549,-3.5579,-3.5594,-3.5564,-3.5549,-3.5549,-3.5549,-3.5534,-3.5504,-3.5504,-3.5504,-3.5504,-3.5504,-3.5504,-3.5504,-3.5504,-3.5504,-3.5504,-3.5504,-3.5504,-3.5504,-3.5504,-3.5504,-3.5504,-3.5504,-3.5504,-3.5504,-3.5504,-3.5549,-3.5549,-3.5549,-3.5594,-3.5627,-3.5829,-3.8539,-4.0705,-4.2352,-4.302,-4.3844,-4.4733,-4.5432,-4.5754,-4.5821,-4.5771,-4.6227,-4.6752,0.0,0.0,0.0,0.0,0.0,0.0,0.0,0.0,0.0,0.0,0.0,0.0,0.0,-2.2009,-2.2243,-2.2818,-2.2529,0.0,0.0,0.0,0.0,-2.8624,-2.9404,-2.9792,-2.9792,-2.9792,-2.9792,-2.9792,-2.9792,-2.9792,-2.9792,-2.9792,-2.9792,-2.9792,-2.9792,-2.9679,-2.9478,-2.9478,-2.9151,-2.8561,-2.7821,-2.7128,-2.6449,-2.6059,-2.5762,-2.5649,-2.6047,-2.6549,-2.7014,-2.7014,-2.6889,-2.6615,-2.6298,-2.5669,-2.4883,-2.4205,-2.3853,-2.3755,-2.4194,-2.4991,-2.5957,-2.6875,-2.8512,-2.9987,-3.0412,-3.1723,-3.2931,-3.317,-3.3754,-3.4218,-3.4218,-3.4921,-3.5504,-3.5504,-3.5504,-3.5355,-3.4906,-3.4846,-3.4681,-3.4262,-3.4592,-3.4846,-3.4846,-3.525,-3.5504,-3.5504,-3.5504,-3.5504,-3.5504,-3.5504,-3.5504,-3.5504,-3.5504,-3.5504,-3.5504,-3.5504,-3.5504,-3.5504,-3.5504,-3.5504,-3.5504,-3.5504,-3.5504,-3.5564,-3.7023,-3.8839,-4.0843,-4.112,-4.256,-4.4581,-4.4333,-4.484,-4.5652,-4.5162,-4.5449,-4.6126,0.0,0.0,0.0,0.0,0.0,0.0,0.0,0.0,0.0,-2.119,0.0,0.0,0.0,0.0,-2.2412,-2.2652,-2.2918,-2.3814,-2.5628,-2.6113,-2.6878,-2.8072,-2.9197,-2.9792,-2.9792,-2.9792,-2.9792,-2.9792,-2.9792,-2.9792,-2.9792,-2.9792,-2.9792,-2.9792,-2.9792,-2.9792,-2.9792,-2.9792,-2.9566,-2.9139,-2.821,-2.7507,-2.6989,-2.6424,-2.6197,-2.6189,-2.6424,-2.6851,-2.7256,-2.7102,-2.704,-2.6977,-2.6612,-2.6097,-2.5423,0.0,0.0,0.0,-2.415,-2.4406,-2.4784,-2.5522,-2.6891,-2.8208,-2.8655,-3.0204,-3.1584,-3.1794,-3.2362,-3.2841,-3.2841,-3.3574,-3.4307,-3.4756,-3.4831,-3.4666,-3.4249,-3.4174,-3.3978,-3.3544,-3.3873,-3.4174,-3.4174,-3.4562,-3.4831,-3.4831,-3.504,-3.516,-3.516,-3.5385,-3.5504,-3.5504,-3.5504,-3.5504,-3.5504,-3.5504,-3.5504,-3.5504,-3.5504,-3.5504,-3.5504,-3.5504,-3.5504,-3.5534,-3.5968,-3.7316,-3.9273,-3.9826,-4.1406,-4.3452,-4.3439,-4.4045,-4.4908,-4.4671,-4.4891,-4.5399,0.0,0.0,0.0,0.0,0.0,0.0,0.0,0.0,-2.1229,-2.1229,0.0,0.0,0.0,0.0,0.0,-2.1965,-2.3361,-2.4209,-2.426,-2.6302,-2.7678,-2.8032,0.0,0.0,-2.9753,-2.9792,-2.9792,-2.9792,-2.9792,-2.9792,-2.9792,-2.9792,-2.9792,-2.9792,-2.9792,-2.9792,-2.9792,-2.9792,-2.9792,-2.9654,-2.7996,-2.7657,-2.7946,-2.6302,-2.6339,-2.7241,-2.6713,-2.6864,-2.7241,-2.67,-2.6524,-2.6537,-2.6524,-2.6122,0.0,0.0,0.0,0.0,0.0,0.0,0.0,-2.4451,-2.5854,-2.7417,-2.7417,-2.8488,-2.9687,-3.03,-3.0929,-3.1422,-3.1451,-3.1451,-3.1869,-3.317,-3.341,-3.344,-3.344,-3.344,-3.3425,-3.341,-3.3425,-3.344,-3.344,-3.3455,-3.3469,-3.3499,-3.4114,-3.4474,-3.4474,-3.5085,-3.5444,-3.5444,-3.5444,-3.5459,-3.5474,-3.5474,-3.5489,-3.5504,-3.5504,-3.5504,-3.5504,-3.5504,-3.5504,-3.5504,-3.5504,-3.6322,-3.7748,-3.9245,-4.038,-4.134,-4.2774,-4.3358,-4.3477,-4.4265,-4.4581,-4.4615,0.0,0.0,0.0,0.0,0.0,0.0,-2.1738,-2.1963,-2.2158,0.0,0.0,0.0,-2.274,-2.275,-2.3117,-2.3926,-2.4117,-2.4666,-2.5796,-2.6895,-2.7325,-2.6942,-2.8791,-2.9404,-2.8597,-2.9365,-2.9792,-2.9792,-2.9792,-2.9792,-2.9792,-2.9792,-2.9792,-2.9792,-2.9792,-2.9792,-2.9792,-2.9792,-2.9792,-2.9716,-2.8837,-2.8561,-2.8612,-2.7745,-2.7356,-2.7268,-2.714,-2.719,-2.7291,-2.714,-2.7318,-2.7582,-2.718,-2.67,0.0,0.0,0.0,0.0,-2.4695,0.0,0.0,0.0,0.0,0.0,-2.5208,-2.6258,-2.7483,-2.8186,-2.8821,-2.9458,-3.002,-3.0118,-3.0238,-3.0625,-3.145,-3.2049,-3.2049,-3.2049,-3.1854,-3.139,-3.175,-3.2049,-3.2049,-3.2497,-3.2976,-3.3455,-3.3664,-3.3769,-3.3769,-3.3948,-3.4053,-3.4053,-3.4053,-3.4277,-3.4756,-3.4788,-3.5011,-3.5504,-3.5504,-3.5504,-3.5504,-3.5504,-3.5504,-3.5504,-3.5504,-3.5724,-3.623,-3.7753,-3.9489,-4.1241,-4.1648,-4.2472,-4.3426,-4.3656,-4.4096,-4.4682,0.0,0.0,0.0,0.0,0.0,-2.2344,-2.2178,-2.2353,-2.251,0.0,0.0,0.0,-2.3081,-2.3257,-2.3584,-2.4059,-2.4303,-2.464,-2.5041,-2.676,-2.739,-2.6554,-2.8633,-2.9495,-2.8806,-2.9456,-2.9792,-2.9792,-2.9792,-2.9792,-2.9792,-2.9792,-2.9792,-2.9792,-2.9792,-2.9792,-2.9792,-2.9792,-2.9792,-2.9741,-2.9126,-2.9038,-2.9227,-2.8662,-2.8398,-2.8298,-2.8059,-2.7971,-2.7896,-2.7444,-2.7494,-2.7708,-2.7381,-2.7102,0.0,0.0,0.0,0.0,0.0,0.0,0.0,0.0,0.0,0.0,-2.4345,-2.5165,-2.6092,-2.6551,-2.6903,-2.7284,-2.777,-2.7839,-2.7948,-2.8275,-2.8935,-2.9725,-3.0586,-3.0717,-3.0567,-3.0163,-3.0477,-3.0717,-3.0717,-3.13,-3.1839,-3.2213,-3.2766,-3.32,-3.3484,-3.3499,-3.3499,-3.3499,-3.3499,-3.3679,-3.4099,-3.4369,-3.4713,-3.5085,-3.537,-3.5504,-3.5504,-3.5504,-3.5504,-3.5504,-3.5504,-3.5504,-3.5587,-3.6783,-3.8446,-4.0295,-4.0945,-4.2085,-4.3426,-4.3792,-4.4198,-4.4666,0.0,0.0,0.0,-2.3091,-2.314,-2.3062,-2.2715,-2.2656,-2.2666,0.0,-2.2725,-2.2871,-2.3198,-2.3584,-2.3633,-2.3198,-2.4155,-2.4372,-2.3343,-2.6202,-2.7441,-2.6348,-2.8343,-2.9417,-2.9417,-2.9546,-2.9663,-2.9792,-2.9792,-2.9792,-2.9792,-2.9792,-2.9792,-2.9792,-2.9792,-2.9792,-2.9792,-2.9792,-2.9792,-2.9741,-2.9239,-2.934,-2.9729,-2.9176,-2.9302,-2.9628,-2.9076,-2.885,-2.865,-2.7708,-2.7329,-2.7241,-2.7331,-2.7329,-2.7241,-2.7268,-2.6527,0.0,0.0,0.0,0.0,0.0,-2.4582,0.0,-2.4436,-2.4761,-2.5189,-2.5341,-2.53,-2.5287,-2.537,-2.5398,-2.5618,-2.6256,-2.6457,-2.7181,-2.911,-2.9457,-2.9472,-2.9397,-2.9457,-2.9502,-2.9502,-2.9968,-3.0357,-3.0492,-3.1689,-3.2662,-3.3245,-3.3275,-3.3275,-3.3275,-3.3275,-3.3305,-3.338,-3.4038,-3.4444,-3.4518,-3.5175,-3.5504,-3.5504,-3.5504,-3.5504,-3.5504,-3.5504,-3.5504,-3.5554,-3.6196,-3.7324,-3.8811,-4.0349,-4.1799,-4.3141,-4.4001,-4.4412,-4.4496,0.0,0.0,-2.3091,-2.3091,-2.3417,-2.366,-2.3574,-2.3545,-2.3662,-2.4004,-2.4043,-2.4072,-2.416,-2.3945,-2.375,-2.3672,-2.4339,-2.4713,-2.45,-2.5922,-2.6295,-2.5168,-2.6419,-2.7139,-2.7139,-2.7988,-2.8897,-2.9792,-2.9792,-2.9792,-2.9792,-2.9792,-2.9792,-2.9792,-2.9792,-2.9792,-2.9792,-2.9792,-2.9792,-2.9779,-2.9666,-2.9691,-2.9779,-2.9666,-2.9402,-2.9051,-2.8938,-2.8599,-2.8235,-2.8009,-2.7356,-2.6813,-2.7657,-2.7331,-2.6738,-2.719,-2.6851,0.0,0.0,0.0,0.0,-2.531,-2.476,0.0,-2.4627,-2.4104,-2.3866,-2.4945,-2.4813,-2.4709,-2.5287,-2.5398,-2.5453,-2.5591,-2.6122,-2.6835,-2.7842,-2.8442,-2.8592,-2.8049,-2.8483,-2.8801,-2.8801,-2.8906,-2.94,-3.0432,-3.1241,-3.175,-3.1884,-3.1884,-3.1884,-3.1884,-3.1884,-3.2138,-3.2706,-3.3365,-3.3979,-3.4518,-3.5175,-3.5504,-3.5504,-3.5504,-3.5504,-3.5504,-3.5504,-3.5504,-3.5504,-3.5651,-3.6257,-3.7198,-3.8772,-3.9908,-4.0906,-4.225,-4.3115,-4.3741,0.0,0.0,-2.3179,-2.3417,-2.3641,-2.3881,-2.4082,-2.4102,-2.4258,-2.4687,-2.4932,-2.499,-2.4766,-2.4551,-2.4258,-2.3828,-2.4604,-2.4748,-2.4016,-2.5557,-2.5975,-2.483,-2.588,-2.6524,-2.6524,-2.7046,-2.7815,-2.8937,-2.8937,-2.9236,-2.9792,-2.9792,-2.9641,-2.9377,-2.9666,-2.9628,-2.9377,-2.9666,-2.9792,-2.9792,-2.9792,-2.9792,-2.9792,-2.9792,-2.9616,-2.9365,-2.9365,-2.9001,-2.8511,-2.8511,-2.8147,-2.7783,-2.8348,-2.8134,-2.7745,-2.8021,-2.7708,-2.7281,-2.7281,-2.6866,-2.6377,-2.6135,-2.541,0.0,0.0,-2.4136,-2.3732,-2.4397,-2.409,-2.3826,-2.4179,-2.4237,-2.4381,-2.4794,-2.5481,-2.6074,-2.6502,-2.7164,-2.735,-2.6677,-2.7186,-2.759,-2.759,-2.8203,-2.8996,-2.9968,-3.0657,-3.0987,-3.0987,-3.1316,-3.1511,-3.1511,-3.1511,-3.166,-3.1989,-3.2677,-3.3335,-3.3993,-3.4666,-3.5175,-3.5504,-3.5504,-3.5504,-3.5504,-3.5504,-3.5504,-3.5504,-3.5504,-3.5733,-3.6227,-3.8158,-3.9633,-4.0811,-4.2314,-4.3098,-4.3511,0.0,0.0,0.0,-2.3596,-2.3728,-2.3926,-2.4248,-2.4365,-2.4609,-2.5127,-2.5586,-2.582,-2.5724,-2.5535,-2.5218,-2.4683,-2.5241,-2.5105,-2.386,-2.5296,-2.5755,-2.483,-2.5473,-2.5933,-2.6182,-2.6389,-2.7046,-2.8096,-2.8307,-2.8897,-2.9792,-2.9792,-2.9541,-2.9076,-2.9578,-2.9528,-2.9126,-2.9591,-2.9792,-2.9792,-2.9792,-2.9792,-2.9792,-2.9792,-2.9792,-2.9792,-2.9792,-2.9415,-2.8888,-2.8888,-2.8813,-2.875,-2.8863,-2.8813,-2.875,-2.8863,-2.8499,-2.8109,-2.8109,-2.777,-2.7331,-2.6927,-2.6298,-2.5686,0.0,0.0,0.0,-2.428,-2.3766,-2.3271,-2.3271,-2.3183,-2.3305,-2.3972,-2.4696,-2.5204,-2.5294,-2.5925,-2.6232,-2.583,-2.6378,-2.6806,-2.6806,-2.7889,-2.8816,-2.9382,-3.0088,-3.0507,-3.0507,-3.1137,-3.1511,-3.1511,-3.1511,-3.1511,-3.1511,-3.2153,-3.2841,-3.3499,-3.4189,-3.4846,-3.5504,-3.5504,-3.5504,-3.5504,-3.5504,-3.5504,-3.5504,-3.5504,-3.5504,-3.5696,-3.7682,-3.9314,-4.0745,-4.2211,-4.2928,-4.3301,-2.3091,-2.3091,0.0,0.0,-2.3534,-2.3835,-2.3867,-2.418,-2.4717,-2.5499,-2.6045,-2.6715,-2.7738,-2.704,-2.6843,-2.7654,-2.6899,-2.6366,-2.6298,-2.548,-2.4957,-2.4787,-2.3963,-2.3963,-2.4957,-2.5964,-2.7046,-2.8096,-2.9106,-2.9663,-2.9792,-2.9792,-2.9754,-2.9691,-2.9767,-2.9754,-2.9691,-2.9767,-2.9792,-2.9792,-2.9792,-2.9792,-2.9792,-2.9792,-2.9792,-2.9792,-2.9792,-2.9415,-2.8888,-2.8888,-2.8562,-2.8285,-2.8737,-2.8549,-2.8298,-2.875,-2.8499,-2.8109,-2.8109,-2.8059,-2.7996,-2.7934,-2.7165,-2.6512,-2.6904,0.0,-2.4825,-2.5322,0.0,-2.3904,-2.3904,0.0,0.0,-2.3215,-2.3914,-2.4438,-2.4515,-2.5168,-2.5846,-2.6434,-2.7091,-2.748,-2.748,-2.8143,-2.8637,-2.8712,-2.9819,-3.0507,-3.0507,-3.1137,-3.1511,-3.1511,-3.1511,-3.1511,-3.1511,-3.2153,-3.2841,-3.3499,-3.4189,-3.4846,-3.5504,-3.5504,-3.5504,-3.5504,-3.5504,-3.5504,-3.5504,-3.5504,-3.5504,-3.5602,-3.6507,-3.7407,-3.8373,-3.9928,-4.1303,-4.2523,-2.3091,-2.3091,0.0,0.0,-2.366,-2.3881,-2.4121,-2.5166,-2.6055,-2.6426,-2.707,-2.804,-2.9417,-2.8929,-2.8806,-2.9427,-2.9329,-2.8754,-2.7578,-2.666,0.0,-2.6254,-2.4489,-2.3897,-2.4798,-2.4638,-2.5389,-2.7168,-2.7637,-2.8542,-2.9792,-2.9792,-2.9616,-2.9302,-2.9641,-2.9603,-2.934,-2.9993,-3.008,-2.9817,-3.0143,-3.008,-2.9792,-2.9792,-2.9792,-2.9792,-2.9792,-2.9641,-2.9428,-2.9428,-2.9277,-2.9126,-2.9352,-2.9277,-2.9126,-2.9365,-2.9264,-2.9089,-2.9089,-2.8837,-2.8549,-2.8549,-2.7758,-2.7027,-2.7231,-2.6239,-2.5335,-2.5548,0.0,0.0,0.0,0.0,0.0,0.0,-2.3986,-2.4315,-2.4332,-2.5363,-2.5919,-2.5491,-2.6363,-2.718,-2.7555,-2.7854,-2.8034,-2.8034,-2.922,-2.9968,-2.9968,-3.0943,-3.1511,-3.1511,-3.1511,-3.1511,-3.1511,-3.2153,-3.2647,-3.2946,-3.3978,-3.4653,-3.4921,-3.5325,-3.5504,-3.5504,-3.5504,-3.5504,-3.5504,-3.5504,-3.5504,-3.5537,-3.5831,-3.643,-3.7345,-3.9275,-4.0693,-4.1822,-2.3247,0.0,0.0,-2.3538,-2.3627,-2.3799,-2.4336,-2.5488,-2.6565,-2.7431,-2.8099,-2.9289,-3.1316,-3.1177,-3.1146,-3.183,-3.18,-3.1021,-2.9392,-2.8382,-2.7744,-2.7524,-2.5731,-2.49,-2.5263,-2.4755,-2.5294,-2.6924,-2.7261,-2.8223,-2.9792,-2.9792,-2.9566,-2.9189,-2.9603,-2.9566,-2.9176,-3.0043,-3.0156,-2.9829,-3.0231,-3.0143,-2.9792,-2.9792,-2.9792,-2.9792,-2.9792,-2.9792,-2.9792,-2.9792,-2.9792,-2.9792,-2.9792,-2.9792,-2.9792,-2.9792,-2.9792,-2.9792,-2.9792,-2.9478,-2.9164,-2.9164,-2.8335,-2.7507,-2.7507,-2.664,-2.5871,-2.5871,-2.541,0.0,0.0,0.0,0.0,0.0,0.0,-2.4243,-2.4276,-2.5398,-2.594,-2.5206,-2.6152,-2.7076,-2.754,-2.76,-2.76,-2.76,-2.8678,-2.9412,-2.9592,-3.0642,-3.1316,-3.1496,-3.1511,-3.1511,-3.1511,-3.2153,-3.2602,-3.2796,-3.3933,-3.4608,-3.4771,-3.528,-3.5504,-3.5504,-3.5504,-3.5504,-3.5504,-3.5504,-3.5619,-3.5782,-3.5587,-3.5943,-3.6816,-3.8604,-4.0086,-4.137,-2.3682,-2.3428,0.0,-2.312,-2.312,-2.3393,-2.4287,-2.4463,-2.555,-2.8564,-2.8974,-3.0307,-3.3864,-3.3753,-3.3977,-3.5505,-3.402,-3.2857,-3.237,-3.0695,-2.9243,-2.8115,-2.7485,-2.6934,-2.6453,-2.7441,-2.7964,-2.8056,-2.9157,-2.9714,-2.9792,-2.9792,-2.9779,-2.9767,-2.9779,-2.9779,-2.9767,-2.9804,-2.9817,-2.9792,-2.9817,-2.9817,-2.9792,-2.9792,-2.9792,-2.9792,-2.9792,-2.9792,-2.9792,-2.9792,-2.9792,-2.9792,-2.9792,-2.9792,-2.9792,-2.9792,-2.9792,-2.9792,-2.9792,-2.9779,-2.9767,-2.9767,-2.8913,-2.8084,-2.8084,-2.7218,-2.6461,-2.6461,-2.5975,-2.5573,-2.5573,0.0,0.0,0.0,0.0,0.0,0.0,-2.4951,-2.5673,-2.6371,-2.7119,-2.757,-2.76,-2.76,-2.76,-2.76,-2.8233,-2.8906,-2.9577,-3.0193,-3.0823,-3.1481,-3.1511,-3.1511,-3.1511,-3.2153,-3.2841,-3.3469,-3.4189,-3.4831,-3.5474,-3.5489,-3.5504,-3.5504,-3.5504,-3.5504,-3.5504,-3.5504,-3.5926,-3.6492,-3.5782,-3.5943,-3.6693,-3.739,-3.9173,-4.1304,0.0,0.0,0.0,-2.3574,-2.333,-2.3481,-2.4668,-2.6267,-2.8227,-3.0778,-3.1561,-3.3365,-3.724,-3.7469,-3.7473,-3.7822,-3.6944,-3.5831,-3.4573,-3.2485,-3.1163,-3.0811,-2.918,-2.8077,-2.7557,-2.7573,-2.7748,-2.8096,-2.8478,-2.9251,-3.0331,-2.9967,-2.9993,-3.0319,-2.9955,-2.9792,-2.9817,-3.0181,-3.0131,-2.9792,-2.9792,-3.0018,-3.0294,-2.993,-2.9792,-2.9792,-2.9792,-2.9792,-2.9792,-2.9792,-2.9792,-2.9792,-2.9792,-2.9792,-2.9792,-2.9792,-2.9792,-2.9792,-2.9792,-2.9792,-2.9792,-2.9792,-2.9214,-2.8561,-2.8185,-2.7532,-2.6939,-2.6562,-2.6336,-2.6197,-2.6197,0.0,0.0,0.0,0.0,0.0,0.0,-2.461,-2.5864,-2.7086,-2.7061,-2.7121,-2.7555,-2.76,-2.76,-2.76,-2.8203,-2.8891,-2.9577,-3.0163,-3.0821,-3.1481,-3.1511,-3.1511,-3.1511,-3.2153,-3.2378,-3.2183,-3.3739,-3.4399,-3.4203,-3.51,-3.5504,-3.5504,-3.5504,-3.5504,-3.5504,-3.5504,-3.5636,-3.5831,-3.5587,-3.5636,-3.5984,-3.7074,-3.8716,-4.0664,-2.5829,-2.4906,-2.4014,-2.4014,-2.4118,-2.458,-2.5595,-2.8139,-3.0758,-3.3016,-3.4489,-3.6472,-3.9691,-4.002,-3.9869,-3.9508,-3.8755,-3.7525,-3.5621,-3.4339,-3.313,-3.196,-3.0891,-2.9913,-2.9003,-2.8644,-2.8656,-2.9007,-2.9189,-2.9843,-3.0884,-3.0344,-3.0281,-3.0595,-3.0043,-2.9792,-2.9817,-3.0168,-3.0118,-2.9792,-2.9792,-3.0005,-3.0281,-2.993,-2.9917,-3.0055,-2.9867,-2.9792,-2.9792,-2.9792,-2.9792,-2.9792,-2.9792,-2.9792,-2.9792,-2.9792,-2.9792,-2.9792,-2.9792,-2.9792,-2.9792,-2.9792,-2.9365,-2.88,-2.8473,-2.7971,-2.7419,-2.6901,-2.6788,-2.6725,-2.6524,0.0,0.0,0.0,0.0,0.0,0.0,-2.4993,-2.6242,-2.7458,-2.7225,-2.7136,-2.7555,-2.76,-2.76,-2.76,-2.8004,-2.8622,-2.9562,-2.9968,-3.0597,-3.1466,-3.1511,-3.1511,-3.1511,-3.2392,-3.2647,-3.2228,-3.4008,-3.4622,-3.4233,-3.5115,-3.5504,-3.5504,-3.5504,-3.5504,-3.5504,-3.5504,-3.5636,-3.5863,-3.5619,-3.5819,-3.6347,-3.7102,-3.8609,-4.0467,-2.6572,-2.5563,-2.4473,-2.4453,-2.5513,-2.6472,-2.6932,-2.9855,-3.2894,-3.5246,-3.7343,-3.9298,-4.123,-4.1372,-4.1134,-4.0614,-3.9597,-3.8065,-3.5809,-3.6169,-3.5035,-3.1738,-3.2604,-3.2365,-3.0696,-3.0683,-3.067,-3.062,-3.1135,-3.1399,-3.1424,-3.0871,-3.0633,-3.0633,-3.008,-2.9817,-2.9792,-2.9829,-2.9817,-2.9792,-2.9792,-2.9817,-2.9829,-2.9804,-3.0131,-3.0545,-2.9993,-2.9792,-2.9792,-2.9792,-2.9792,-2.9792,-2.9792,-2.9792,-2.9792,-2.9792,-2.9792,-2.9792,-2.9792,-2.9792,-2.9792,-2.9792,-2.9377,-2.8925,-2.89,-2.8524,-2.7984,-2.7406,-2.7281,-2.7153,-2.66,-2.6521,0.0,0.0,0.0,0.0,0.0,0.0,-2.6803,-2.7524,-2.76,-2.76,-2.76,-2.76,-2.76,-2.76,-2.76,-2.8184,-2.9532,-2.9606,-3.0178,-3.1466,-3.154,-3.1555,-3.1555,-3.2856,-3.3499,-3.3514,-3.4831,-3.5459,-3.5459,-3.5489,-3.5504,-3.5504,-3.5504,-3.5504,-3.5504,-3.5504,-3.5911,-3.6477,-3.5782,-3.6351,-3.7571,-3.7518,-3.885,-4.0656,-2.667,-2.602,-2.5293,-2.4961,-2.5936,-2.7027,-2.7894,-2.977,-3.2732,-3.7109,-3.7439,-3.8721,-4.2731,-4.2393,-4.17,-4.1118,-4.0811,-3.9936,-3.8128,-3.7751,-3.6659,-3.4517,-3.4361,-3.3319,-3.1235,-3.1599,-3.1411,-3.062,-3.1135,-3.1599,-3.1976,-3.106,-3.0821,-3.1173,-3.0633,-3.0181,-2.9817,-3.0231,-3.0168,-2.9792,-2.9792,-3.0043,-3.0357,-2.9942,-3.0131,-3.0545,-2.9993,-2.9792,-2.9792,-2.9792,-2.9792,-2.9792,-2.9792,-2.9792,-2.9792,-2.9792,-2.9792,-2.9792,-2.9792,-2.9792,-2.9792,-2.9792,-2.9679,-2.9453,-2.8988,-2.8787,-2.8448,-2.7482,-2.7281,-2.7153,-2.66,-2.7007,-2.7002,0.0,0.0,0.0,0.0,0.0,-2.7338,-2.7569,-2.76,-2.76,-2.76,-2.76,-2.76,-2.76,-2.76,-2.8184,-2.9532,-2.9606,-3.0178,-3.1466,-3.1974,-3.2228,-3.2228,-3.308,-3.3499,-3.3499,-3.4337,-3.4773,-3.4756,-3.5265,-3.5504,-3.5504,-3.5504,-3.5504,-3.5504,-3.5504,-3.5619,-3.575,-3.5554,-3.6295,-3.7582,-3.8723,-3.9383,-3.9905,-2.7097,-2.6655,-2.6162,-2.5723,-2.7662,-2.9462,-3.0171,-3.1675,-3.4311,-3.8776,-3.8885,-3.974,-4.275,-4.2938,-4.2459,-4.1397,-4.1288,-4.0526,-3.8617,-3.8429,-3.7538,-3.5583,-3.5207,-3.3991,-3.18,-3.2051,-3.18,-3.0947,-3.1486,-3.1901,-3.219,-3.1348,0.0,0.0,0.0,-3.0444,-3.0168,-3.0482,-3.0432,-3.0131,-2.9892,-2.998,0.0,-2.9905,-2.998,-3.0218,-2.9905,-2.9792,-2.9792,-2.9792,-2.9792,-2.9792,-2.9792,-2.9792,-2.9792,-2.9792,-2.9792,-2.9792,-2.9792,-2.9792,-2.9792,-2.9792,-2.9792,-2.9704,-2.9377,-2.9302,-2.9063,-2.8185,-2.7808,-2.7469,-2.6952,-2.705,-2.6935,0.0,0.0,0.0,0.0,-2.8196,-2.8316,-2.8072,-2.8049,-2.8049,-2.8049,-2.7764,-2.76,-2.76,-2.76,-2.8184,-2.9532,-2.9606,-3.0178,-3.1466,-3.2138,-3.2512,-3.2512,-3.3455,-3.3918,-3.3933,-3.4607,-3.4921,-3.4936,-3.5325,-3.5504,-3.5504,-3.5504,-3.5504,-3.5504,-3.5504,-3.5504,-3.5564,-3.6118,-3.6776,-3.7593,-3.9028,-3.9693,-3.9976,-2.7673,-2.7467,-2.7088,-2.6583,-2.986,-3.2772,-3.3158,-3.4597,-3.6876,-4.0265,-4.0816,-4.1215,-4.2123,-4.2893,-4.2787,-4.1313,-4.1175,-4.0375,-3.8354,-3.8693,-3.8052,-3.5909,-3.5683,-3.4568,-3.2378,-3.2252,-3.1938,-3.1386,-3.1938,-3.2252,-3.2315,-3.175,0.0,0.0,0.0,0.0,-3.0708,-3.0645,-3.057,-3.047,-2.998,-2.9792,-2.9792,-2.9792,-2.9792,-2.9792,-2.9792,-2.9792,-2.9792,-2.9792,-2.9792,-2.9792,-2.9792,-2.9792,-2.9792,-2.9792,-2.9792,-2.9792,-2.9792,-2.9792,-2.9792,-2.9792,-2.9792,-2.9792,-2.9792,-2.9792,-2.9667,-2.9189,-2.8671,-2.8138,-2.771,-2.7185,-2.7013,0.0,0.0,-2.8416,-2.8756,-2.9315,-2.946,-2.8801,-2.8727,0.0,-2.8607,-2.8004,-2.763,-2.772,-2.7645,-2.8184,-2.9532,-2.9606,-3.0178,-3.1466,-3.2228,-3.2647,-3.2647,-3.3948,-3.4638,-3.4653,-3.522,-3.5504,-3.5504,-3.5504,-3.5504,-3.5504,-3.5504,-3.5504,-3.5504,-3.5504,-3.5549,-3.5744,-3.6941,-3.7464,-3.7704,-3.905,-3.9903,-4.0412,-2.8024,-2.8379,-2.8296,-2.7107,-3.1313,-3.5112,-3.5874,-3.7166,-3.8914,-4.1584,-4.1035,-4.0908,-4.207,-4.1472,-4.091,-4.063,-4.0664,-4.03,-3.9459,-3.9496,-3.8956,-3.7638,-3.6697,-3.5236,-3.2968,-3.2453,-3.1938,-3.1386,-3.1938,-3.2453,-3.2918,-3.234,0.0,0.0,0.0,0.0,-3.1223,-3.0796,-3.0357,-2.993,-2.9829,-2.9792,-2.9792,-2.9792,-2.9792,-2.9792,-2.9792,-2.9792,-2.9792,-2.9792,-2.9792,-2.9792,-2.9792,-2.9792,-2.9792,-2.9792,-2.9792,-2.9792,-2.9792,-2.9792,-2.9792,-2.9792,-2.9792,-2.9792,-2.9792,-2.9792,-2.9846,-3.0092,-2.9637,-2.9245,-2.9482,-2.8997,-2.9388,-3.1928,-3.0971,-3.0157,-3.0864,-3.0602,-3.0103,-2.9517,-2.94,-2.9205,-2.8652,-2.8004,-2.7839,-2.8368,-2.7914,-2.8184,-2.9532,-2.9606,-3.0178,-3.1466,-3.2706,-3.332,-3.332,-3.4651,-3.5325,-3.5325,-3.5444,-3.5504,-3.5504,-3.5504,-3.5504,-3.5504,-3.5504,-3.5504,-3.5504,-3.5504,-3.5833,-3.6387,-3.712,-3.7749,-3.8377,-3.9738,-4.0307,-4.0472,-2.8575,-2.8643,-2.8868,-2.9587,-3.3555,-3.7298,-3.9063,-4.0984,-4.228,-4.2556,-4.0973,-4.0195,-4.1214,-4.1034,-4.0758,-4.0495,-4.0513,-4.0287,-3.9735,-3.9145,-3.8567,-3.8027,-3.6948,-3.5512,-3.3545,-3.3232,-3.2667,-3.1813,-3.2077,-3.2353,-3.2616,-3.234,-3.2051,-3.1788,0.0,-3.18,-3.1763,-3.0959,-3.0457,-3.0193,-2.9905,-2.9792,-2.9792,-2.9792,-2.9792,-2.9792,-2.9792,-2.9792,-2.9792,-2.9792,-2.9792,-2.9792,-2.9792,-2.9792,-2.9792,-2.9792,-2.9792,-2.9792,-2.9792,-2.9792,-2.9792,-2.9792,-2.9792,-2.9792,-2.9792,-3.0177,-3.058,-3.0777,-3.0726,-3.0609,-3.0547,-3.0252,-3.0656,-3.2514,-3.1965,-3.1573,-3.2422,-3.1973,-3.1315,-3.0672,-3.0283,-2.9939,-2.9624,-2.8996,-2.8633,-2.8607,-2.8607,-2.9067,-3.0013,-3.0058,-3.0672,-3.1974,-3.2991,-3.3664,-3.4039,-3.4996,-3.5504,-3.5504,-3.5504,-3.5504,-3.5504,-3.5504,-3.5504,-3.5504,-3.5504,-3.5504,-3.5534,-3.5878,-3.5998,-3.6103,-3.7404,-3.7898,-3.8033,-3.9394,-4.0322,-4.0995,-3.001,-3.0088,-3.0764,-3.2911,-3.6421,-3.9591,-4.1371,-4.3715,-4.4832,-4.3501,-4.152,-4.0349,-4.0671,-4.1025,-4.1012,-4.04,-4.0337,-4.0162,-3.9722,-3.8856,-3.8253,-3.8015,-3.7061,-3.5705,-3.3935,-3.3784,-3.3232,-3.2215,-3.2215,-3.2277,-3.239,-3.239,-3.2102,-3.1562,-3.1562,-3.1687,-3.1825,-3.1085,-3.0645,-3.0407,-3.0093,-2.9892,-2.9792,-2.9792,-2.9792,-2.9792,-2.9792,-2.9792,-2.9792,-2.9792,-2.9792,-2.9792,-2.9792,-2.9792,-2.9792,-2.9792,-2.9792,-2.9792,-2.9792,-2.9792,-2.9792,-2.9792,-2.9792,-2.9856,-3.0037,-3.0658,-3.1315,-3.1706,-3.2089,-3.2238,-3.1825,-3.1627,-3.1823,-3.2742,-3.2664,-3.2769,-3.3617,-3.314,-3.2452,-3.1795,-3.127,-3.0821,-3.0537,-3.0193,-2.9729,-2.9056,-2.937,-2.9849,-3.0477,-3.0507,-3.112,-3.2467,-3.3155,-3.3814,-3.4503,-3.516,-3.5504,-3.5504,-3.5504,-3.5504,-3.5504,-3.5504,-3.5504,-3.5504,-3.5504,-3.5504,-3.5549,-3.6207,-3.6252,-3.6073,-3.7749,-3.8242,-3.8182,-3.9394,-4.0487,-4.1489,-3.3261,-3.4849,-3.6179,-3.6736,-3.9961,-4.2213,-4.1239,-4.3136,-4.4656,-4.4493,-4.3826,-4.2806,-4.1376,-4.125,-4.0862,-3.986,-3.9772,-3.9747,-3.9697,-3.9597,-3.9082,-3.8052,-3.7425,-3.6094,-3.3947,-3.3407,-3.2842,-3.2215,-3.2215,-3.2478,-3.3006,-3.3006,-3.2692,-3.2139,-3.2139,-3.1625,-3.0796,-3.116,-3.0758,-2.9905,-3.0357,-3.0231,-2.9792,-2.9792,-2.9792,-2.9792,-2.9792,-2.9792,-2.9792,-2.9792,-2.9792,-2.9792,-2.9792,-2.9792,-2.9792,-2.9792,-2.9792,-2.9792,-2.9792,-2.9792,-2.9792,-2.9792,-2.9792,-3.0037,-3.0871,-3.1143,-3.1669,-3.338,-3.4017,-3.4237,-3.4178,-3.3687,-3.3687,-3.4971,-3.4152,-3.3632,-3.4307,-3.3814,-3.3155,-3.2497,-3.2333,-3.1854,-3.0627,-3.0987,-3.1032,-3.0372,-2.9864,-2.9849,-3.0477,-3.0507,-3.112,-3.2467,-3.3155,-3.3814,-3.4503,-3.516,-3.5504,-3.5504,-3.5504,-3.5504,-3.5504,-3.5504,-3.5504,-3.5504,-3.5504,-3.5504,-3.5549,-3.6207,-3.6791,-3.73,-3.8078,-3.9095,-4.0217,-4.0935,-4.1265,-4.1549,-3.6595,-3.6905,-3.7731,-3.9694,-4.0992,-4.1931,-4.2232,-4.3303,-4.3647,-4.2342,-4.2549,-4.2434,-4.1388,-4.0752,-4.0174,-3.9735,-3.9697,-3.9697,-3.9697,-3.9383,-3.8843,-3.804,-3.7475,-3.6307,-3.4437,-3.4173,-3.3621,-3.2729,-3.3056,-3.3345,-3.3571,-3.3571,-3.3269,-3.2717,-3.2365,-3.1976,-3.1562,-3.1449,-3.1148,-3.0771,-3.0984,-3.0758,-3.0281,-3.0281,-3.008,-2.9792,-2.9792,-2.9792,-2.9792,-2.9792,-2.9792,-2.9792,-2.9792,-2.9792,-2.9792,-2.9792,-2.9792,-2.9792,-2.9792,-2.9792,-2.9792,-2.9792,-2.9792,-2.9895,-3.0279,-3.123,-3.2249,-3.2996,-3.4191,-3.51,-3.51,-3.4876,-3.4876,-3.5415,-3.5055,-3.4801,-3.5055,-3.4502,-3.3844,-3.3185,-3.2751,-3.2138,-3.1182,-3.1346,-3.1391,-3.1122,-3.0896,-3.0866,-3.1077,-3.1466,-3.2138,-3.308,-3.3739,-3.4412,-3.5085,-3.537,-3.5504,-3.5504,-3.5504,-3.5504,-3.5504,-3.5504,-3.5504,-3.5504,-3.5504,-3.5729,-3.6148,-3.6776,-3.718,-3.7554,-3.902,-3.9679,-3.9933,-4.0995,-4.1662,-4.2081,-3.9199,-3.8782,-3.9268,-4.19,-4.1802,-4.1671,-4.2626,-4.3232,-4.293,-4.1262,-4.1558,-4.1706,-4.1153,-4.04,-3.9873,-3.971,-3.9697,-3.9697,-3.9697,-3.9182,-3.8617,-3.804,-3.7475,-3.6483,-3.4956,-3.4756,-3.4261,-3.3319,-3.3545,-3.3658,-3.3658,-3.3658,-3.3357,-3.2805,-3.239,-3.2127,-3.1951,-3.1725,-3.1537,-3.1399,-3.1562,-3.1223,-3.0633,-3.0783,-3.0407,-2.9829,-3.0143,-3.0068,-2.9817,-2.998,-2.993,-2.9792,-2.9792,-2.9792,-2.9792,-2.9792,-2.9792,-2.9792,-2.9792,-2.9792,-2.9792,-2.9792,-2.9998,-3.0279,-3.057,-3.1865,-3.3101,-3.3394,-3.4558,-3.5504,-3.5504,-3.5504,-3.5504,-3.5504,-3.5504,-3.5504,-3.5504,-3.5085,-3.4532,-3.3858,-3.338,-3.2766,-3.1869,-3.1795,-3.1705,-3.1511,-3.169,-3.1795,-3.1795,-3.2228,-3.2901,-3.3754,-3.4264,-3.4801,-3.5489,-3.5504,-3.5504,-3.5504,-3.5504,-3.5504,-3.5504,-3.5504,-3.5609,-3.5789,-3.5789,-3.6163,-3.6806,-3.7434,-3.7823,-3.8153,-3.9768,-4.0352,-4.0397,-4.1324,-4.2126,-4.2641,-4.091,-4.1089,-4.1709,-4.336,-4.2778,-4.209,-4.2113,-4.261,-4.2785,-4.2233,-4.1681,-4.1087,-4.0588,-4.0513,-4.0287,-3.9747,-3.9697,-3.9697,-3.9697,-3.9182,-3.8617,-3.804,-3.7475,-3.6659,-3.552,-3.4956,-3.4449,-3.3884,-3.3357,-3.3124,-3.3124,-3.3124,-3.278,-3.2227,-3.2215,-3.1913,-3.1436,-3.1976,-3.1888,-3.1436,-3.1989,-3.1562,-3.067,-3.1185,-3.0721,-2.993,-3.0997,-3.0696,-2.988,-3.0419,-3.0244,-2.9792,-2.9792,-2.9792,-2.9792,-2.9792,-2.9792,-2.9792,-2.9792,-2.9792,-2.9792,-2.9792,-3.0482,-3.1426,-3.2357,-3.331,-3.4245,-3.5246,-3.5472,-3.5504,-3.5504,-3.5504,-3.5504,-3.5504,-3.5504,-3.5504,-3.5504,-3.5489,-3.5235,-3.4578,-3.4488,-3.3933,-3.2632,-3.2497,-3.2198,-3.1555,-3.2108,-3.2497,-3.2497,-3.2512,-3.311,-3.4459,-3.4503,-3.4801,-3.5489,-3.5504,-3.5504,-3.5504,-3.5504,-3.5504,-3.5504,-3.5504,-3.5863,-3.6477,-3.6477,-3.6821,-3.7449,-3.8108,-3.8781,-3.9454,-4.0142,-4.119,-4.2366,-4.2381,-4.2761,-4.329,-4.1451,-4.2448,-4.3666,-4.4242,-4.3749,-4.2907,-4.1804,-4.2422,-4.2426,-4.076,-4.099,-4.1075,-4.0576,-4.0174,-3.9885,-3.971,-3.9697,-3.9697,-3.9697,-3.9182,-3.8617,-3.804,-3.7475,-3.6671,-3.552,-3.4956,-3.4449,-3.3897,-3.3721,-3.3633,-3.3633,-3.3633,-3.3332,-3.2805,-3.2805,-3.2704,-3.2554,-3.2729,-3.2704,-3.2554,-3.2729,-3.2365,-3.1725,-3.1888,-3.1512,-3.0934,-3.126,-3.0947,-3.0382,-3.0557,-3.0244,-2.9792,-2.9792,-2.9792,-2.9792,-2.9792,-2.9792,-2.9934,-3.0595,-3.0758,-3.0908,-3.1549,-3.1462,-3.1462,-3.2393,-3.3345,-3.4279,-3.5279,-3.5504,-3.5504,-3.5504,-3.5504,-3.5504,-3.5504,-3.5504,-3.5504,-3.5504,-3.5504,-3.525,-3.4593,-3.4503,-3.4159,-3.326,-3.3185,-3.3095,-3.2886,-3.3066,-3.2991,-3.2512,-3.3365,-3.4038,-3.4503,-3.4936,-3.528,-3.5504,-3.5504,-3.5729,-3.6178,-3.5714,-3.5504,-3.5519,-3.5968,-3.6297,-3.6507,-3.6926,-3.7749,-3.8751,-3.8497,-3.932,-4.0771,-4.0995,-4.1632,-4.2455,-4.2865,-4.3125,-4.329,-4.2406,-4.302,-4.3647,-4.3647,-4.3192,-4.2452,-4.1482,-4.2139,-4.2114,-4.058,-4.0735,-4.0827,-4.0275,-3.9898,-3.9697,-3.9697,-3.9697,-3.9697,-3.9697,-3.8981,-3.8379,-3.8027,-3.7274,-3.6558,-3.5868,-3.5115,-3.455,-3.4211,-3.3796,-3.3583,-3.3583,-3.3583,-3.3407,-3.3124,-3.3124,-3.3124,-3.3124,-3.3124,-3.3124,-3.3124,-3.3124,-3.2729,-3.224,-3.2453,-3.2051,-3.1449,-3.1863,-3.1549,-3.0909,-3.0909,-3.0545,-3.0068,-2.9854,-2.9792,-2.9792,-2.9792,-2.9792,-2.9934,-3.052,-3.0658,-3.0908,-3.1829,-3.1646,-3.1536,-3.282,-3.3856,-3.4725,-3.5359,-3.5504,-3.5504,-3.5504,-3.5504,-3.5504,-3.5504,-3.5504,-3.5504,-3.5504,-3.5504,-3.534,-3.4921,-3.4861,-3.4607,-3.3918,-3.3858,-3.3769,-3.3514,-3.3724,-3.3679,-3.3275,-3.4038,-3.4623,-3.4861,-3.5519,-3.5878,-3.5878,-3.6103,-3.6432,-3.6821,-3.6417,-3.6222,-3.6237,-3.6641,-3.7105,-3.7599,-3.7719,-3.8676,-4.0113,-3.9424,-4.0172,-4.1796,-4.1796,-4.2186,-4.2776,-4.314,-4.329,-4.329,-4.3258,-4.2818,-4.2186,-4.2186,-4.1697,-4.1305,-4.1305,-4.1845,-4.202,-4.1467,-4.0915,-4.0362,-3.981,-3.9722,-3.9697,-3.9697,-3.9697,-3.9697,-3.9697,-3.8668,-3.8052,-3.8002,-3.6985,-3.6455,-3.6405,-3.5328,-3.4738,-3.4618,-3.3596,-3.3124,-3.3124,-3.3124,-3.3124,-3.3124,-3.3124,-3.3124,-3.3124,-3.3124,-3.3124,-3.3124,-3.3124,-3.2754,-3.2328,-3.2867,-3.2428,-3.165,-3.2747,-3.2378,-3.1449,-3.1449,-3.1072,-3.052,-3.0018,-2.9829,-2.9792,-2.9792,-2.9792,-2.983,-2.9895,-2.9895,-3.0101,-3.1082,-3.1352,-3.1815,-3.3518,-3.4725,-3.5504,-3.5504,-3.5504,-3.5504,-3.5504,-3.5504,-3.5504,-3.5504,-3.5504,-3.5504,-3.5504,-3.5504,-3.5504,-3.5504,-3.5504,-3.525,-3.4638,-3.4578,-3.4339,-3.3739,-3.4218,-3.4593,-3.4653,-3.4653,-3.4906,-3.5549,-3.6207,-3.6552,-3.6552,-3.712,-3.7404,-3.7404,-3.7494,-3.7524,-3.7479,-3.7584,-3.8302,-3.9454,-3.8856,-3.9664,-4.1324,-4.0726,-4.122,-4.2396,-4.2396,-4.2761,-4.329,-4.329,-4.329,-4.3305,-4.1256,-4.2136,-4.2772,-4.2772,-4.266,-4.2561,-4.2561,-4.2712,-4.2585,-4.2032,-4.1492,-4.0887,-4.0388,-3.9948,-3.9697,-3.9697,-3.9697,-3.9697,-3.9697,-3.9044,-3.8467,-3.8027,-3.7349,-3.6832,-3.6417,-3.5692,-3.4893,-3.4098,-3.3407,-3.3124,-3.3124,-3.3124,-3.3124,-3.3124,-3.3124,-3.3124,-3.3124,-3.3124,-3.3124,-3.3124,-3.3124,-3.2993,-3.288,-3.3074,-3.2948,-3.2717,-3.298,-3.2616,-3.2014,-3.2014,-3.1386,-3.0595,-3.0457,-3.0131,-2.9792,-2.9792,-2.9792,-2.9972,-3.0658,-3.0871,-3.1082,-3.2033,-3.282,-3.3276,-3.2996,-3.4259,-3.5504,-3.5504,-3.5504,-3.5504,-3.5504,-3.5504,-3.5504,-3.5504,-3.5504,-3.5504,-3.5504,-3.5504,-3.5504,-3.5504,-3.5504,-3.5444,-3.528,-3.5265,-3.54,-3.5759,-3.5459,-3.5489,-3.5983,-3.6013,-3.6088,-3.6252,-3.6866,-3.7195,-3.7195,-3.7345,-3.7404,-3.7419,-3.8452,-3.8676,-3.8197,-3.9215,-3.9873,-4.0187,-4.0531,-4.0973,-4.1407,-4.1205,-4.1662,-4.2396,-4.2396,-4.2761,-4.329,-4.329,-4.329,-4.3364,-4.1594,-4.2375,-4.2974,-4.2974,-4.2974,-4.2974,-4.2974,-4.276,-4.2451,-4.1856,-4.1304,-4.0752,-4.0199,-3.9873,-3.9697,-3.9697,-3.9697,-3.9697,-3.9697,-3.8931,-3.8329,-3.8015,-3.7236,-3.6719,-3.6417,-3.583,-3.4956,-3.3897,-3.3608,-3.3319,-3.3124,-3.3124,-3.3124,-3.3124,-3.3124,-3.3124,-3.3124,-3.3124,-3.3124,-3.3124,-3.3124,-3.3124,-3.3124,-3.3124,-3.3124,-3.3124,-3.3124,-3.288,-3.2566,-3.2303,-3.1825,-3.126,-3.0771,-3.0407,-3.0118,-2.9867,-2.9792,-2.9895,-3.0419,-3.0871,-3.1315,-3.1815,-3.2996,-3.3739,-3.282,-3.409,-3.5504,-3.5504,-3.5504,-3.5504,-3.5504,-3.5504,-3.5504,-3.5504,-3.5504,-3.5504,-3.5504,-3.5504,-3.5504,-3.5504,-3.5774,-3.5953,-3.5953,-3.6207,-3.6402,-3.6477,-3.6417,-3.6402,-3.6492,-3.703,-3.709,-3.6507,-3.7375,-3.7853,-3.7853,-3.8167,-3.8482,-3.8781,-3.9514,-3.9828,-3.9783,-4.0516,-4.101,-4.1332,-4.1392,-4.1728,-4.2252,-4.1953,-4.2207,-4.2806,-4.2806,-4.3015,-4.329,-4.329,-4.3484,-4.3798,-4.2769,-4.2974,-4.2974,-4.2974,-4.2974,-4.2974,-4.2974,-4.264,-4.2082,-4.153,-4.0978,-4.0438,-3.9873,-3.9747,-3.9697,-3.9697,-3.9697,-3.9659,-3.9572,-3.8668,-3.8065,-3.7889,-3.6985,-3.6493,-3.6405,-3.583,-3.4994,-3.4022,-3.3935,-3.3621,-3.3124,-3.3124,-3.3124,-3.3124,-3.3124,-3.3124,-3.3124,-3.3124,-3.3124,-3.3124,-3.3124,-3.3124,-3.3124,-3.3124,-3.3124,-3.3124,-3.3124,-3.3124,-3.2993,-3.2403,-3.2215,-3.2039,-3.1047,-3.0733,-3.0633,-3.0168,-3.003,-2.9993,-2.9829,-3.0495,-3.123,-3.1286,-3.2662,-3.3774,-3.2996,-3.4192,-3.5534,-3.5624,-3.5579,-3.5534,-3.5639,-3.5564,-3.5504,-3.5504,-3.5504,-3.5504,-3.5504,-3.5504,-3.5549,-3.5639,-3.6148,-3.6522,-3.6611,-3.7195,-3.7345,-3.6821,-3.7255,-3.7375,-3.6956,-3.7958,-3.8093,-3.7105,-3.8033,-3.8542,-3.8542,-3.932,-3.9948,-4.0397,-4.0606,-4.0995,-4.1572,-4.1639,-4.1983,-4.2515,-4.1908,-4.2252,-4.315,-4.2701,-4.2776,-4.3155,-4.3245,-4.3349,-4.3439,-4.3439,-4.3898,-4.4481,-4.2694,-4.2974,-4.2974,-4.2974,-4.2974,-4.2974,-4.2974,-4.2898,-4.2647,-4.215,-4.1555,-4.0949,-4.045,-3.9973,-3.9697,-3.9697,-3.9697,-3.9496,-3.9032,-3.8881,-3.8316,-3.7349,-3.7149,-3.6835,-3.6417,-3.583,-3.5194,-3.46,-3.4123,-3.3621,-3.3124,-3.3124,-3.3124,-3.3124,-3.3124,-3.3124,-3.3124,-3.3124,-3.3124,-3.3124,-3.3124,-3.3124,-3.3124,-3.3124,-3.3124,-3.3124,-3.3124,-3.3124,-3.2993,-3.2403,-3.2215,-3.2102,-3.1474,-3.1273,-3.1248,-3.1173,-3.1148,-3.0947,-3.0043,-3.0495,-3.1299,-3.1736,-3.2944,-3.3959,-3.3808,-3.4658,-3.5669,-3.6222,-3.5893,-3.5669,-3.6237,-3.5878,-3.5504,-3.5504,-3.5504,-3.5504,-3.5504,-3.5504,-3.5714,-3.6267,-3.6432,-3.6686,-3.721,-3.7853,-3.8197,-3.8108,-3.8182,-3.8452,-3.8931,-3.9155,-3.9424,-3.9783,-3.9454,-3.926,-3.926,-4.0472,-4.0846,-4.0412,-4.1572,-4.2156,-4.2261,-4.2776,-4.305,-4.314,-4.3035,-4.2836,-4.259,-4.3,-4.2925,-4.2605,-4.312,-4.3633,-4.4127,-4.4127,-4.4586,-4.5229,-4.2731,-4.2974,-4.2974,-4.2974,-4.2974,-4.2974,-4.2974,-4.2974,-4.2841,-4.2288,-4.1681,-4.1075,-4.0576,-4.0023,-3.9697,-3.9697,-3.9697,-3.932,-3.8467,-3.8404,-3.804,-3.7224,-3.6945,-3.6669,-3.6417,-3.6119,-3.5567,-3.468,-3.4462,-3.3909,-3.3124,-3.3124,-3.3124,-3.3124,-3.3124,-3.3124,-3.3124,-3.3124,-3.3124,-3.3124,-3.3124,-3.3124,-3.3124,-3.3124,-3.3124,-3.3124,-3.3124,-3.3124,-3.3074,-3.2767,-3.2679,-3.2579,-3.2014,-3.1838,-3.1775,-3.1474,-3.1386,-3.1395,-3.142,-3.1344,-3.1617,-3.2957,-3.3781,-3.437,-3.4965,-3.582,-3.6611,-3.6926,-3.6746,-3.6626,-3.6926,-3.6462,-3.6148,-3.6477,-3.5953,-3.5624,-3.5983,-3.6028,-3.6267,-3.6911,-3.73,-3.7913,-3.8916,-3.929,-3.9469,-3.9469,-3.9798,-3.9978,-3.9948,-4.0277,-4.0771,-4.1467,-4.0816,-4.0472,-4.0472,-4.107,-4.1452,-4.1459,-4.2111,-4.259,-4.2895,-4.3155,-4.329,-4.329,-4.329,-4.3125,-4.291,-4.317,-4.3125,-4.2955,-4.3614,-4.4047,-4.4362,-4.4706,-4.5259,-4.5888,-4.2756,-4.2974,-4.2974,-4.2974,-4.2974,-4.2974,-4.2974,-4.2974,-4.2823,-4.2451,-4.1756,-4.1125,-4.0752,-4.0099,-3.9697,-3.9697,-3.9697,-3.927,-3.8266,-3.809,-3.7701,-3.7023,-3.6631,-3.6405,-3.6405,-3.6405,-3.5881,-3.4868,-3.4743,-3.4223,-3.3269,-3.3174,-3.3124,-3.3124,-3.3124,-3.3124,-3.3124,-3.3124,-3.3124,-3.3124,-3.3124,-3.3124,-3.3124,-3.3124,-3.3124,-3.3124,-3.3124,-3.3124,-3.3056,-3.2918,-3.2968,-3.2968,-3.239,-3.2303,-3.2328,-3.1913,-3.1775,-3.1902,-3.2495,-3.2206,-3.2182,-3.4126,-3.4663,-3.5048,-3.6092,-3.6876,-3.7449,-3.7599,-3.7524,-3.7464,-3.7599,-3.712,-3.6806,-3.715,-3.6492,-3.6073,-3.6432,-3.6731,-3.7165,-3.7793,-3.8452,-3.932,-4.0516,-4.0771,-4.0786,-4.0636,-4.1235,-4.1384,-4.0876,-4.1324,-4.1946,-4.2605,-4.2102,-4.1683,-4.1422,-4.1683,-4.2013,-4.2396,-4.2545,-4.2851,-4.329,-4.329,-4.329,-4.3305,-4.3454,-4.3529,-4.3529,-4.3678,-4.3738,-4.3838,-4.4347,-4.4646,-4.484,-4.5349,-4.5963,-4.6503,-4.2681,-4.2974,-4.2974,-4.2974,-4.2974,-4.2974,-4.2974,-4.2974,-4.2961,-4.2924,-4.1995,-4.1263,-4.1225,-4.0325,-3.9697,-3.9697,-3.9697,-3.9433,-3.8894,-3.8304,-3.7525,-3.6518,-3.643,-3.6405,-3.6405,-3.6405,-3.6069,-3.5445,-3.4919,-3.4424,-3.3822,-3.3319,-3.3124,-3.3124,-3.3124,-3.3124,-3.3124,-3.3124,-3.3124,-3.3124,-3.3124,-3.3124,-3.3124,-3.3124,-3.3124,-3.3124,-3.3124,-3.3124,-3.2993,-3.2453,-3.2641,-3.2968,-3.239,-3.2579,-3.3048,-3.3011,-3.2955,-3.2872,-3.2374,-3.2474,-3.3106,-3.4826,-3.5513,-3.605,-3.708,-3.7336,-3.7584,-3.8197,-3.7838,-3.7599,-3.8197,-3.7778,-3.7165,-3.6641,-3.6956,-3.709,-3.6552,-3.7509,-3.8497,-3.9185,-3.9843,-4.0531,-4.1272,-4.1901,-4.2006,-4.1354,-4.1961,-4.2306,-4.2261,-4.2306,-4.2596,-4.32,-4.3185,-4.2611,-4.1384,-4.2581,-4.291,-4.241,-4.297,-4.3245,-4.329,-4.329,-4.329,-4.3319,-4.3947,-4.4242,-4.4287,-4.49,-4.5155,-4.5155,-4.5214,-4.5618,-4.6145,-4.619,-4.6666,-4.7234,-4.2669,-4.2974,-4.2974,-4.2974,-4.2974,-4.2974,-4.2974,-4.2974,-4.2974,-4.2974,-4.202,-4.1288,-4.1288,-4.035,-3.9697,-3.9697,-3.9697,-3.9459,-3.8957,-3.8668,-3.7889,-3.6468,-3.6405,-3.6405,-3.6405,-3.6405,-3.6094,-3.5495,-3.5295,-3.4731,-3.3897,-3.3684,-3.3407,-3.3124,-3.3124,-3.3124,-3.3124,-3.3124,-3.3124,-3.3124,-3.3124,-3.3124,-3.3124,-3.3124,-3.3124,-3.3124,-3.3124,-3.3124,-3.3043,-3.283,-3.2893,-3.3043,-3.2817,-3.3377,-3.4233,-3.4843,-3.4095,-3.3189,-3.364,-3.3379,-3.3457,-3.5392,-3.5972,-3.6542,-3.8261,-3.8975,-3.9334,-3.9589,-3.9768,-3.9948,-4.0202,-3.9709,-3.932,-3.9499,-3.9035,-3.8721,-3.8886,-3.9334,-3.9888,-4.0561,-4.0861,-4.1429,-4.2491,-4.2447,-4.247,-4.2581,-4.2821,-4.297,-4.297,-4.297,-4.3075,-4.329,-4.329,-4.305,-4.2596,-4.305,-4.317,-4.297,-4.317,-4.329,-4.3305,-4.3708,-4.3902,-4.3947,-4.4631,-4.493,-4.4945,-4.5185,-4.5289,-4.5334,-4.5768,-4.6097,-4.6324,-4.6785,-4.71,-4.7309,-4.2644,-4.2974,-4.2974,-4.2974,-4.2974,-4.2974,-4.2974,-4.2974,-4.2911,-4.2791,-4.207,-4.1467,-4.1062,-4.04,-3.9885,-3.971,-3.9697,-3.9534,-3.9208,-3.8793,-3.8078,-3.6923,-3.6757,-3.6669,-3.6669,-3.6505,-3.6182,-3.5805,-3.5583,-3.5107,-3.4412,-3.4236,-3.3872,-3.3345,-3.352,-3.3395,-3.3124,-3.3257,-3.3232,-3.3124,-3.3124,-3.3124,-3.3124,-3.3124,-3.3124,-3.3124,-3.3124,-3.3124,-3.3124,-3.3124,-3.3124,-3.3106,-3.3282,-3.4212,-3.5484,-3.651,-3.5843,-3.4839,-3.5608,-3.5246,-3.4997,-3.6196,-3.6918,-3.7795,-3.9624,-4.0382,-4.0711,-4.0711,-4.107,-4.1422,-4.1422,-4.101,-4.0786,-4.104,-4.0487,-4.0127,-4.0367,-4.0756,-4.119,-4.1677,-4.1863,-4.2342,-4.32,-4.294,-4.2851,-4.326,-4.329,-4.329,-4.329,-4.329,-4.329,-4.329,-4.329,-4.329,-4.329,-4.329,-4.329,-4.329,-4.329,-4.3409,-4.3618,-4.4107,-4.4421,-4.4661,-4.5319,-4.5618,-4.5633,-4.5843,-4.5918,-4.5963,-4.6441,-4.6636,-4.6696,-4.713,-4.7309,-4.7309,-4.2569,-4.2974,-4.2974,-4.2974,-4.2974,-4.2974,-4.2974,-4.2974,-4.2841,-4.2288,-4.2213,-4.1785,-4.0639,-4.0513,-4.0287,-3.9747,-3.9697,-3.9697,-3.9697,-3.8642,-3.8015,-3.8015,-3.7475,-3.7174,-3.7174,-3.6681,-3.6405,-3.6405,-3.5818,-3.5495,-3.5495,-3.4944,-3.4437,-3.3935,-3.4474,-3.411,-3.3174,-3.3658,-3.3583,-3.3124,-3.3124,-3.3124,-3.3124,-3.3081,-3.3124,-3.3124,-3.3081,-3.3124,-3.3124,-3.3124,-3.3124,-3.3224,-3.3721,-3.5092,-3.6711,-3.7882,-3.8214,-3.8173,-3.8214,-3.8214,-3.8034,-3.7398,-3.8512,-4.0085,-4.1164,-4.1422,-4.1384,-4.1384,-4.1384,-4.1384,-4.1384,-4.1384,-4.119,-4.0531,-4.0965,-4.1175,-4.0516,-4.1587,-4.241,-4.241,-4.294,-4.329,-4.329,-4.329,-4.329,-4.329,-4.329,-4.3305,-4.3305,-4.3305,-4.3305,-4.3305,-4.3305,-4.3305,-4.3305,-4.3305,-4.329,-4.329,-4.3305,-4.3648,-4.4317,-4.4332,-4.4691,-4.5349,-4.6037,-4.6294,-4.6339,-4.704,-4.7309,-4.7309,-4.7309,-4.7309,-4.7309,-4.7309,-4.7309,-4.7309,-4.288,-4.2974,-4.2974,-4.2974,-4.2974,-4.2974,-4.2974,-4.2974,-4.2924,-4.2748,-4.2057,-4.1455,-4.1075,-4.04,-3.9873,-3.971,-3.9697,-3.9697,-3.9697,-3.9383,-3.9019,-3.863,-3.7373,-3.6656,-3.6656,-3.6493,-3.6405,-3.6405,-3.6194,-3.5918,-3.5495,-3.5332,-3.4956,-3.4462,-3.4248,-3.4173,-3.4186,-3.3583,-3.3445,-3.3621,-3.3232,-3.3124,-3.3162,-3.3508,-3.342,-3.3174,-3.352,-3.3407,-3.3124,-3.3124,-3.3124,-3.3341,-3.4624,-3.5427,-3.6278,-3.8539,-3.8131,-3.718,-3.7882,-3.8408,-3.8783,-3.8958,-3.9412,-4.0085,-4.1164,-4.1767,-4.2111,-4.2111,-4.2432,-4.2746,-4.2746,-4.2746,-4.2686,-4.2453,-4.2587,-4.2647,-4.2453,-4.2791,-4.3045,-4.3045,-4.317,-4.329,-4.329,-4.329,-4.329,-4.329,-4.3723,-4.4018,-4.4018,-4.4466,-4.4706,-4.4706,-4.4272,-4.4242,-4.4706,-4.3753,-4.329,-4.3305,-4.3768,-4.4122,-4.4347,-4.5248,-4.5828,-4.6052,-4.6726,-4.701,-4.7025,-4.7219,-4.7309,-4.7309,-4.7309,-4.7309,-4.7309,-4.7309,-4.7309,-4.7309,-4.2936,-4.2974,-4.2974,-4.2974,-4.2974,-4.2974,-4.2974,-4.2974,-4.2898,-4.274,-4.207,-4.1492,-4.1012,-4.0413,-3.9936,-3.971,-3.9697,-3.9697,-3.9697,-3.9484,-3.922,-3.8881,-3.7524,-3.6732,-3.6732,-3.6518,-3.6405,-3.6405,-3.6405,-3.6194,-3.5868,-3.5868,-3.5579,-3.4994,-3.4926,-3.47,-3.4361,-3.3922,-3.3671,-3.3545,-3.3206,-3.3206,-3.3432,-3.3771,-3.3822,-3.3771,-3.411,-3.3872,-3.3407,-3.3407,-3.3545,-3.4103,-3.6236,-3.677,-3.7182,-4.0158,-3.9534,-3.8184,-3.97,-4.0051,-4.0194,-4.0982,-4.1174,-4.1347,-4.1978,-4.2462,-4.2746,-4.2746,-4.306,-4.329,-4.329,-4.3499,-4.3604,-4.3334,-4.3514,-4.3678,-4.3678,-4.3678,-4.3678,-4.3678,-4.3943,-4.3858,-4.3349,-4.3529,-4.3678,-4.3678,-4.4332,-4.4706,-4.4706,-4.508,-4.5289,-4.5289,-4.4915,-4.4885,-4.5289,-4.4511,-4.4107,-4.4122,-4.4511,-4.484,-4.514,-4.5906,-4.6429,-4.6741,-4.713,-4.7309,-4.7309,-4.7309,-4.7309,-4.7309,-4.7309,-4.7309,-4.7309,-4.7309,-4.7309,-4.7309,-4.2873,-4.2974,-4.2974,-4.2974,-4.2974,-4.2974,-4.2974,-4.2974,-4.2798,-4.2351,-4.22,-4.1706,-4.0701,-4.0501,-4.0237,-3.9735,-3.9697,-3.9697,-3.9697,-3.922,-3.8969,-3.8919,-3.7889,-3.7287,-3.7186,-3.6681,-3.6405,-3.6405,-3.6405,-3.6405,-3.6405,-3.6405,-3.6094,-3.5596,-3.6094,-3.5479,-3.4148,-3.45,-3.4123,-3.3294,-3.3194,-3.3483,-3.3985,-3.4022,-3.4324,-3.4726,-3.4731,-3.4449,-3.3972,-3.3972,-3.4311,-3.5149,-3.7825,-3.8465,-3.8822,-4.2056,-4.1616,-4.049,-4.2603,-4.233,-4.1726,-4.286,-4.32,-4.3245,-4.3379,-4.3379,-4.3409,-4.3454,-4.3469,-4.3469,-4.3469,-4.4003,-4.4212,-4.3559,-4.4003,-4.4407,-4.4407,-4.4407,-4.4407,-4.4407,-4.493,-4.4825,-4.3589,-4.4047,-4.4407,-4.4407,-4.5005,-4.5394,-4.5394,-4.5454,-4.5469,-4.5469,-4.5424,-4.5409,-4.5469,-4.5409,-4.5349,-4.5289,-4.5349,-4.5723,-4.6279,-4.6339,-4.6741,-4.7309,-4.7309,-4.7309,-4.7309,-4.7309,-4.7309,-4.7309,-4.7309,-4.7309,-4.7309,-4.7309,-4.7309,-4.7309,-4.2949,-4.2974,-4.2974,-4.2974,-4.2974,-4.2974,-4.2974,-4.2974,-4.2936,-4.2811,-4.2045,-4.143,-4.1125,-4.0388,-3.9823,-3.9697,-3.9697,-3.9697,-3.9697,-3.9584,-3.932,-3.8944,-3.868,-3.809,-3.7199,-3.6681,-3.6405,-3.6405,-3.6405,-3.6405,-3.6405,-3.6405,-3.6342,-3.6169,-3.5868,-3.5768,-3.5801,-3.4575,-3.4437,-3.4893,-3.4073,-3.4048,-3.4587,-3.4981,-3.4944,-3.4776,-3.5169,-3.4969,-3.455,-3.455,-3.4625,-3.4904,-3.5922,-3.7418,-3.9035,-4.0264,-4.0916,-4.1337,-4.185,-4.1127,-4.0532,-4.1684,-4.2351,-4.2994,-4.3875,-4.4067,-4.4242,-4.4766,-4.487,-4.487,-4.487,-4.499,-4.5035,-4.4885,-4.499,-4.508,-4.508,-4.508,-4.508,-4.508,-4.5214,-4.5185,-4.49,-4.5005,-4.508,-4.508,-4.5708,-4.6097,-4.6097,-4.6591,-4.6875,-4.6875,-4.6367,-4.6352,-4.686,-4.6352,-4.5828,-4.5304,-4.5843,-4.6172,-4.6337,-4.686,-4.7174,-4.7309,-4.7309,-4.7309,-4.7309,-4.7309,-4.7309,-4.7309,-4.7309,-4.7309,-4.7309,-4.7309,-4.7309,-4.7309,-4.2974,-4.2974,-4.2974,-4.2974,-4.2974,-4.2974,-4.2974,-4.2974,-4.2886,-4.2678,-4.1856,-4.1188,-4.0924,-4.0199,-3.9697,-3.9697,-3.9697,-3.9697,-3.9697,-3.9697,-3.9559,-3.927,-3.9057,-3.8642,-3.8002,-3.7437,-3.6885,-3.6405,-3.6669,-3.6669,-3.6417,-3.6681,-3.6669,-3.6405,-3.6056,-3.5943,-3.5918,-3.5052,-3.4818,-3.5056,-3.4525,-3.4625,-3.5107,-3.5395,-3.5483,-3.5542,-3.583,-3.5579,-3.5069,-3.5069,-3.5069,-3.5294,-3.6409,-3.7234,-3.8158,-4.012,-3.9958,-3.9464,-4.1155,-4.0347,-3.9546,-4.1582,-4.2335,-4.289,-4.4043,-4.4556,-4.4885,-4.5229,-4.5289,-4.5289,-4.5289,-4.5559,-4.5678,-4.5349,-4.5574,-4.5783,-4.5783,-4.5783,-4.5783,-4.5783,-4.6067,-4.6127,-4.5813,-4.5783,-4.5783,-4.5783,-4.6411,-4.68,-4.68,-4.7115,-4.7309,-4.7309,-4.698,-4.6965,-4.7309,-4.6965,-4.6606,-4.6262,-4.6621,-4.68,-4.68,-4.7145,-4.7309,-4.7309,-4.7309,-4.7309,-4.7309,-4.7309,-4.7309,-4.7309,-4.7309,-4.7309,-4.7309,-4.7309,-4.7309,-4.7309,-4.2974,-4.2974,-4.2974,-4.2974,-4.2974,-4.2974,-4.2974,-4.2898,-4.2728,-4.2263,-4.1593,-4.0974,-4.0563,-4.0023,-3.9697,-3.9697,-3.9697,-3.9697,-3.9697,-3.9697,-3.9697,-3.9697,-3.9258,-3.8969,-3.8919,-3.8404,-3.7663,-3.6681,-3.7059,-3.6948,-3.6556,-3.692,-3.6845,-3.6405,-3.6405,-3.6107,-3.5633,-3.5533,-3.5295,-3.5002,-3.4901,-3.5144,-3.5633,-3.5633,-3.5968,-3.6405,-3.6405,-3.6069,-3.5633,-3.5633,-3.5633,-3.5894,-3.7351,-3.7276,-3.7289,-4.0161,-3.9179,-3.7775,-4.0659,-4.0053,-3.9231,-4.2038,-4.2738,-4.3079,-4.437,-4.508,-4.5499,-4.5618,-4.5633,-4.5633,-4.5633,-4.6112,-4.6307,-4.5723,-4.6112,-4.6444,-4.6444,-4.6444,-4.6444,-4.6444,-4.698,-4.71,-4.6503,-4.6444,-4.6444,-4.6444,-4.6995,-4.7309,-4.7309,-4.7309,-4.7309,-4.7309,-4.7309,-4.7309,-4.7309,-4.7309,-4.7309,-4.7309,-4.7309,-4.7309,-4.7309,-4.7309,-4.7309,-4.7309,-4.7309,-4.7309,-4.7309,-4.7309,-4.7309,-4.7309,-4.7309,-4.7309,-4.7309,-4.7309,-4.7309,-4.7309,-4.2974,-4.2974,-4.2974,-4.2974,-4.2974,-4.2974,-4.2974,-4.2627,-4.2288,-4.2213,-4.1266,-4.0601,-4.0526,-4.0023,-3.9697,-3.9697,-3.9697,-3.9697,-3.9697,-3.9697,-3.9697,-3.9697,-3.9622,-3.9358,-3.8932,-3.8844,-3.8429,-3.7789,-3.7374,-3.7149,-3.7061,-3.6707,-3.648,-3.6405,-3.6405,-3.6367,-3.6267,-3.5696,-3.578,-3.6094,-3.5617,-3.5768,-3.6304,-3.6304,-3.6342,-3.6405,-3.6405,-3.6367,-3.6304,-3.6304,-3.6304,-3.6317,-3.6555,-3.7196,-3.7984,-3.8456,-3.9298,-4.023,-4.0675,-4.0587,-4.0813,-4.278,-4.3358,-4.3935,-4.565,-4.6085,-4.6352,-4.692,-4.704,-4.704,-4.704,-4.7115,-4.7145,-4.704,-4.7115,-4.7174,-4.7174,-4.7174,-4.7174,-4.7174,-4.7249,-4.7264,-4.7174,-4.7174,-4.7174,-4.7174,-4.7249,-4.7309,-4.7309,-4.7309,-4.7309,-4.7309,-4.7309,-4.7309,-4.7309,-4.7309,-4.7309,-4.7309,-4.7309,-4.7309,-4.7309,-4.7309,-4.7309,-4.7309,-4.7309,-4.7309,-4.7309,-4.7309,-4.7309,-4.7309,-4.7309,-4.7309,-4.7309,-4.7309,-4.7309,-4.7309,-4.2974,-4.2974,-4.2974,-4.2974,-4.2974,-4.2974,-4.2974,-4.2828,-4.2552,-4.225,-4.1467,-4.0811,-4.0551,-4.0023,-3.9697,-3.9697,-3.9697,-3.9697,-3.9697,-3.9697,-3.9697,-3.9697,-3.9697,-3.9584,-3.9333,-3.9333,-3.9207,-3.8956,-3.8065,-3.7324,-3.6769,-3.6832,-3.6707,-3.6405,-3.6405,-3.6405,-3.6392,-3.6107,-3.6144,-3.6392,-3.6094,-3.6144,-3.6405,-3.6405,-3.6405,-3.6405,-3.6405,-3.6405,-3.6405,-3.6405,-3.6405,-3.6405,-3.6405,-3.6756,-3.7341,-3.8274,-3.8642,-3.8964,-3.992,-3.9688,-3.982,-4.2391,-4.3071,-4.3749,-4.6294,-4.6875,-4.695,-4.7249,-4.7309,-4.7309,-4.7309,-4.7309,-4.7309,-4.7309,-4.7309,-4.7309,-4.7309,-4.7309,-4.7309,-4.7309,-4.7309,-4.7309,-4.7309,-4.7309,-4.7309,-4.7309,-4.7309,-4.7309,-4.7309,-4.7309,-4.7309,-4.7309,-4.7309,-4.7309,-4.7309,-4.7668,-4.7863,-4.7863,-4.8222,-4.8012,-4.7309,-4.7309,-4.7504,-4.7833,-4.7459,-4.7519,-4.7818,-4.7459,-4.7309,-4.7309,-4.7309,-4.7309,-4.7309,-4.7309,-4.7309,-4.7309]},{"header":{"parameterUnit":"m.s-1","parameterCategory":1,"la1":30.6,"la2":28.766,"lo1":-90.7593,"lo2":-88.6598,"dy":0.0162,"dx":0.0183,"nx":116,"ny":114,"refTime":"2023-04-20T12:00:00:Z","depth":0,"parameterNumber":3,"parameterNumberName":"V-component_of_WINDS"},"data":[0.0,0.0,0.0,0.0,0.0,0.0,0.0,0.0,0.0,0.0,0.0,0.0,0.0,0.0,0.0,0.0,0.0,0.0,0.0,0.0,0.0,0.0,0.0,0.0,0.0,0.0,0.0,0.0,0.0,0.0,0.0,0.0,0.0,0.0,0.0,0.0,0.0,0.0,0.0,0.0,0.0,0.0,0.0,0.0,0.0,0.0,0.0,0.0,0.0,0.0,0.0,0.0,0.0,0.0,0.0,0.0,0.0,0.0,0.0,0.0,0.0,0.0,0.0,0.0,0.0,0.0,0.0,0.0,0.0,0.0,0.0,0.0,0.0,0.0,0.0,0.0,0.0,0.0,0.0,0.0,0.0,0.0,0.0,0.0,0.0,0.0,0.0,0.0,0.0,0.0,0.0,0.0,0.0,0.0,0.0,0.0,0.0,0.0,0.0,0.0,0.0,0.0,0.0,0.0,0.0,0.0,0.0,0.0,0.0,0.0,0.0,0.0,0.0,0.0,0.0,0.0,0.0,0.0,0.0,0.0,0.0,0.0,0.0,0.0,0.0,0.0,0.0,0.0,0.0,0.0,0.0,0.0,0.0,0.0,0.0,0.0,0.0,0.0,0.0,0.0,0.0,0.0,0.0,0.0,0.0,0.0,0.0,0.0,0.0,0.0,0.0,0.0,0.0,0.0,0.0,0.0,0.0,0.0,0.0,0.0,0.0,0.0,0.0,0.0,0.0,0.0,0.0,0.0,0.0,0.0,0.0,0.0,0.0,0.0,0.0,0.0,0.0,0.0,0.0,0.0,0.0,0.0,0.0,0.0,0.0,0.0,0.0,0.0,0.0,0.0,0.0,0.0,0.0,0.0,0.0,0.0,0.0,0.0,0.0,0.0,0.0,0.0,0.0,0.0,0.0,0.0,0.0,0.0,0.0,0.0,0.0,0.0,0.0,0.0,0.0,0.0,0.0,0.0,0.0,0.0,0.0,0.0,0.0,0.0,0.0,0.0,0.0,0.0,0.0,0.0,0.0,0.0,0.0,0.0,0.0,0.0,0.0,0.0,0.0,0.0,0.0,0.0,0.0,0.0,0.0,0.0,0.0,0.0,0.0,0.0,0.0,0.0,0.0,0.0,0.0,0.0,0.0,0.0,0.0,0.0,0.0,0.0,0.0,0.0,0.0,0.0,0.0,0.0,0.0,0.0,0.0,0.0,0.0,0.0,0.0,0.0,0.0,0.0,0.0,0.0,0.0,0.0,0.0,0.0,0.0,0.0,0.0,0.0,0.0,0.0,0.0,0.0,0.0,0.0,0.0,0.0,0.0,0.0,0.0,0.0,0.0,0.0,0.0,0.0,0.0,0.0,0.0,0.0,0.0,0.0,0.0,0.0,0.0,0.0,0.0,0.0,0.0,0.0,0.0,0.0,0.0,0.0,0.0,0.0,0.0,0.0,0.0,0.0,0.0,0.0,0.0,0.0,0.0,0.0,0.0,0.0,0.0,0.0,0.0,0.0,0.0,0.0,0.0,0.0,0.0,0.0,0.0,0.0,0.0,0.0,0.0,0.0,0.0,0.0,0.0,0.0,0.0,0.0,0.0,0.0,0.0,0.0,0.0,0.0,0.0,0.0,0.0,0.0,0.0,0.0,0.0,0.0,0.0,0.0,0.0,0.0,0.0,0.0,0.0,0.0,0.0,0.0,0.0,0.0,0.0,0.0,0.0,0.0,0.0,0.0,0.0,0.0,0.0,0.0,0.0,0.0,0.0,0.0,0.0,0.0,0.0,0.0,0.0,0.0,0.0,0.0,0.0,0.0,0.0,0.0,0.0,0.0,0.0,0.0,0.0,0.0,0.0,0.0,0.0,0.0,0.0,0.0,0.0,0.0,0.0,0.0,0.0,0.0,0.0,0.0,0.0,0.0,0.0,0.0,0.0,0.0,0.0,0.0,0.0,0.0,0.0,0.0,0.0,0.0,0.0,0.0,0.0,0.0,0.0,0.0,0.0,0.0,0.0,0.0,0.0,0.0,0.0,0.0,0.0,0.0,0.0,0.0,0.0,0.0,0.0,0.0,0.0,0.0,0.0,0.0,0.0,0.0,0.0,0.0,0.0,0.0,0.0,0.0,0.0,0.0,0.0,0.0,0.0,0.0,0.0,0.0,0.0,0.0,0.0,0.0,0.0,0.0,0.0,0.0,0.0,0.0,0.0,0.0,0.0,0.0,0.0,0.0,0.0,0.0,0.0,0.0,0.0,0.0,0.0,0.0,0.0,0.0,0.0,0.0,0.0,0.0,0.0,0.0,0.0,0.0,0.0,0.0,0.0,0.0,0.0,0.0,0.0,0.0,0.0,0.0,0.0,0.0,0.0,0.0,0.0,0.0,0.0,0.0,0.0,0.0,0.0,0.0,0.0,0.0,0.0,0.0,0.0,0.0,0.0,0.0,0.0,0.0,0.0,0.0,0.0,0.0,0.0,0.0,0.0,0.0,0.0,0.0,0.0,0.0,0.0,0.0,0.0,0.0,0.0,0.0,0.0,0.0,0.0,0.0,0.0,0.0,0.0,0.0,0.0,0.0,0.0,0.0,0.0,0.0,0.0,0.0,0.0,0.0,0.0,0.0,0.0,0.0,0.0,0.0,0.0,0.0,0.0,0.0,0.0,0.0,0.0,0.0,0.0,0.0,0.0,0.0,0.0,0.0,0.0,0.0,0.0,0.0,0.0,0.0,0.0,0.0,0.0,0.0,0.0,0.0,0.0,0.0,0.0,0.0,0.0,0.0,0.0,0.0,0.0,0.0,0.0,0.0,0.0,0.0,0.0,0.0,0.0,0.0,0.0,0.0,0.0,0.0,0.0,0.0,0.0,0.0,0.0,0.0,0.0,0.0,0.0,0.0,0.0,0.0,0.0,0.0,0.0,0.0,0.0,0.0,0.0,0.0,0.0,0.0,0.0,0.0,0.0,0.0,0.0,0.0,0.0,0.0,0.0,0.0,0.0,0.0,0.0,0.0,0.0,0.0,0.0,0.0,0.0,0.0,0.0,0.0,0.0,0.0,0.0,0.0,0.0,0.0,0.0,0.0,0.0,0.0,0.0,0.0,0.0,0.0,0.0,0.0,0.0,0.0,0.0,0.0,0.0,0.0,0.0,0.0,0.0,0.0,0.0,0.0,0.0,0.0,0.0,0.0,0.0,0.0,0.0,0.0,0.0,0.0,0.0,0.0,0.0,0.0,0.0,0.0,0.0,0.0,0.0,0.0,0.0,0.0,0.0,0.0,0.0,0.0,0.0,0.0,0.0,0.0,0.0,0.0,0.0,0.0,0.0,0.0,0.0,0.0,0.0,0.0,0.0,0.0,0.0,0.0,0.0,0.0,0.0,0.0,0.0,0.0,0.0,0.0,0.0,0.0,0.0,0.0,0.0,0.0,0.0,0.0,0.0,0.0,0.0,0.0,0.0,0.0,0.0,0.0,0.0,0.0,0.0,0.0,0.0,0.0,0.0,0.0,0.0,0.0,0.0,0.0,0.0,0.0,0.0,0.0,0.0,0.0,0.0,0.0,0.0,0.0,0.0,0.0,0.0,0.0,0.0,0.0,0.0,0.0,0.0,0.0,0.0,0.0,0.0,0.0,0.0,0.0,0.0,0.0,0.0,0.0,0.0,0.0,0.0,0.0,0.0,0.0,0.0,0.0,0.0,0.0,0.0,0.0,0.0,0.0,0.0,0.0,0.0,0.0,0.0,0.0,0.0,0.0,0.0,0.0,0.0,0.0,0.0,0.0,0.0,0.0,0.0,0.0,0.0,0.0,0.0,0.0,0.0,0.0,0.0,0.0,0.0,0.0,0.0,0.0,0.0,0.0,0.0,0.0,0.0,0.0,0.0,0.0,0.0,0.0,0.0,0.0,0.0,0.0,0.0,0.0,0.0,0.0,0.0,0.0,0.0,0.0,0.0,0.0,0.0,0.0,0.0,0.0,0.0,0.0,0.0,0.0,0.0,0.0,0.0,0.0,0.0,0.0,0.0,0.0,0.0,0.0,0.0,0.0,0.0,0.0,0.0,0.0,0.0,0.0,0.0,0.0,0.0,0.0,0.0,0.0,0.0,0.0,0.0,0.0,0.0,0.0,0.0,0.0,0.0,0.0,0.0,0.0,0.0,0.0,0.0,0.0,0.0,0.0,0.0,0.0,0.0,0.0,0.0,0.0,0.0,0.0,0.0,0.0,0.0,0.0,0.0,0.0,0.0,0.0,0.0,0.0,0.0,0.0,0.0,0.0,0.0,0.0,0.0,0.0,0.0,0.0,0.0,0.0,0.0,0.0,0.0,0.0,0.0,0.0,0.0,0.0,0.0,0.0,0.0,0.0,0.0,0.0,0.0,0.0,0.0,0.0,0.0,0.0,0.0,0.0,0.0,0.0,0.0,0.0,0.0,0.0,0.0,0.0,0.0,0.0,0.0,0.0,0.0,0.0,0.0,0.0,0.0,0.0,0.0,0.0,0.0,0.0,0.0,0.0,0.0,0.0,0.0,0.0,0.0,0.0,0.0,0.0,0.0,0.0,0.0,0.0,0.0,0.0,0.0,0.0,0.0,0.0,0.0,0.0,0.0,0.0,0.0,0.0,0.0,0.0,0.0,0.0,0.0,0.0,0.0,0.0,0.0,0.0,0.0,0.0,0.0,0.0,0.0,0.0,0.0,0.0,0.0,0.0,0.0,0.0,0.0,0.0,0.0,0.0,0.0,0.0,0.0,0.0,0.0,0.0,0.0,0.0,0.0,0.0,0.0,0.0,0.0,0.0,0.0,0.0,0.0,0.0,0.0,0.0,0.0,0.0,0.0,0.0,0.0,0.0,0.0,0.0,0.0,0.0,0.0,0.0,0.0,0.0,0.0,0.0,0.0,0.0,0.0,0.0,0.0,0.0,0.0,0.0,0.0,0.0,0.0,0.0,0.0,0.0,0.0,0.0,0.0,0.0,0.0,0.0,0.0,0.0,0.0,0.0,0.0,0.0,0.0,0.0,0.0,0.0,0.0,0.0,0.0,0.0,0.0,0.0,0.0,0.0,0.0,0.0,0.0,0.0,0.0,0.0,0.0,0.0,0.0,0.0,0.0,0.0,0.0,0.0,0.0,0.0,0.0,0.0,0.0,0.0,0.0,0.0,0.0,0.0,0.0,0.0,0.0,0.0,0.0,0.0,0.0,0.0,0.0,0.0,0.0,0.0,0.0,0.0,0.0,0.0,0.0,0.0,0.0,0.0,0.0,0.0,0.0,0.0,0.0,0.0,0.0,0.0,0.0,0.0,0.0,0.0,0.0,0.0,0.0,0.0,0.0,0.0,0.0,0.0,0.0,0.0,0.0,0.0,0.0,0.0,0.0,0.0,0.0,0.0,0.0,0.0,0.0,0.0,0.0,0.0,0.0,0.0,0.0,0.0,0.0,0.0,0.0,0.0,0.0,0.0,0.0,0.0,0.0,0.0,0.0,0.0,0.0,0.0,0.0,0.0,0.0,0.0,0.0,0.0,0.0,0.0,0.0,0.0,0.0,0.0,0.0,0.0,0.0,0.0,0.0,0.0,0.0,0.0,0.0,0.0,0.0,0.0,0.0,0.0,0.0,0.0,0.0,0.0,0.0,0.0,0.0,0.0,0.0,0.0,0.0,0.0,0.0,0.0,0.0,0.0,0.0,0.0,0.0,0.0,0.0,0.0,0.0,0.0,0.0,0.0,0.0,0.0,0.0,0.0,0.0,0.0,0.0,0.0,0.0,0.0,0.0,0.0,0.0,0.0,0.0,0.0,0.0,0.0,0.0,0.0,0.0,0.0,0.0,0.0,0.0,0.0,0.0,0.0,0.0,0.0,0.0,0.0,0.0,0.0,0.0,0.0,0.0,0.0,0.0,0.0,0.0,0.0,0.0,0.0,0.0,0.0,0.0,0.0,0.0,0.0,0.0,0.0,0.0,0.0,0.0,0.0,0.0,0.0,0.0,0.0,0.0,0.0,0.0,0.0,0.0,0.0,0.0,0.0,0.0,0.0,0.0,0.0,0.0,0.0,0.0,0.0,0.0,0.0,0.0,0.0,0.0,0.0,0.0,0.0,0.0,0.0,0.0,0.0,1.8604,1.8757,0.0,0.0,0.0,0.0,0.0,0.0,0.0,0.0,0.0,0.0,0.0,0.0,0.0,0.0,0.0,0.0,0.0,0.0,0.0,0.0,0.0,0.0,0.0,0.0,0.0,0.0,0.0,0.0,0.0,0.0,0.0,0.0,0.0,0.0,0.0,0.0,0.0,0.0,2.9729,2.9397,2.9037,3.0013,2.9798,2.8631,0.0,0.0,0.0,0.0,0.0,0.0,0.0,0.0,0.0,0.0,0.0,0.0,0.0,0.0,0.0,0.0,0.0,0.0,0.0,0.0,0.0,0.0,0.0,0.0,0.0,0.0,0.0,0.0,0.0,0.0,0.0,0.0,0.0,0.0,0.0,0.0,0.0,0.0,0.0,0.0,0.0,0.0,0.0,0.0,0.0,0.0,0.0,0.0,0.0,0.0,0.0,0.0,0.0,0.0,0.0,0.0,0.0,0.0,0.0,0.0,0.0,0.0,0.0,0.0,0.0,0.0,0.0,0.0,0.0,0.0,1.9722,1.9083,0.0,0.0,0.0,0.0,0.0,0.0,0.0,0.0,0.0,0.0,0.0,0.0,0.0,0.0,0.0,0.0,0.0,0.0,0.0,0.0,0.0,0.0,0.0,2.8607,2.8697,2.8906,2.943,3.0013,0.0,0.0,0.0,0.0,0.0,0.0,0.0,3.0298,3.0567,3.0687,3.0178,3.0238,3.0881,3.2108,3.1285,2.8854,3.0105,0.0,0.0,0.0,0.0,0.0,0.0,0.0,0.0,0.0,0.0,0.0,0.0,0.0,0.0,0.0,0.0,0.0,0.0,0.0,0.0,0.0,0.0,0.0,0.0,0.0,0.0,0.0,0.0,0.0,0.0,0.0,0.0,0.0,0.0,0.0,0.0,0.0,0.0,0.0,0.0,0.0,0.0,0.0,0.0,0.0,0.0,0.0,0.0,0.0,0.0,0.0,0.0,0.0,0.0,0.0,0.0,0.0,0.0,0.0,0.0,0.0,0.0,0.0,2.2372,2.2837,2.2771,2.3524,2.3562,2.2997,2.0965,1.9536,1.8656,1.8995,0.0,0.0,0.0,0.0,0.0,0.0,0.0,0.0,0.0,0.0,0.0,0.0,0.0,0.0,0.0,0.0,0.0,0.0,0.0,0.0,0.0,2.8607,2.9041,3.0148,3.0328,3.0672,3.1316,0.0,0.0,0.0,0.0,0.0,3.1241,3.0776,3.0806,3.1376,3.1286,3.1585,3.2258,3.3021,3.344,3.353,3.2031,3.1642,3.2003,0.0,0.0,0.0,0.0,0.0,0.0,0.0,0.0,0.0,0.0,0.0,0.0,0.0,0.0,0.0,0.0,0.0,0.0,0.0,0.0,0.0,0.0,0.0,0.0,0.0,0.0,0.0,0.0,0.0,0.0,0.0,0.0,0.0,0.0,0.0,0.0,0.0,0.0,0.0,0.0,0.0,2.2327,2.122,0.0,0.0,0.0,0.0,0.0,0.0,0.0,0.0,0.0,0.0,0.0,0.0,0.0,2.3091,2.4456,2.4587,2.4124,2.3171,2.4534,2.4688,2.3785,2.3389,2.3187,2.3041,2.1811,0.0,2.0339,1.9874,0.0,0.0,0.0,0.0,0.0,0.0,0.0,0.0,0.0,0.0,0.0,0.0,0.0,0.0,0.0,0.0,0.0,0.0,0.0,0.0,0.0,2.9924,3.0866,3.1032,3.3269,3.4098,3.2715,3.3456,0.0,0.0,0.0,3.1197,3.1496,3.1212,3.157,3.2632,3.3769,3.4637,3.528,3.5938,3.6611,3.718,3.5564,3.4173,3.2961,3.136,0.0,0.0,0.0,0.0,0.0,0.0,0.0,0.0,0.0,0.0,0.0,0.0,0.0,0.0,0.0,0.0,0.0,0.0,0.0,0.0,0.0,0.0,0.0,0.0,0.0,0.0,0.0,0.0,0.0,0.0,0.0,0.0,0.0,0.0,0.0,0.0,0.0,0.0,0.0,2.2993,2.31,2.0768,2.2467,2.2961,0.0,0.0,0.0,0.0,0.0,0.0,0.0,0.0,0.0,2.4036,2.4228,2.4546,2.4964,2.528,2.5215,2.4813,2.5683,2.5873,2.5436,2.4805,2.4703,2.4967,2.3852,2.287,2.1934,2.0582,1.9703,1.9212,0.0,0.0,0.0,0.0,2.1397,2.1562,0.0,0.0,0.0,0.0,0.0,0.0,0.0,0.0,0.0,0.0,0.0,0.0,2.9704,3.1749,3.3021,3.3005,3.5629,3.6338,3.4143,3.4488,3.4207,0.0,3.1977,3.166,3.1989,3.2348,3.3155,3.4502,3.6507,3.7808,3.8437,3.9095,3.9858,4.0606,3.9095,3.715,3.4876,3.2841,3.1465,3.0475,0.0,0.0,0.0,0.0,0.0,0.0,0.0,0.0,0.0,0.0,0.0,0.0,0.0,0.0,0.0,0.0,0.0,0.0,0.0,0.0,0.0,0.0,0.0,0.0,0.0,0.0,0.0,0.0,0.0,0.0,0.0,0.0,0.0,0.0,0.0,0.0,0.0,2.2555,2.2474,1.9946,2.1868,2.2436,0.0,0.0,0.0,0.0,0.0,0.0,2.435,2.4603,2.4985,2.5615,2.6314,2.6553,2.628,2.6816,2.7084,2.7025,2.7372,2.7366,2.6969,2.6172,2.5921,2.6014,2.4847,2.3813,2.2825,2.1361,2.0303,1.9675,2.0297,2.0688,2.1086,2.2128,2.2591,2.2787,0.0,0.0,0.0,0.0,0.0,0.0,0.0,0.0,0.0,0.0,0.0,2.9762,3.2901,3.3918,3.5115,3.6956,3.6181,3.5554,3.5419,3.3096,3.2242,3.3396,3.2198,3.2093,3.3365,3.4651,3.5923,3.721,3.9215,4.0546,4.119,4.1886,4.2851,4.3988,4.2043,4.0412,3.8835,3.5026,3.3365,3.3186,3.1919,0.0,0.0,0.0,0.0,0.0,0.0,0.0,0.0,0.0,0.0,0.0,0.0,0.0,0.0,0.0,0.0,0.0,0.0,0.0,0.0,0.0,0.0,0.0,0.0,0.0,0.0,0.0,0.0,0.0,0.0,0.0,0.0,0.0,0.0,0.0,0.0,0.0,0.0,1.875,2.0533,0.0,0.0,0.0,0.0,2.1234,2.1597,2.2317,2.3509,2.4033,2.5417,2.7848,2.9013,2.9817,3.0319,3.0834,3.0844,3.0365,3.039,2.9564,2.7973,2.6907,2.5878,2.4798,2.3697,2.2951,2.2518,2.228,2.2155,2.2067,2.1607,2.205,2.2964,2.3039,2.3433,2.3922,0.0,0.0,0.0,0.0,0.0,0.0,0.0,0.0,2.731,2.845,2.964,3.1368,3.3872,3.6611,3.8392,3.8676,3.9606,3.9232,3.6943,3.6045,3.52,3.4208,3.3276,3.3425,3.4756,3.6477,3.8212,3.9963,4.1953,4.3254,4.3913,4.4137,4.4272,4.4287,4.3584,4.2536,4.1085,3.7524,3.528,3.3949,3.1766,3.0714,0.0,0.0,0.0,0.0,0.0,0.0,0.0,0.0,0.0,0.0,0.0,0.0,0.0,0.0,0.0,0.0,0.0,0.0,0.0,0.0,0.0,0.0,0.0,0.0,0.0,0.0,0.0,0.0,0.0,0.0,0.0,0.0,0.0,0.0,0.0,0.0,0.0,2.1163,2.2852,0.0,2.1469,2.1784,2.2099,2.2046,2.2512,2.3841,2.6209,2.6888,2.8132,3.0154,3.0608,3.0922,3.111,3.1298,3.1135,3.062,3.062,2.9727,2.8044,2.7005,2.588,2.4745,2.3594,2.3013,2.2861,2.2843,2.2321,2.1586,2.1707,2.2004,2.243,2.336,2.4238,2.5099,0.0,0.0,0.0,0.0,0.0,0.0,0.0,0.0,2.6953,2.8242,3.035,3.2727,3.5385,3.9094,4.1294,4.1085,4.1626,4.0882,3.8317,3.7074,3.5938,3.4896,3.483,3.534,3.6447,3.8616,4.0591,4.2372,4.4122,4.5214,4.5648,4.5648,4.5529,4.5304,4.484,4.4287,4.3509,4.0621,3.7883,3.5297,3.3306,3.2644,3.2602,0.0,0.0,0.0,0.0,0.0,0.0,0.0,0.0,0.0,0.0,0.0,0.0,0.0,0.0,0.0,0.0,0.0,0.0,0.0,0.0,0.0,0.0,0.0,0.0,0.0,0.0,0.0,0.0,0.0,0.0,0.0,0.0,0.0,0.0,2.2911,2.3076,2.2778,2.3991,2.4304,2.2873,2.2631,2.2757,2.3336,2.3715,2.5041,2.768,2.8545,2.9621,3.1004,3.1643,3.1863,3.1675,3.1863,3.1468,3.0511,3.038,2.9232,2.7151,2.6332,2.5305,2.4168,2.343,2.3091,2.3091,2.3091,2.2594,2.1887,2.2171,2.2319,2.2469,2.3784,2.4954,2.6065,0.0,0.0,0.0,0.0,0.0,0.0,0.0,2.6496,2.6899,2.7917,3.0646,3.392,3.7649,4.1189,4.3574,4.4227,4.1878,4.0083,3.9388,3.5714,3.4143,3.5504,3.6761,3.7778,3.8497,4.1123,4.306,4.4377,4.5666,4.6309,4.6309,4.6309,4.6681,4.7219,4.5903,4.5678,4.613,4.4186,4.1122,3.7563,3.6807,3.6115,3.5374,0.0,0.0,0.0,0.0,0.0,0.0,0.0,0.0,0.0,0.0,0.0,0.0,0.0,0.0,0.0,0.0,0.0,0.0,0.0,0.0,0.0,0.0,0.0,0.0,0.0,0.0,0.0,0.0,0.0,0.0,0.0,0.0,0.0,2.1376,2.201,2.2715,2.3208,2.3613,2.4033,2.4443,2.4111,2.4209,2.5096,2.5165,2.5864,2.7542,2.8749,2.9704,3.0423,3.2155,3.2775,3.2277,3.2805,3.2198,3.0395,2.9981,2.8251,2.5403,2.4975,2.4178,2.3091,2.3091,2.3091,2.3091,2.3091,2.3091,2.3091,2.3091,2.3091,2.3222,2.4329,2.5462,2.676,0.0,0.0,0.0,0.0,0.0,0.0,0.0,2.6634,2.7724,2.8856,3.2313,3.5759,3.8705,4.2022,4.3888,4.3589,4.1167,3.9394,3.8721,3.5863,3.5011,3.6806,3.7689,3.911,4.1257,4.2925,4.4436,4.5768,4.6621,4.704,4.704,4.704,4.6875,4.6576,4.6202,4.5873,4.5544,4.499,4.3853,4.2087,3.8557,3.6797,3.6031,0.0,0.0,0.0,0.0,0.0,0.0,0.0,0.0,0.0,0.0,0.0,0.0,0.0,0.0,0.0,0.0,0.0,0.0,0.0,0.0,0.0,0.0,0.0,0.0,0.0,0.0,0.0,0.0,0.0,0.0,0.0,2.3976,2.4113,2.3334,2.3366,2.3711,2.4499,2.5215,2.5723,2.584,2.5742,2.5771,2.6006,2.6309,2.6913,2.7996,2.8349,2.9504,3.1558,3.1677,3.2262,3.3432,3.3194,3.2198,3.0395,3.0295,2.8539,2.5413,2.5277,2.4441,2.3091,2.3091,2.3091,2.3091,2.3091,2.3091,2.3091,2.3091,2.3091,2.3135,2.3464,2.4296,2.5588,0.0,0.0,0.0,0.0,0.0,0.0,0.0,2.6158,2.719,2.8584,3.2417,3.599,3.8538,4.1855,4.3379,4.2207,4.0457,3.8901,3.7674,3.6417,3.6327,3.7764,3.926,4.104,4.3135,4.4481,4.5678,4.6741,4.7115,4.7309,4.7309,4.7309,4.71,4.6741,4.6741,4.6516,4.6127,4.5843,4.5499,4.487,4.1609,3.9918,3.911,3.6836,3.6315,3.6669,3.5441,3.6194,3.7467,3.5757,0.0,0.0,0.0,0.0,0.0,0.0,0.0,0.0,0.0,0.0,0.0,0.0,0.0,0.0,0.0,0.0,0.0,0.0,0.0,0.0,0.0,0.0,0.0,0.0,2.4735,2.5382,2.5051,2.4921,2.5127,2.581,2.6338,2.6787,2.7148,2.6865,2.6797,2.7158,2.7246,2.7517,2.7994,2.8266,2.9407,3.1553,3.1345,3.2075,3.3897,3.3357,3.2309,3.0715,3.0557,2.8937,2.6033,2.5834,2.4893,2.3408,2.3408,2.3266,2.3091,2.3091,2.3091,2.3091,0.0,0.0,0.0,0.0,2.4211,2.5115,0.0,0.0,0.0,0.0,0.0,0.0,0.0,2.5301,2.5997,2.7621,3.1523,3.5029,3.7259,4.0562,4.1929,4.0217,3.9334,3.8182,3.6596,3.7135,3.7913,3.8796,4.1287,4.3195,4.4511,4.5783,4.6711,4.7309,4.7309,4.7309,4.7309,4.7309,4.7309,4.7309,4.7309,4.7309,4.7264,4.6681,4.6384,4.6337,4.514,4.4082,4.3035,4.0666,4.0408,4.1152,3.9287,3.8433,3.8155,3.7749,0.0,0.0,0.0,0.0,0.0,0.0,0.0,0.0,0.0,0.0,0.0,0.0,0.0,0.0,0.0,0.0,0.0,0.0,0.0,0.0,0.0,0.0,0.0,0.0,2.5365,2.6013,2.6516,2.6641,2.6777,2.706,2.7129,2.7461,2.8213,2.7607,2.7471,2.8232,2.7949,2.7767,2.7718,2.832,0.0,0.0,0.0,3.1997,3.3751,3.3389,3.2531,3.1211,3.0858,2.9402,2.7095,2.6581,2.5523,2.4073,2.3947,2.3643,2.3237,2.3188,2.314,2.3091,2.3091,2.3091,2.3222,2.4253,2.4628,2.4914,0.0,0.0,0.0,0.0,0.0,0.0,0.0,2.4653,2.588,2.7242,3.0543,3.3185,3.4228,3.6869,3.8407,3.8018,3.6417,3.5761,3.6432,3.7569,3.9215,4.1542,4.3105,4.4556,4.5861,4.6711,4.7174,4.7309,4.7309,4.7309,4.7309,4.7309,4.7309,4.7309,4.7309,4.7309,4.7294,4.7174,4.7115,4.71,4.683,4.5364,4.3185,4.2192,4.1648,4.1204,3.9745,4.0674,4.2128,3.9211,3.9106,3.9756,3.7243,3.5291,0.0,0.0,0.0,0.0,0.0,0.0,0.0,0.0,0.0,0.0,0.0,0.0,0.0,0.0,0.0,0.0,0.0,0.0,0.0,2.6654,2.6687,2.7038,2.7845,2.8213,2.8203,2.7607,2.7842,2.8115,2.8271,2.8144,2.8115,2.8281,2.8223,2.8027,2.7738,2.7828,2.8522,2.9913,3.0619,3.1598,3.2927,3.3452,3.2901,3.1223,3.1128,0.0,2.8421,2.7283,2.6452,2.5744,2.4735,2.4248,2.4095,2.3799,2.3457,2.3091,2.3091,2.3091,2.3135,2.3343,2.343,2.3637,0.0,0.0,0.0,0.0,0.0,0.0,0.0,2.3781,2.4854,2.6165,2.8932,3.1122,3.2179,3.4008,3.4891,3.4254,3.3977,3.4412,3.577,3.8389,4.0771,4.2761,4.4436,4.5783,4.68,4.713,4.7309,4.7309,4.7309,4.7309,4.7309,4.7309,4.7309,4.7309,4.7309,4.7309,4.7309,4.7309,4.7309,4.7309,4.7309,4.6516,4.5244,4.4586,4.3928,4.321,4.2222,4.2387,4.2765,4.0611,4.0221,4.0223,3.8101,3.6743,3.5639,0.0,0.0,0.0,0.0,0.0,0.0,0.0,0.0,0.0,0.0,0.0,0.0,0.0,0.0,2.8475,2.7865,0.0,2.8552,2.7893,2.8491,2.8931,2.8653,2.8789,2.8682,2.8057,2.835,2.8525,2.831,2.8291,2.8291,2.8291,2.8291,2.8203,2.7988,2.7836,2.8413,2.992,2.9888,3.089,3.3078,3.324,3.317,3.2946,3.2946,3.1746,2.9464,2.8855,2.7505,2.5681,2.5006,2.4502,2.4072,2.3643,2.3286,2.3091,2.3091,2.3091,2.3091,2.3091,2.3091,2.3343,0.0,0.0,0.0,0.0,0.0,0.0,0.0,2.2756,2.3508,2.4826,2.6982,2.8799,2.9877,3.1093,3.1436,3.0554,3.2188,3.3973,3.5644,3.9239,4.2058,4.3813,4.5547,4.677,4.7294,4.7309,4.7309,4.7309,4.7309,4.7309,4.7309,4.7309,4.7309,4.7309,4.7309,4.7309,4.7309,4.7309,4.7309,4.7309,4.7309,4.7309,4.7234,4.6576,4.5978,4.5394,4.4601,4.3389,4.2126,4.1602,4.0591,3.9439,3.8482,3.8003,3.733,3.4951,3.4262,0.0,0.0,0.0,0.0,0.0,0.0,0.0,0.0,2.8687,2.9753,3.0583,3.0271,2.9802,2.9653,3.012,3.0092,2.8753,2.9816,3.0407,2.9198,2.9043,2.8857,2.835,2.8594,2.8662,2.833,2.8291,2.8291,2.8291,2.8291,2.8291,2.8291,2.7969,2.8446,2.9849,2.939,3.0257,3.2677,3.2818,3.3331,3.4293,3.4577,3.3293,3.0657,3.0368,2.8541,2.5684,2.5367,2.4707,2.3887,2.3535,2.3247,2.3091,2.3091,2.3091,2.3091,2.3091,2.3091,2.3343,0.0,0.0,0.0,0.0,0.0,0.0,0.0,0.0,2.2163,2.3459,2.4885,2.5867,2.6018,2.7173,2.8077,2.8491,3.161,3.4741,3.7591,3.9726,4.24,4.5831,4.677,4.7234,4.7309,4.7309,4.7309,4.7309,4.7309,4.7309,4.7309,4.7309,4.7309,4.7309,4.7309,4.7309,4.7309,4.7309,4.7309,4.7309,4.7309,4.7309,4.7234,4.6576,4.6234,4.5995,4.4766,4.309,4.1512,4.1452,4.0891,4.0367,4.0801,4.0142,3.8901,3.7404,3.537,3.339,3.2329,3.0835,2.9416,2.8808,2.8712,2.9453,0.0,3.2089,3.229,3.3847,3.3062,3.1938,3.1353,3.0543,2.9878,2.9498,2.963,2.9715,2.9548,2.9502,2.9199,2.8389,2.833,2.834,2.8301,2.8291,2.8291,2.8291,2.8291,2.8291,2.8291,2.8252,2.8295,2.8548,2.9558,3.0095,2.9929,3.2231,3.3256,3.2932,3.4144,3.3912,3.2359,3.0854,2.9325,2.7755,2.6287,2.5118,2.4346,2.4297,2.3783,2.3091,2.3091,2.3091,2.3091,2.3091,2.3091,2.3144,0.0,0.0,0.0,0.0,0.0,0.0,0.0,0.0,0.0,2.218,2.3051,2.3855,2.4517,2.5336,2.6075,2.6639,3.0038,3.3318,3.6068,3.9678,4.293,4.5577,4.6741,4.7309,4.7309,4.7309,4.7309,4.7309,4.7309,4.7309,4.7309,4.7309,4.7309,4.7309,4.7309,4.7309,4.7309,4.7309,4.7309,4.7309,4.7309,4.7309,4.7145,4.5708,4.4691,4.3898,4.294,4.1267,0.0,3.9607,3.9387,3.9209,3.9995,3.9589,3.8497,3.6791,3.5115,3.3481,3.1986,3.0981,3.0325,3.0352,3.1097,3.2127,3.3294,3.3859,3.4155,3.4393,3.3733,3.318,3.3153,3.2394,3.1719,3.1676,3.1625,3.1263,3.014,2.9726,2.9303,2.8398,2.9006,2.9154,2.8398,2.8291,2.8291,2.8291,2.8291,2.8291,2.8291,2.8291,2.8291,2.8291,2.8847,2.9421,2.9983,3.1074,3.1928,3.2463,3.3058,3.246,3.0898,2.9927,2.8511,2.6669,2.5768,2.499,2.4394,2.415,2.3848,2.3516,2.3516,2.3662,2.3783,2.3276,2.3091,2.3178,0.0,0.0,0.0,0.0,0.0,0.0,0.0,0.0,0.0,0.0,2.1933,2.2447,2.3427,2.4167,2.4808,2.5335,2.8231,3.1343,3.4435,3.8668,4.2169,4.462,4.6217,4.704,4.704,4.7219,4.7309,4.7309,4.7309,4.7309,4.7309,4.7309,4.7309,4.7309,4.7309,4.7309,4.7309,4.7309,4.7309,4.7309,4.7309,4.7085,4.6531,4.4526,4.2479,4.0642,4.0167,3.8488,3.6532,3.6447,3.6216,3.6115,3.7145,3.7331,3.6904,3.5261,3.3926,3.2709,3.1296,3.0999,3.1229,3.1726,3.3119,3.4424,3.4738,3.5542,3.6075,3.5756,3.4762,3.4112,3.4887,3.3846,3.2878,3.2878,3.2983,3.237,3.0315,2.9974,2.96,2.8724,2.9663,2.9888,2.8593,2.8707,2.8698,2.8344,2.8291,2.8291,2.8291,2.8291,2.8291,2.8291,2.8291,2.8751,2.9765,3.012,3.0773,3.1785,3.2543,3.1811,2.9814,2.8875,2.752,2.5889,2.5449,2.5,2.457,2.4268,2.4072,2.3965,2.3965,2.415,2.4336,2.3676,2.3452,2.3575,0.0,0.0,0.0,0.0,0.0,0.0,0.0,0.0,0.0,0.0,0.0,0.0,0.0,2.3351,2.4243,2.4763,2.642,2.9269,3.362,3.6277,3.935,4.318,4.5248,4.6309,4.6309,4.698,4.7309,4.7309,4.7309,4.7309,4.7309,4.7309,4.7309,4.7309,4.7309,4.7309,4.7309,4.7309,4.7309,4.7309,4.7309,4.6516,4.514,4.3204,3.998,3.6501,3.6472,3.4787,3.2442,3.1749,3.1092,3.076,3.2095,3.3311,3.4056,3.3227,3.1818,3.0483,3.0276,3.0817,3.1653,3.2784,3.4274,3.5721,3.6847,3.7525,3.8253,3.9307,3.6908,3.4944,3.6279,3.4257,3.2395,3.2274,3.2717,3.2256,2.9921,3.0265,3.0422,2.9568,3.0181,3.0193,2.8925,2.9691,2.9713,2.8398,2.8291,2.8291,2.8291,2.8291,2.8291,2.8291,2.8291,2.8291,2.8344,2.966,3.0317,3.0369,3.3055,3.2905,3.0213,2.8033,2.6828,2.6348,2.5908,2.5459,2.5096,2.5086,2.4775,2.4394,2.4394,2.4404,2.4414,2.4385,2.4375,2.4375,0.0,0.0,0.0,0.0,0.0,0.0,0.0,0.0,0.0,0.0,0.0,0.0,0.0,0.0,0.0,0.0,2.6251,2.8469,3.1585,3.4582,3.7035,3.8842,4.1065,4.2238,4.2238,4.3572,4.444,4.485,4.5609,4.5963,4.5978,4.6441,4.6651,4.6681,4.7115,4.7309,4.7279,4.6845,4.6651,4.6531,4.5229,4.4065,4.2746,4.0085,3.7007,3.3768,0.0,3.0097,2.8939,2.9195,2.8787,2.8438,2.9859,3.0518,3.0752,3.062,3.0826,3.1195,3.1448,3.2288,3.3495,3.5341,3.6496,3.7475,3.8592,3.8994,3.8852,3.7929,3.6212,3.4662,3.3986,3.2137,3.0912,3.1409,3.1293,3.092,3.0133,3.0238,2.9879,2.8473,2.9568,2.9589,2.7442,2.9236,2.9833,2.8062,2.8888,2.9265,2.8746,2.8984,2.9014,2.8721,2.8711,2.8574,2.8291,2.8751,2.9408,3.0317,3.1235,3.0453,2.8073,2.7343,2.6787,2.6367,2.5879,2.5606,2.5488,2.5195,2.5028,2.4844,2.4844,2.5029,2.5245,2.5245,2.5245,2.5157,0.0,0.0,0.0,0.0,0.0,0.0,0.0,0.0,0.0,0.0,0.0,0.0,0.0,0.0,0.0,0.0,0.0,2.7538,2.9851,3.2395,3.4319,3.5306,3.7679,3.895,3.895,4.022,4.1095,4.1481,4.2247,4.2576,4.2606,4.357,4.406,4.409,4.5105,4.5347,4.4966,4.4536,4.4044,4.3399,4.1935,4.0448,3.8845,3.6422,3.3758,0.0,2.8178,2.6718,2.6126,2.6361,2.61,2.5861,2.7055,2.7902,2.8559,2.9086,3.0286,3.171,3.2786,3.3922,3.5265,3.7287,3.8203,3.8806,3.9521,3.9534,3.8915,3.7234,3.5613,3.4154,3.3181,3.1254,3.0045,3.0818,3.0346,2.9839,2.9724,2.9852,2.9613,2.8643,2.9641,2.9579,2.7452,2.9342,2.9865,2.7826,2.9258,2.9792,2.8951,2.9189,2.9277,2.915,2.9476,2.9257,2.8516,2.883,2.946,3.0317,2.9807,2.9103,2.8154,2.7511,2.71,2.6826,2.6387,2.6064,2.5947,2.5664,2.5449,2.5303,2.5303,2.5478,2.5693,2.5693,2.5693,2.5606,0.0,0.0,0.0,0.0,0.0,0.0,0.0,0.0,0.0,0.0,0.0,0.0,0.0,0.0,0.0,0.0,0.0,0.0,2.8441,2.9834,3.1163,3.2547,3.5002,3.6334,3.6334,3.7051,3.7426,3.7454,3.7534,3.7534,3.7587,3.9111,3.9768,3.9851,4.14,4.1563,4.0588,4.064,3.9767,3.8265,3.766,3.6017,3.381,3.245,3.041,2.7977,2.5975,2.4842,2.4176,2.3403,2.3183,2.3333,2.3979,2.5657,2.7629,2.875,3.0283,3.2084,3.4236,3.5655,3.6933,3.8554,3.9308,3.9685,3.9659,3.9195,3.8454,3.7299,3.5135,3.344,3.3563,3.1371,2.9722,3.0433,2.9791,2.9104,2.9016,2.9323,2.9693,2.9985,3.0378,3.0171,2.8917,2.9921,2.9891,2.7894,2.9351,2.9949,2.901,2.9004,2.9254,2.9757,3.0506,3.0304,2.9025,2.9876,3.0266,3.0162,2.9006,2.9039,3.012,2.8441,2.7718,2.7689,2.7207,2.6787,2.6416,2.6396,2.6133,2.5693,2.5693,2.5693,2.5693,2.5693,2.5693,2.5693,0.0,0.0,0.0,0.0,0.0,0.0,0.0,0.0,0.0,0.0,0.0,0.0,0.0,0.0,0.0,0.0,0.0,0.0,2.699,2.8135,2.8728,2.8731,3.0554,3.1552,3.1552,3.2941,3.3914,3.4334,3.5211,3.5591,3.5643,3.6541,3.6939,3.7005,3.7915,3.8147,3.787,3.7377,3.6711,3.5803,3.4186,3.2842,3.1662,3.0529,2.8937,2.7216,2.637,2.5309,2.4242,2.3903,2.4305,2.5134,2.6138,2.757,2.9207,3.0882,3.2727,3.4551,3.613,3.7374,3.8479,3.927,3.9584,3.9584,3.9182,3.8316,3.7186,3.5667,3.352,3.1434,2.9888,2.8757,2.8206,2.8487,2.8778,2.9183,2.9792,3.0253,3.0221,2.9327,2.9631,2.9484,2.8525,2.9611,2.9901,2.8672,2.9888,3.0447,2.988,3.0205,3.0777,3.1674,3.0535,3.0142,3.0541,3.0391,2.9817,2.8804,2.946,2.9287,2.8326,2.7914,2.7718,2.7689,2.7207,2.6953,2.6836,2.6514,2.6133,2.5693,2.5693,2.5693,2.5693,2.5693,2.5693,2.5693,0.0,0.0,0.0,0.0,0.0,0.0,0.0,0.0,0.0,0.0,0.0,0.0,0.0,0.0,0.0,0.0,0.0,0.0,0.0,2.654,2.6866,2.6553,2.7695,2.8436,2.8687,2.9402,3.0053,3.0615,3.1026,3.1218,3.1231,3.2245,3.275,3.2799,3.3879,3.4238,3.4026,3.3683,3.2804,0.0,0.0,2.9452,2.8366,2.8096,2.7498,2.6708,2.6161,2.5708,2.535,2.5439,2.6,2.6942,2.831,2.9808,3.1356,3.3122,3.4794,3.6422,3.7886,3.8743,3.9371,3.9923,3.9697,3.9057,3.8052,3.691,3.5491,3.3357,3.1738,3.0173,2.8411,2.7203,2.6721,2.7572,2.7418,2.7793,2.9404,2.9863,2.9893,2.9521,2.9531,2.943,2.8906,3.0148,3.0537,2.9554,3.0347,3.0673,3.0203,3.0449,3.095,3.1716,3.1101,3.0819,3.1063,3.0124,2.924,2.8291,2.9059,2.8928,2.7939,2.7939,2.7939,2.793,2.7685,2.7471,2.7266,2.6836,2.6406,2.6006,2.5762,2.581,2.5996,2.5762,2.581,2.6025,0.0,0.0,0.0,0.0,0.0,0.0,0.0,0.0,0.0,0.0,0.0,0.0,0.0,0.0,0.0,0.0,0.0,0.0,0.0,0.0,0.0,2.5598,2.6109,2.6637,2.719,2.6663,2.6612,2.7055,2.6549,2.6273,2.6285,2.7569,2.8223,2.8349,2.9739,3.0187,2.9876,2.9944,2.8844,2.7075,2.7284,2.653,2.5316,0.0,0.0,2.6537,2.5701,2.5918,2.6674,2.7221,2.7908,2.8837,3.052,3.2139,3.3746,3.5433,3.6659,3.7776,3.9459,3.986,3.9923,4.0388,3.9572,3.8278,3.6669,3.5228,3.3545,3.0894,2.9892,2.9139,2.8084,2.6477,2.5853,2.7618,0.0,2.6419,2.8913,2.9153,2.9365,3.0107,2.9932,2.9746,2.9746,3.0872,3.1236,3.0368,3.0675,3.0727,3.0301,3.0293,3.0449,3.0791,3.1717,3.1769,3.0712,2.9495,2.8711,2.8291,2.8291,2.8291,2.8291,2.8291,2.8291,2.8291,2.8291,2.8057,2.7689,2.7256,2.6816,2.6357,2.5977,2.6055,2.6338,2.5967,2.6094,2.6475,0.0,0.0,0.0,0.0,0.0,0.0,0.0,0.0,0.0,0.0,2.3684,2.3108,0.0,0.0,0.0,0.0,0.0,0.0,0.0,0.0,0.0,0.0,2.5686,2.6013,2.6625,2.6072,2.5787,2.5887,2.536,2.5109,2.5109,2.536,2.5724,2.6143,2.6432,2.6803,2.7192,2.7179,2.6696,2.5904,2.6109,2.6115,2.6039,2.634,0.0,0.0,2.5892,2.5677,2.6235,0.0,2.9239,3.111,3.2805,3.4161,3.5483,3.7676,3.8429,3.8944,4.0601,4.0727,4.0388,4.0488,3.8981,3.7161,3.5922,3.3759,3.1449,2.9565,2.8423,2.7555,2.6901,2.6746,2.7352,2.9276,2.8758,2.8786,3.082,3.0444,3.0029,0.0,3.0469,3.0664,3.0664,3.0531,3.0549,3.0732,3.0502,3.048,3.0742,3.0771,3.0635,3.0322,3.1656,3.134,2.9288,2.9025,2.8711,2.8291,2.8291,2.8291,2.8291,2.8291,2.8291,2.8291,2.8291,2.8057,2.7708,2.764,2.709,2.6387,2.6309,2.6328,2.6377,2.6309,2.6543,2.6904,0.0,0.0,0.0,0.0,0.0,0.0,0.0,2.3201,2.395,2.6129,2.551,2.4644,2.4048,2.3459,2.3321,0.0,0.0,0.0,0.0,0.0,0.0,0.0,0.0,0.0,2.6181,2.6007,2.5675,2.5197,0.0,2.4886,2.4775,2.4519,2.482,2.5586,2.531,2.5661,2.6521,2.6939,2.6793,2.6343,2.6901,2.7234,0.0,0.0,0.0,0.0,0.0,0.0,2.6675,2.7867,2.9466,3.1424,3.396,3.5658,3.7098,3.8467,3.9283,3.9961,4.0987,4.11,4.094,4.094,3.9044,3.6802,3.5232,3.2972,3.056,2.8309,2.7674,2.7203,2.6215,2.6202,2.6877,2.8515,2.8155,2.828,3.013,3.0186,3.0043,3.0174,3.0605,3.0889,3.0889,3.1394,3.1459,3.0927,3.1394,3.1469,3.0937,3.0889,3.0791,3.0566,3.1034,3.0594,2.9268,2.9033,2.8711,2.8291,2.8291,2.8291,2.8291,2.8291,2.8291,2.8291,2.8291,2.8174,2.7978,2.7806,2.7474,2.7031,2.6807,2.6855,2.7031,2.6797,2.6982,2.7353,0.0,0.0,0.0,0.0,0.0,0.0,0.0,2.4381,2.5084,2.7602,2.6977,2.6034,2.5259,2.4136,2.3421,0.0,0.0,0.0,0.0,0.0,0.0,0.0,0.0,0.0,0.0,0.0,0.0,2.4855,2.4905,0.0,0.0,0.0,0.0,0.0,2.5275,2.5741,2.6848,2.7486,2.7501,0.0,0.0,2.8124,0.0,0.0,0.0,0.0,0.0,0.0,2.7191,2.8017,2.9197,3.0892,3.3849,3.6096,3.7813,3.8577,3.9612,4.0664,4.1329,4.1376,4.1263,4.1137,3.8894,3.6214,3.4539,3.2202,2.9806,2.7575,2.7226,2.7,2.6034,2.5824,2.6306,2.7874,2.7552,2.7712,2.9388,2.9725,2.9876,3.0025,3.0547,0.0,3.0889,3.193,3.2254,3.1441,3.2426,3.2483,3.1005,3.0889,3.0889,3.0889,3.0439,3.016,3.0052,2.9296,2.8864,2.8751,2.8441,2.8291,2.8291,2.8291,2.8291,2.8291,2.8291,2.8291,2.8271,2.7939,2.7796,2.7679,2.7285,2.7363,2.7679,2.7285,2.7432,2.7855,0.0,0.0,0.0,0.0,0.0,0.0,0.0,2.4456,2.5544,2.7801,2.6684,2.5837,2.6298,2.5322,2.4469,0.0,0.0,0.0,0.0,0.0,0.0,0.0,0.0,0.0,0.0,0.0,0.0,2.5078,2.459,0.0,0.0,0.0,0.0,0.0,0.0,2.6694,2.7878,2.794,0.0,0.0,0.0,0.0,0.0,0.0,0.0,0.0,0.0,2.6847,2.7328,2.7726,2.8633,2.995,3.1811,3.4311,3.6799,3.8153,3.947,4.0752,4.1794,4.1718,4.1163,4.0714,3.7751,3.4698,3.3786,3.1011,2.8496,2.8007,2.6925,2.6177,2.6523,2.6514,2.7137,2.9274,2.8948,2.8922,3.0345,3.0168,2.9807,2.9679,0.0,0.0,3.0889,3.0995,3.1604,3.2804,3.3021,3.2483,3.1005,3.0889,3.0889,3.0889,3.0439,3.0591,3.1431,2.9759,2.9329,3.012,2.89,2.8291,2.8291,2.8291,2.8291,2.8291,2.8291,2.8291,2.8291,2.8252,2.8008,2.7718,2.7679,2.7679,2.7708,2.7669,2.7871,2.8232,0.0,0.0,0.0,0.0,0.0,0.0,2.472,2.4883,2.5798,2.8592,2.7592,2.7161,2.8512,2.6646,2.4795,2.3547,0.0,0.0,0.0,0.0,0.0,0.0,0.0,0.0,0.0,0.0,2.5973,2.3906,2.4616,0.0,0.0,0.0,0.0,0.0,0.0,2.6835,2.8016,2.8138,0.0,0.0,0.0,0.0,0.0,0.0,0.0,0.0,0.0,0.0,2.6877,2.7357,2.7718,2.8226,2.9429,3.1439,3.383,3.6261,3.7945,3.932,4.0777,4.1492,4.1618,4.0739,3.76,3.4527,3.3847,3.1066,2.8447,2.7847,2.7169,2.66,2.6271,2.6083,2.638,2.7614,2.7263,0.0,2.8701,2.8702,2.882,2.9682,3.0342,3.079,3.0869,3.0889,3.116,3.171,3.1767,3.1488,3.0947,3.0889,3.0889,3.0889,3.0195,3.0564,3.2046,2.9748,2.9307,3.0779,2.9073,2.8291,2.8291,2.8291,2.8291,2.8291,2.8291,2.8291,2.8291,2.8291,2.8193,2.8047,2.8047,2.8047,2.8047,2.8047,2.8144,2.8291,0.0,0.0,0.0,0.0,0.0,2.3188,2.5071,2.5059,2.5704,2.8265,2.7743,2.772,2.9285,2.7258,2.5399,2.4412,2.4331,0.0,0.0,0.0,0.0,0.0,0.0,0.0,0.0,0.0,2.6397,2.4121,2.5396,2.5953,0.0,0.0,2.6468,2.785,0.0,0.0,0.0,0.0,0.0,0.0,0.0,0.0,0.0,0.0,0.0,0.0,0.0,0.0,0.0,0.0,0.0,2.7329,2.8121,0.0,0.0,3.3767,3.6043,3.7929,3.917,4.0463,4.126,4.0438,3.7505,3.468,3.393,3.1232,2.8671,2.7972,2.7215,2.6534,2.6072,2.5665,2.5512,0.0,0.0,2.6263,2.7348,2.7426,2.7977,2.9656,0.0,3.0018,3.0744,3.1269,3.1546,3.1546,3.1546,3.172,3.216,3.1777,3.1546,3.1546,3.0797,3.1464,3.3661,3.104,3.0432,3.1676,2.9913,2.8827,2.8301,2.8418,2.8408,2.8291,2.8291,2.8291,2.8291,2.8291,2.8291,2.8291,2.8291,2.8291,2.8291,2.8291,2.8291,2.8291,0.0,0.0,0.0,0.0,0.0,0.0,2.4625,2.4788,2.5222,2.6361,2.6626,2.7012,2.7834,2.6888,2.6472,2.7201,2.5441,0.0,0.0,0.0,0.0,0.0,0.0,0.0,0.0,0.0,2.7229,2.6443,2.7157,2.7506,2.7564,2.676,2.6814,2.7594,0.0,0.0,0.0,0.0,0.0,0.0,0.0,0.0,0.0,0.0,0.0,0.0,0.0,0.0,0.0,0.0,0.0,0.0,0.0,0.0,0.0,0.0,3.3927,3.6878,3.7137,3.8442,3.974,3.965,3.7383,3.4934,3.3937,3.1308,2.9002,2.8661,2.6903,2.5577,2.6113,2.5424,2.4843,2.5003,2.5859,0.0,2.704,2.6904,2.7433,0.0,2.851,2.8473,3.0446,3.2114,3.3077,3.3077,3.3077,3.3687,3.5189,3.3856,3.3077,3.3077,3.2616,3.377,3.6628,3.4303,3.3144,3.3155,3.1686,3.0048,2.8301,2.8721,2.8682,2.8291,2.8291,2.8291,2.8291,2.8291,2.8291,2.8291,2.8291,2.8291,2.8291,2.8291,2.8291,2.8291,0.0,0.0,0.0,0.0,0.0,0.0,0.0,2.5456,2.5276,2.5517,2.5608,2.5982,2.6786,2.5654,2.5536,2.7285,2.5966,0.0,0.0,0.0,0.0,0.0,0.0,0.0,0.0,0.0,2.7776,2.7059,2.7754,2.7914,2.7535,2.7781,2.8021,2.8263,2.7787,2.7962,0.0,0.0,0.0,0.0,0.0,0.0,2.76,0.0,0.0,0.0,0.0,0.0,0.0,0.0,0.0,0.0,0.0,0.0,0.0,2.8552,3.088,3.3703,3.4887,3.5487,3.5759,3.5929,3.4125,3.2213,3.1794,3.0068,2.8296,2.7355,2.6223,2.5423,2.5445,2.4774,2.4521,2.5278,2.5703,0.0,0.0,0.0,0.0,3.0259,3.102,3.1626,3.2239,3.1905,3.1988,3.3021,3.215,3.2264,3.3744,3.335,3.3575,3.457,3.4153,3.4964,3.7215,3.3919,3.2865,3.4131,3.1046,2.9263,2.8711,2.8564,2.8418,2.8291,2.8291,2.8291,2.8291,2.8291,2.8291,2.8291,2.8291,2.8291,2.8291,2.8291,2.8291,2.8291,0.0,0.0,0.0,0.0,0.0,0.0,0.0,2.508,2.4902,2.4505,2.4723,2.542,2.6694,2.5788,2.5979,2.8102,2.7027,0.0,0.0,0.0,0.0,0.0,0.0,0.0,2.7556,2.8144,2.8231,2.7797,2.8723,2.8889,2.8303,2.9003,2.9056,2.8577,2.8143,2.8079,0.0,0.0,0.0,0.0,0.0,0.0,2.76,0.0,0.0,0.0,0.0,0.0,0.0,0.0,0.0,0.0,0.0,0.0,0.0,0.0,2.9083,3.0796,3.2041,3.2662,3.3039,3.3502,3.2208,3.0788,3.0716,2.9522,2.8039,2.678,2.5906,2.5298,2.4872,2.4381,2.4174,2.4636,2.5228,2.5833,2.6432,2.701,2.7891,2.9479,3.1655,3.2685,3.1881,3.1728,3.1872,3.2254,3.1441,3.1777,3.38,3.3901,3.4847,3.6888,3.6133,3.6455,3.7992,3.5138,3.3879,3.4364,3.1373,2.9466,2.8682,2.8574,2.8437,2.8291,2.8291,2.8291,0.0,2.8291,2.8291,2.8291,2.8291,2.8291,2.8291,2.8291,2.8398,2.8535,0.0,0.0,0.0,0.0,0.0,0.0,0.0,2.4083,2.4221,2.351,2.4049,2.5171,2.6967,2.6695,2.7195,2.9157,0.0,0.0,0.0,0.0,0.0,0.0,0.0,0.0,2.766,2.8323,2.8697,2.8742,2.9968,3.0283,2.9756,3.0253,2.9849,2.8667,2.8622,2.8244,2.76,2.76,2.76,2.76,2.76,2.76,0.0,0.0,0.0,0.0,0.0,0.0,0.0,0.0,0.0,0.0,0.0,0.0,0.0,0.0,0.0,0.0,0.0,3.0043,3.1278,3.2001,3.1254,3.0341,3.0364,2.946,0.0,2.672,2.5864,2.5175,2.4456,2.4158,2.3908,2.3616,2.4779,2.5919,2.6453,2.6828,2.7287,2.8046,3.0998,3.2188,3.0107,3.1733,3.2426,3.117,3.1054,3.2322,3.5134,3.5364,3.6699,3.9469,3.8238,3.7979,3.8931,3.7467,3.5794,3.4001,3.2352,3.0414,2.835,2.8711,2.8662,2.8291,2.8291,2.8291,2.8291,2.8291,2.8291,2.8291,2.8291,2.8291,2.8291,2.8291,2.8555,2.8916,0.0,0.0,0.0,0.0,0.0,0.0,0.0,0.0,0.0,0.0,2.4183,2.4385,2.3889,2.4115,2.4911,0.0,0.0,0.0,0.0,0.0,0.0,0.0,0.0,0.0,2.8353,2.9011,2.9579,3.0058,3.0853,3.1182,3.1032,3.0687,3.0088,2.9352,2.8831,2.8244,2.76,2.76,2.76,2.76,2.76,2.76,0.0,0.0,0.0,0.0,2.76,2.76,0.0,0.0,0.0,0.0,0.0,0.0,0.0,0.0,2.7709,2.7481,2.7216,0.0,2.8224,2.9071,2.9061,2.8841,0.0,2.8816,2.8042,2.6087,2.5508,2.5264,2.4774,2.4318,2.453,2.6114,2.6652,2.6663,2.5931,2.8397,3.0785,3.2189,3.3741,3.4336,3.3367,3.2143,3.171,3.253,3.2587,3.336,3.5178,3.5956,3.7004,3.8367,3.8079,3.8427,3.9496,3.7648,3.5929,3.4412,3.2191,3.0271,2.876,2.8545,2.8389,2.8291,2.8291,2.8291,2.8291,2.8291,2.8291,2.8291,2.8291,2.8291,2.8291,2.8291,2.8555,2.8916,0.0,0.0,0.0,0.0,0.0,0.0,0.0,0.0,0.0,0.0,0.0,0.0,0.0,0.0,0.0,0.0,0.0,0.0,0.0,0.0,0.0,0.0,0.0,2.7914,2.8592,2.925,2.9906,3.0507,3.1167,3.1511,3.1496,3.146,3.0928,2.997,2.8997,2.8358,2.7993,2.771,2.76,2.76,2.76,0.0,0.0,0.0,0.0,0.0,2.76,2.76,0.0,2.8034,2.7899,2.766,0.0,0.0,0.0,0.0,2.7517,2.7381,2.707,2.7058,2.7228,2.7783,2.7922,2.8045,2.8509,0.0,2.7724,2.6206,2.5646,2.5321,2.4991,2.4614,2.4933,2.6663,2.7331,2.7729,2.7995,3.0075,3.2073,3.3541,3.4173,3.4347,3.3878,3.2659,3.2264,3.3021,3.2473,3.3031,3.5189,3.5508,3.6173,3.7386,3.7767,3.8178,3.8542,3.6462,3.4893,3.393,3.1305,2.9547,2.8623,2.8398,2.8291,2.8291,2.8291,2.8291,2.8291,2.8291,2.8291,2.8291,2.8291,2.8291,2.8291,2.8291,2.8682,2.9219,0.0,0.0,0.0,0.0,0.0,0.0,0.0,0.0,0.0,0.0,0.0,0.0,0.0,0.0,0.0,0.0,0.0,0.0,0.0,0.0,0.0,0.0,2.7645,2.7914,2.8592,2.925,2.9906,3.0507,3.1271,3.1763,3.1998,3.2499,3.2004,3.0606,2.9237,2.8654,2.8606,2.8076,2.787,2.787,2.787,0.0,0.0,0.0,0.0,0.0,0.0,0.0,0.0,2.76,2.76,2.76,2.76,0.0,0.0,0.0,0.0,0.0,2.772,2.7726,2.7651,2.7394,2.7429,2.765,2.8154,2.7824,2.7255,2.6642,2.5976,2.5516,2.5491,2.5262,2.546,2.6675,2.7649,2.9059,3.1415,3.1804,3.2375,3.3892,3.3766,3.3323,3.2906,3.2993,3.3046,3.2972,3.2048,3.2664,3.534,3.4885,3.5205,3.6713,3.7406,3.7525,3.7061,3.5059,3.3756,3.3155,3.0415,2.8849,2.8291,2.8291,2.8291,2.8291,2.8291,2.8291,2.8291,2.8291,2.8291,2.8291,2.8291,2.8291,2.8291,2.8291,2.8789,2.9473,0.0,0.0,0.0,0.0,0.0,0.0,0.0,0.0,0.0,0.0,0.0,0.0,0.0,0.0,0.0,0.0,0.0,0.0,0.0,0.0,0.0,2.8412,2.7899,2.7914,2.8592,2.925,2.9906,3.0507,3.1749,3.2987,3.4207,3.3645,3.2649,3.1302,2.9892,2.9248,2.9248,2.9157,2.9134,2.9134,2.9134,0.0,0.0,0.0,0.0,0.0,0.0,0.0,0.0,2.76,2.76,2.76,2.76,0.0,0.0,0.0,0.0,0.0,2.8278,2.9193,2.9466,2.7207,2.7084,2.7398,2.6944,2.6741,2.6642,2.6537,2.6286,2.6317,2.7082,2.6686,2.6751,2.8298,2.8655,3.0373,3.4935,3.3729,3.3334,3.5933,3.4415,3.2828,3.191,3.2616,3.2966,3.2511,3.3463,3.4769,3.6379,3.5565,3.5723,3.7071,3.6801,3.6619,3.6531,3.5487,3.4388,3.3144,3.1071,2.9469,2.8291,2.8291,2.8291,2.8291,2.8291,2.8291,2.8291,2.8291,2.8291,2.8291,2.8291,2.8291,2.8291,2.8291,2.8603,2.9023,0.0,0.0,0.0,0.0,0.0,0.0,0.0,0.0,0.0,0.0,0.0,0.0,0.0,0.0,0.0,0.0,0.0,0.0,0.0,0.0,2.8238,2.8588,2.8293,2.8607,2.9609,3.0298,3.0956,3.1584,3.2572,3.3394,3.404,3.3266,3.2547,3.1874,3.0495,2.9908,2.9848,2.954,2.9406,2.9406,0.0,0.0,0.0,0.0,0.0,0.0,0.0,0.0,0.0,0.0,2.76,2.76,2.76,0.0,0.0,0.0,0.0,0.0,2.7989,2.8742,2.9163,2.7853,2.8266,2.8713,2.7582,2.7031,2.6834,2.7142,2.6818,2.6796,2.7834,2.8177,2.89,3.0846,3.1397,3.2494,3.5132,3.444,3.4631,3.7103,3.5439,3.4277,3.4775,3.4472,3.4417,3.4679,3.4592,3.5013,3.6133,3.55,3.5384,3.6002,3.6239,3.6405,3.6405,3.5296,3.4471,3.3823,3.1446,2.9964,2.9355,2.8644,2.8291,2.8291,2.8291,2.8291,2.8291,2.8291,2.8291,2.8291,2.8291,2.8291,2.832,2.8545,2.875,2.8916,0.0,0.0,0.0,0.0,0.0,0.0,0.0,0.0,0.0,0.0,0.0,0.0,0.0,0.0,0.0,0.0,0.0,0.0,0.0,2.8319,2.8593,2.8807,2.882,2.943,3.0717,3.1241,3.1899,3.2736,3.341,3.3742,3.3696,3.2999,3.2541,3.2239,3.1053,3.0497,3.0477,3.0016,2.9827,2.9827,0.0,0.0,0.0,0.0,0.0,0.0,0.0,0.0,0.0,0.0,0.0,0.0,0.0,0.0,0.0,2.76,2.76,2.763,2.7794,2.8189,2.8518,2.8407,2.9016,2.9516,2.8937,2.7956,2.7501,2.8536,2.797,2.7597,2.8577,2.9525,3.0809,3.2797,3.3646,3.4374,3.5177,3.4712,3.5167,3.7444,3.5741,3.5016,3.6679,3.6098,3.5891,3.6486,3.5317,3.5034,3.6069,3.5303,3.5006,3.5315,3.6033,3.6405,3.6405,3.5367,3.4727,3.4385,3.1582,3.0317,3.0266,2.89,2.8291,2.8291,2.8291,2.8291,2.8291,2.8291,2.8291,2.8291,2.8291,2.8291,2.833,2.8652,2.8769,2.8769,0.0,0.0,0.0,0.0,0.0,0.0,0.0,0.0,0.0,0.0,0.0,0.0,0.0,0.0,0.0,0.0,0.0,0.0,0.0,2.8779,2.8773,2.9404,2.9489,3.0118,3.1406,3.1481,3.2123,3.3425,3.4114,3.4407,3.4319,3.3706,3.3007,3.2276,3.1472,3.1151,3.1131,3.1075,3.1055,3.1055,3.1055,0.0,0.0,0.0,0.0,0.0,0.0,0.0,0.0,0.0,0.0,0.0,0.0,0.0,2.76,2.76,2.76,2.7735,2.8353,2.8481,2.8409,2.8339,2.8008,2.8309,3.0648,2.938,2.8491,3.1059,3.0235,2.9183,2.9761,3.0663,3.1662,3.288,3.3972,3.5215,3.6784,3.4757,3.4039,3.6502,3.4287,3.3181,3.4636,3.5887,3.6474,3.6093,3.5503,3.5728,3.7042,3.5417,3.503,3.6266,3.6383,3.6405,3.6405,3.631,3.5619,3.4385,3.1582,3.0317,3.0266,2.89,2.8291,2.8291,2.8291,2.8291,2.8291,2.8291,2.8291,2.8291,2.8291,2.8291,2.8301,2.833,2.834,2.834,0.0,0.0,0.0,0.0,0.0,0.0,0.0,0.0,0.0,0.0,0.0,0.0,0.0,0.0,0.0,0.0,0.0,0.0,0.0,2.9441,2.9761,3.1376,3.0608,3.1167,3.3322,3.296,3.32,3.4098,3.438,3.426,3.3751,3.2734,3.2053,3.1665,3.0954,3.0858,3.119,3.119,3.119,3.119,3.119,3.1055,0.0,0.0,0.0,0.0,0.0,0.0,0.0,0.0,2.76,2.76,2.76,2.76,2.76,2.76,2.76,2.766,2.7914,2.8542,2.9116,2.8958,2.903,2.9277,2.9882,2.9659,2.9629,3.0834,3.0826,3.0712,3.1285,3.1678,3.239,3.3859,3.4738,3.5646,3.6998,3.6027,3.5695,3.7341,3.6276,3.5734,3.6642,3.7211,3.7305,3.6801,3.6567,3.6378,3.6147,3.5474,3.5315,3.5809,3.5529,3.5504,3.5855,3.5516,3.5273,3.508,3.356,3.2855,3.2755,3.0525,2.9555,2.9513,2.8644,2.8291,2.8291,2.8291,2.8291,2.8291,2.8291,2.8291,2.8291,2.8291,2.8291,2.8291,0.0,0.0,0.0,0.0,0.0,0.0,0.0,0.0,0.0,0.0,0.0,0.0,0.0,0.0,0.0,0.0,0.0,0.0,3.0963,3.0427,3.0709,3.2175,3.1334,3.1801,3.3824,3.3623,3.3918,3.4833,3.4379,3.3819,3.3054,3.1981,3.1526,3.1599,3.1166,3.1194,3.1566,3.155,3.141,3.119,3.119,3.119,0.0,0.0,0.0,0.0,0.0,0.0,0.0,0.0,2.776,2.76,2.76,2.76,2.76,2.76,2.7309,2.7049,2.7475,2.7958,2.8382,2.8814,2.9337,2.9834,3.0183,3.0605,3.1211,3.2213,3.2149,3.1989,3.2177,3.2365,3.2918,3.4248,3.5215,3.6069,3.6822,3.625,3.6253,3.7589,3.7046,3.6935,3.7903,3.7852,3.7525,3.7008,3.6759,3.627,3.5295,3.5245,3.5245,3.5245,3.4868,3.4856,3.5232,3.4868,3.4868,3.5245,3.4742,3.4463,3.4337,3.1531,3.0514,3.0824,2.9049,2.8548,2.89,2.8441,2.8291,2.8291,2.8291,2.8291,2.8291,2.8291,2.8291,2.8291,0.0,0.0,0.0,0.0,0.0,0.0,0.0,0.0,0.0,0.0,0.0,0.0,0.0,0.0,0.0,0.0,0.0,0.0,3.2219,3.1762,3.1432,3.1518,3.1579,3.1876,3.2497,3.317,3.4173,3.5504,3.4158,3.3139,3.2422,3.1724,3.1727,3.231,3.2364,3.2354,3.2311,3.2291,3.1867,3.1207,3.119,3.119,3.119,0.0,0.0,0.0,0.0,0.0,0.0,0.0,2.8091,2.76,2.76,2.76,2.76,2.76,2.6665,2.5905,2.7229,2.6573,2.5939,2.7655,2.8561,2.9621,3.1964,3.2475,3.3207,3.5733,3.4568,3.2905,3.234,3.2692,3.3269,3.3822,3.5278,3.6405,3.6405,3.5271,3.5126,3.6953,3.6039,3.5936,3.7779,3.7487,3.6948,3.6443,3.5843,3.5257,3.4705,3.4668,3.4668,3.4668,3.4713,3.4713,3.4668,3.4713,3.4713,3.4668,3.4668,3.4573,3.4313,3.1582,3.1071,3.2168,2.946,2.9049,3.0214,2.8847,2.8291,2.8291,2.8291,2.8291,2.8291,2.8291,2.8291,2.8291,0.0,0.0,0.0,0.0,0.0,0.0,0.0,0.0,0.0,0.0,0.0,0.0,0.0,0.0,0.0,0.0,0.0,0.0,3.3117,3.2485,3.2366,3.296,3.1998,3.2237,3.3868,3.4573,3.51,3.5504,3.4622,3.4102,3.3849,3.2717,3.2242,3.2349,3.1893,3.195,3.2327,3.1824,3.175,3.1938,3.1413,3.119,3.119,0.0,0.0,0.0,0.0,0.0,0.0,0.0,0.0,0.0,2.76,2.76,2.76,2.76,2.7324,2.6988,2.6846,2.7184,2.7471,2.72,2.8872,3.0735,3.1559,3.1886,3.2566,3.4254,3.3819,3.3144,3.3357,3.3545,3.3834,3.4387,3.5215,3.5931,3.6355,3.6061,3.6028,3.6584,3.6297,3.6251,3.6835,3.6358,3.5922,3.5805,3.5232,3.468,3.4173,3.4148,3.4148,3.4148,3.3771,3.3759,3.4135,3.3759,3.3759,3.4148,3.4148,3.4287,3.4545,3.3193,3.2762,3.3029,3.0737,2.9911,3.0214,2.8847,2.8291,2.8291,2.8291,2.8291,2.8291,2.8291,2.8291,2.8291,0.0,0.0,0.0,0.0,0.0,0.0,0.0,0.0,0.0,0.0,0.0,0.0,0.0,0.0,0.0,0.0,0.0,0.0,0.0,3.332,3.3324,3.3556,3.2952,3.3213,3.4469,3.5143,3.5504,3.5504,3.4816,3.4369,3.4099,3.3275,3.302,3.3235,3.2813,3.2687,3.2777,3.2336,3.2092,3.1896,3.1433,3.1253,3.124,0.0,0.0,0.0,0.0,0.0,0.0,0.0,0.0,0.0,2.7675,2.76,2.754,2.7285,2.6804,2.6384,2.6409,2.6946,2.7513,2.765,2.9622,3.1575,3.1984,3.2928,3.3982,3.5012,3.4412,3.3897,3.4449,3.401,3.3822,3.46,3.4956,3.5282,3.5655,3.5705,3.5705,3.5705,3.5705,3.5705,3.5705,3.5416,3.5082,3.4868,3.4575,3.4161,3.3608,3.3357,3.3332,3.3558,3.2817,3.2667,3.3219,3.2893,3.2905,3.3232,3.347,3.3746,3.4041,3.346,3.3564,3.4183,3.1867,3.0144,2.8941,2.8328,2.8047,2.8057,2.8232,2.8291,2.8291,2.8291,2.8291,2.8291,0.0,0.0,0.0,0.0,0.0,0.0,0.0,0.0,0.0,0.0,3.3427,0.0,0.0,0.0,0.0,0.0,0.0,0.0,0.0,3.4224,3.4284,3.3516,3.4145,3.4514,3.4488,3.516,3.5504,3.5504,3.4876,3.4294,3.3679,3.3679,3.3963,3.4505,3.4438,3.4025,3.3403,3.334,3.2615,3.1486,3.1362,3.1276,3.121,3.121,0.0,0.0,0.0,0.0,0.0,0.0,0.0,0.0,2.7785,2.76,2.748,2.6881,2.5781,2.5001,2.6078,2.6279,2.6656,2.8673,3.0585,3.224,3.3068,3.4821,3.638,3.6797,3.578,3.4893,3.5345,3.4236,3.3558,3.4562,3.468,3.468,3.468,3.468,3.468,3.468,3.468,3.4655,3.465,3.46,3.4349,3.3796,3.3696,3.3458,3.2955,3.2428,3.2378,3.2948,3.1926,3.1625,3.2127,3.2139,3.2164,3.2227,3.2754,3.3006,3.3031,3.2862,3.3637,3.4932,3.263,2.9881,2.7041,2.7441,2.7679,2.7757,2.8086,2.8262,2.8291,2.8291,2.8291,2.8291,0.0,0.0,0.0,0.0,0.0,0.0,0.0,0.0,0.0,0.0,0.0,0.0,0.0,0.0,0.0,0.0,0.0,0.0,0.0,3.5037,3.4852,3.3575,3.4151,3.4495,3.4503,3.516,3.5504,3.5504,3.5355,3.522,3.507,3.507,3.4861,3.4474,3.3953,3.3633,3.3413,3.2326,3.2007,3.2196,3.1614,3.106,3.0638,3.1112,3.0658,0.0,0.0,0.0,0.0,0.0,0.0,0.0,2.7785,2.76,2.757,2.742,2.7159,2.6919,2.6876,2.684,2.7162,2.859,3.0923,3.311,3.413,3.4726,3.4989,3.4675,3.5014,3.5219,3.4919,3.4613,3.4449,3.4675,3.468,3.468,3.468,3.468,3.468,3.468,3.468,3.455,3.4123,3.3684,3.3194,3.2616,3.2177,3.1876,3.1763,3.1637,3.1625,3.175,3.1512,3.1449,3.1562,3.1574,3.1788,3.2215,3.234,3.2403,3.2441,3.3283,3.3001,3.1859,3.1284,2.9533,2.7021,2.7119,2.7363,2.7728,2.7816,2.7998,2.8291,2.8291,2.8291,2.8291,0.0,0.0,0.0,0.0,0.0,0.0,0.0,0.0,0.0,0.0,0.0,0.0,0.0,0.0,0.0,0.0,0.0,0.0,0.0,0.0,3.5275,3.4485,3.4797,3.4966,3.4966,3.5325,3.5504,3.5504,3.5504,3.5504,3.5504,3.5504,3.531,3.4951,3.4607,3.4089,3.3465,3.2736,3.2262,3.1982,3.1581,3.119,3.0919,3.1212,3.0757,2.9948,3.0588,0.0,0.0,0.0,0.0,0.0,0.0,0.0,2.754,2.7225,2.7119,2.6931,2.6315,2.6704,2.7728,2.9631,3.1599,3.3294,3.4135,3.4324,3.4248,3.396,3.4361,3.4675,3.4387,3.411,3.3935,3.3935,3.3696,3.352,3.352,3.3294,3.3119,3.3119,3.3119,3.3018,3.2729,3.2441,3.2152,3.1838,3.1549,3.1386,3.1386,3.116,3.1135,3.1386,3.0896,3.0746,3.1022,3.1022,3.116,3.1449,3.17,3.1951,3.224,3.3106,3.2312,3.0191,3.0474,2.8967,2.6416,2.6631,2.6973,2.7373,2.764,2.792,2.8291,2.8291,2.8291,2.8291,0.0,0.0,0.0,0.0,0.0,0.0,0.0,0.0,0.0,0.0,0.0,0.0,0.0,0.0,0.0,0.0,0.0,0.0,0.0,0.0,0.0,3.5705,3.5569,3.5504,3.5504,3.5504,3.5504,3.5504,3.5504,3.5504,3.5504,3.5504,3.5504,3.5504,3.5385,3.4651,3.3484,3.338,3.2632,3.1508,3.1436,3.1359,3.127,3.1366,3.0933,3.0283,3.0497,3.0154,2.9522,2.902,0.0,0.0,0.0,0.0,2.748,2.6941,2.6724,2.6539,2.5883,2.6825,2.8504,3.0465,3.1888,3.2905,3.337,3.347,3.347,3.347,3.3545,3.3608,3.3608,3.3156,3.2822,3.2822,3.239,3.2077,3.2077,3.1675,3.1386,3.1386,3.1386,3.1348,3.126,3.1248,3.1223,3.1122,3.111,3.111,3.111,3.0708,3.067,3.1097,3.0256,3.0018,3.047,3.047,3.052,3.062,3.1047,3.1537,3.2089,3.2466,3.1479,2.9429,2.9879,2.8391,2.5713,2.6133,2.6523,2.6943,2.7383,2.7812,2.8184,2.8184,2.8232,2.8281,0.0,0.0,0.0,0.0,0.0,0.0,0.0,0.0,0.0,0.0,3.5898,0.0,0.0,0.0,0.0,0.0,0.0,0.0,0.0,0.0,0.0,3.6477,3.5831,3.5504,3.5504,3.5504,3.5504,3.5504,3.5504,3.5504,3.5504,3.5504,3.5504,3.5474,3.4876,3.4203,3.3455,3.2886,3.2183,3.1496,3.1477,3.1129,3.0672,3.1197,3.0703,2.9826,3.0887,3.0874,3.0338,3.0252,2.9865,0.0,0.0,0.0,2.7585,2.748,2.7449,2.7491,2.768,2.867,2.9593,2.9328,3.0444,3.1637,3.1712,3.1725,3.1725,3.1725,3.2102,3.2441,3.2441,3.1989,3.1612,3.1612,3.1549,3.1499,3.1499,3.1436,3.1386,3.1386,3.1386,3.121,3.0758,3.0721,3.052,3.0043,3.0005,3.0005,3.0005,2.9942,2.993,3.0005,2.9867,2.9829,2.9905,2.9905,3.0143,3.062,3.0683,3.0997,3.1486,3.111,3.0356,2.9407,2.9474,2.8045,2.5693,2.5752,2.6074,2.6514,2.6934,2.7363,2.7806,2.7806,2.7978,2.8242,0.0,0.0,0.0,0.0,0.0,0.0,0.0,0.0,0.0,0.0,0.0,3.591,0.0,0.0,0.0,0.0,0.0,0.0,0.0,0.0,0.0,3.6008,3.5668,3.5504,3.5504,3.5504,3.5504,3.5504,3.5504,3.5504,3.5504,3.5504,3.5504,3.5489,3.519,3.4681,3.4054,3.3739,3.3021,3.2049,3.2049,3.1421,3.058,3.1205,3.0681,2.969,3.0582,3.0516,2.9989,2.9989,2.9792,2.9436,2.8801,0.0,0.0,0.0,2.76,2.7573,2.7499,2.7575,2.7762,2.7938,2.9013,3.0093,3.0419,3.0733,3.1035,3.1336,3.111,3.0947,3.126,3.1361,3.1298,3.0997,3.0959,3.0959,3.0959,3.0683,3.0495,3.0495,3.0495,3.0407,3.0181,3.0156,3.0055,2.9817,2.9792,2.9792,2.9792,2.9792,2.9792,2.9792,2.9792,2.9792,2.9792,2.9792,2.9917,3.0156,3.047,3.0733,3.0959,3.1022,3.0492,2.9473,2.8844,2.7707,2.6226,2.5591,2.5771,2.6406,2.6592,2.708,2.7689,2.7393,2.7578,2.792,0.0,0.0,0.0,0.0,0.0,0.0,0.0,0.0,0.0,0.0,0.0,0.0,0.0,0.0,0.0,0.0,0.0,0.0,0.0,0.0,0.0,3.5539,3.5504,3.5504,3.5504,3.5504,3.5504,3.5504,3.5504,3.5504,3.5504,3.5504,3.5504,3.5504,3.5504,3.5115,3.4503,3.4503,3.3814,3.2736,3.2363,3.163,3.0763,3.0943,3.0522,2.9879,3.0342,3.0313,3.0073,3.0073,2.9968,2.9729,2.9235,2.8861,0.0,0.0,0.0,2.7498,2.7004,2.6625,2.6456,2.6836,2.7725,2.8624,2.9051,2.9578,3.0131,3.0658,3.0244,2.9917,3.0331,3.0721,3.0859,3.047,3.0407,3.0407,3.0407,3.0055,2.9792,2.9792,2.9792,2.9792,2.9792,2.9792,2.9792,2.9792,2.9792,2.9792,2.9792,2.9792,2.9792,2.9792,2.9792,2.9792,2.9792,2.9792,2.9792,2.9792,3.0218,3.0407,3.0419,3.0809,3.0514,2.9599,2.8869,2.7833,2.6655,2.6007,2.5953,2.623,2.6348,2.6777,2.7356,2.6973,2.7129,2.748,0.0,0.0,0.0,0.0,0.0,0.0,0.0,0.0,0.0,0.0,0.0,0.0,3.6711,3.6795,3.7388,3.8802,0.0,0.0,0.0,0.0,0.0,3.5539,3.5504,0.0,3.5504,3.5504,3.5504,3.5504,3.5504,3.5504,3.5504,3.5504,3.5504,3.5504,3.5504,3.5115,3.4503,3.4503,3.4099,3.3335,3.2049,3.1511,3.1316,3.0148,2.9998,3.0462,3.0492,3.0883,3.1406,3.1406,3.0972,3.0447,3.0417,2.9579,2.8592,0.0,0.0,0.0,2.6715,2.71,2.7424,2.6268,2.6673,2.7369,2.7406,2.7833,2.8398,2.89,2.9453,2.9804,2.9829,2.9854,2.9867,2.9842,2.9829,2.9829,2.9829,2.9817,2.9792,2.9792,2.9792,2.9792,2.9792,2.9792,2.9792,2.9792,2.9792,2.9792,2.9792,2.9792,2.9792,2.9792,2.9792,2.9792,2.9792,2.9792,2.9792,2.9792,2.9829,2.9829,2.9829,2.9867,2.9828,2.9799,3.011,2.8901,2.6722,2.7275,2.6802,2.5762,2.623,2.6416,2.6455,2.6426,2.6689,2.6992,0.0,0.0,0.0,0.0,0.0,0.0,0.0,0.0,0.0,0.0,0.0,0.0,0.0,3.8217,3.8623,3.9622,3.9022,0.0,0.0,0.0,0.0,3.6228,3.575,3.5504,3.5504,3.5504,3.5504,3.5504,3.5504,3.5504,3.5504,3.5504,3.5504,3.5504,3.5504,3.537,3.513,3.513,3.4741,3.4038,3.3155,3.2258,3.1451,3.0987,3.0702,3.0567,3.0972,3.157,3.2123,3.2123,3.1974,3.1719,3.1271,3.0524,2.9654,2.8846,2.8427,2.7999,2.6811,2.6741,2.682,2.6237,2.6241,2.6472,2.6847,2.7274,2.7632,2.7833,2.8323,2.8712,2.8712,2.9302,2.9792,2.9792,2.9792,2.9666,2.9289,2.9239,2.9101,2.875,2.9026,2.9239,2.9239,2.9578,2.9792,2.9792,2.9792,2.9792,2.9792,2.9792,2.9792,2.9792,2.9792,2.9792,2.9792,2.9792,2.9792,2.9792,2.9792,2.9792,2.9792,2.9792,2.9792,2.9842,3.0316,2.9334,2.729,2.6512,2.6017,2.5674,2.5596,2.5889,2.6357,2.6074,2.624,2.6631,0.0,0.0,0.0,0.0,0.0,0.0,0.0,0.0,0.0,3.6795,0.0,0.0,0.0,0.0,3.8819,3.9334,3.8908,3.8389,3.7818,3.6864,3.6407,3.6584,3.5894,3.5504,3.5504,3.5504,3.5504,3.5504,3.5504,3.5504,3.5504,3.5504,3.5504,3.5504,3.5504,3.5504,3.5504,3.5504,3.5235,3.4726,3.3619,3.2781,3.2093,3.1421,3.1152,3.121,3.1421,3.1929,3.2482,3.2228,3.2153,3.2079,3.1645,3.1032,3.0298,0.0,0.0,0.0,2.7477,2.6987,2.6694,2.6371,2.5968,2.5735,2.6085,2.6314,2.6502,2.6678,2.7155,2.7557,2.7557,2.8172,2.8787,2.9164,2.9227,2.9089,2.8675,2.8612,2.8511,2.8147,2.8423,2.8612,2.8612,2.9001,2.9227,2.9227,2.9402,2.9503,2.9503,2.9691,2.9792,2.9792,2.9792,2.9792,2.9792,2.9792,2.9792,2.9792,2.9792,2.9792,2.9792,2.9792,2.9792,2.9817,3.0181,2.9484,2.7949,2.6737,2.6062,2.5787,2.5269,2.543,2.5928,2.5791,2.5918,2.6211,0.0,0.0,0.0,0.0,0.0,0.0,0.0,0.0,3.6863,3.6863,0.0,0.0,0.0,0.0,0.0,3.7949,3.7843,3.7817,3.7807,3.6368,3.5827,3.6615,0.0,0.0,3.5537,3.5504,3.5504,3.5504,3.5504,3.5504,3.5504,3.5504,3.5504,3.5504,3.5504,3.5504,3.5504,3.5504,3.5504,3.534,3.3365,3.2961,3.3305,3.1345,3.139,3.2392,3.1765,3.1944,3.2392,3.175,3.154,3.1555,3.154,3.1062,0.0,0.0,0.0,0.0,0.0,0.0,0.0,2.6683,2.5854,2.5123,2.5123,2.4983,2.4965,2.5481,2.6068,2.6483,2.6449,2.6449,2.6801,2.7833,2.8034,2.8059,2.8059,2.8059,2.8047,2.8034,2.8047,2.8059,2.8059,2.8072,2.8084,2.8109,2.8562,2.8863,2.8863,2.944,2.9741,2.9741,2.9741,2.9754,2.9767,2.9767,2.9779,2.9792,2.9792,2.9792,2.9792,2.9792,2.9792,2.9792,2.9792,2.9413,2.8769,2.8123,2.7173,2.6021,2.5322,2.5096,2.5165,2.5557,2.5674,2.5693,0.0,0.0,0.0,0.0,0.0,0.0,3.7652,3.8041,3.8379,0.0,0.0,0.0,3.9486,3.9503,3.9244,3.8664,3.813,3.7801,3.7798,3.6346,3.6097,3.7424,3.6196,3.575,3.6275,3.5782,3.5504,3.5504,3.5504,3.5504,3.5504,3.5504,3.5504,3.5504,3.5504,3.5504,3.5504,3.5504,3.5504,3.5415,3.4367,3.4038,3.4098,3.3066,3.2602,3.2497,3.2273,3.2333,3.2452,3.2273,3.2557,3.2871,3.2392,3.175,0.0,0.0,0.0,0.0,2.943,0.0,0.0,0.0,0.0,0.0,2.6104,2.5973,2.5685,2.5323,2.5667,2.5891,2.5358,2.5272,2.5372,2.564,2.6389,2.6952,2.6952,2.6952,2.6788,2.6339,2.67,2.6952,2.6952,2.7268,2.767,2.8072,2.8247,2.8335,2.8335,2.8486,2.8574,2.8574,2.8574,2.8762,2.9164,2.9126,2.9377,2.9792,2.9792,2.9792,2.9792,2.9792,2.9792,2.9792,2.9792,2.9711,2.9404,2.7619,2.6573,2.5958,2.4655,2.4521,2.5135,2.5205,2.5459,2.5732,0.0,0.0,0.0,0.0,0.0,3.87,3.8413,3.8717,3.8988,0.0,0.0,0.0,4.0079,4.0383,4.0238,3.9454,3.8705,3.8399,3.8745,3.7001,3.6513,3.7748,3.6321,3.5701,3.6134,3.5733,3.5504,3.5504,3.5504,3.5504,3.5504,3.5504,3.5504,3.5504,3.5504,3.5504,3.5504,3.5504,3.5504,3.5444,3.4788,3.4683,3.4831,3.4158,3.3844,3.3724,3.344,3.3335,3.3245,3.2706,3.2766,3.3021,3.2632,3.2228,0.0,0.0,0.0,0.0,0.0,0.0,0.0,0.0,0.0,0.0,2.6568,2.6173,2.5752,2.5307,2.5475,2.5555,2.5114,2.5066,2.4944,2.4633,2.5153,2.5613,2.5778,2.5774,2.5649,2.531,2.5573,2.5774,2.5774,2.6264,2.6716,2.703,2.7494,2.7858,2.8097,2.8109,2.8109,2.8109,2.8109,2.826,2.8549,2.8775,2.9063,2.944,2.9679,2.9792,2.9792,2.9792,2.9792,2.9792,2.9792,2.9792,2.9663,2.7907,2.692,2.6419,2.5214,2.4914,2.5135,2.5283,2.5518,2.5723,0.0,0.0,0.0,4.0096,4.018,4.0045,3.9343,3.9242,3.9259,0.0,3.936,3.9614,4.0282,4.0849,4.0933,4.0282,3.9418,3.9193,3.9927,3.7946,3.7084,3.7892,3.6523,3.5765,3.5765,3.5683,3.5587,3.5504,3.5504,3.5504,3.5504,3.5504,3.5504,3.5504,3.5504,3.5504,3.5504,3.5504,3.5504,3.5444,3.4846,3.4966,3.5429,3.4848,3.4921,3.531,3.4728,3.4459,3.4219,3.3021,3.2497,3.2392,3.2572,3.2497,3.2392,3.2497,3.1614,0.0,0.0,0.0,0.0,0.0,2.8216,0.0,2.6961,2.6207,2.5632,2.5619,2.5578,2.5508,2.5425,2.5398,2.5175,2.4538,2.435,2.4367,2.4589,2.4662,2.4675,2.4612,2.4662,2.47,2.47,2.5146,2.5473,2.5586,2.659,2.7406,2.7896,2.7921,2.7921,2.7921,2.7921,2.7946,2.8009,2.8561,2.8838,2.89,2.9515,2.9792,2.9792,2.9792,2.9792,2.9792,2.9792,2.9792,2.9702,2.8727,2.7871,2.7113,2.6265,2.5615,2.5159,2.5468,2.5577,2.5625,0.0,0.0,4.0096,4.0096,4.0764,4.1188,4.0832,4.0781,4.0984,4.1576,4.1644,4.1694,4.1847,4.1474,4.1136,4.1001,3.9718,3.8978,3.9113,3.8161,3.7905,3.8663,3.7819,3.7354,3.7354,3.6722,3.6086,3.5504,3.5504,3.5504,3.5504,3.5504,3.5504,3.5504,3.5504,3.5504,3.5504,3.5504,3.5504,3.5489,3.5355,3.5385,3.5489,3.5355,3.504,3.4698,3.4563,3.4159,3.3649,3.338,3.2602,3.1884,3.2961,3.2572,3.1795,3.2333,3.1929,0.0,0.0,0.0,0.0,3.0163,2.9247,0.0,2.8898,2.8035,2.7155,2.7104,2.6667,2.6095,2.5508,2.5398,2.5342,2.5203,2.4681,2.4109,2.3518,2.3866,2.3991,2.3484,2.3847,2.4167,2.4167,2.4255,2.4669,2.5536,2.6273,2.67,2.6813,2.6813,2.6813,2.6813,2.6813,2.7027,2.7444,2.7996,2.8449,2.89,2.9515,2.9792,2.9792,2.9792,2.9792,2.9792,2.9792,2.9792,2.9792,2.9585,2.884,2.7714,2.5784,2.518,2.5314,2.4825,2.4893,2.5254,0.0,0.0,4.0248,4.0764,4.1154,4.1467,4.1711,4.1745,4.2016,4.276,4.3183,4.3284,4.2895,4.2523,4.2016,4.1271,4.0151,3.951,3.948,3.843,3.8149,3.8881,3.8189,3.7793,3.7793,3.7397,3.6828,3.6054,3.6054,3.5863,3.5504,3.5504,3.5325,3.5011,3.5355,3.531,3.5011,3.5355,3.5504,3.5504,3.5504,3.5504,3.5504,3.5504,3.5295,3.4996,3.4996,3.4562,3.3978,3.3978,3.3544,3.311,3.3784,3.3529,3.3066,3.3395,3.3021,3.2512,3.2512,3.2018,3.1435,3.1077,3.0283,0.0,0.0,2.8828,2.8096,2.8066,2.753,2.693,2.6561,2.6508,2.6375,2.6014,2.5315,2.4475,2.3396,2.32,2.2949,2.2385,2.2811,2.315,2.315,2.3665,2.433,2.5146,2.5724,2.6059,2.6059,2.6336,2.6499,2.6499,2.6499,2.6625,2.6901,2.7419,2.7971,2.8524,2.9089,2.9515,2.9792,2.9792,2.9792,2.9792,2.9792,2.9792,2.9792,2.9792,2.9456,2.8752,2.6718,2.5861,2.5688,2.4987,2.4883,2.5184,0.0,0.0,0.0,4.118,4.1306,4.1441,4.1999,4.2202,4.2625,4.3521,4.4316,4.4497,4.367,4.3351,4.2812,4.1903,4.0492,3.9886,4.0507,3.8952,3.8274,3.8881,3.8486,3.8177,3.8007,3.7863,3.7397,3.6615,3.6477,3.6086,3.5504,3.5504,3.5205,3.4728,3.525,3.519,3.4711,3.5265,3.5504,3.5504,3.5504,3.5504,3.5504,3.5504,3.5504,3.5504,3.5504,3.5055,3.4503,3.4503,3.4414,3.4339,3.4474,3.4414,3.4339,3.4474,3.4039,3.3499,3.3499,3.3095,3.2572,3.2019,3.1271,3.0612,0.0,0.0,0.0,2.8936,2.8323,2.7794,2.7794,2.769,2.7408,2.68,2.6081,2.5149,2.3794,2.2987,2.2306,2.1722,2.2133,2.2443,2.2443,2.3401,2.418,2.46,2.5247,2.5598,2.5598,2.6185,2.6499,2.6499,2.6499,2.6499,2.6499,2.704,2.7557,2.8109,2.8624,2.9239,2.9792,2.9792,2.9792,2.9792,2.9792,2.9792,2.9792,2.9792,2.9792,2.9622,2.7947,2.6831,2.6083,2.5426,2.5098,2.5,4.0096,4.0096,0.0,0.0,4.0968,4.1493,4.1339,4.188,4.2811,4.4276,4.5111,4.524,4.439,4.3168,4.2853,4.3935,4.0352,3.9181,4.1881,3.9995,3.8799,3.8908,3.9489,3.9489,3.8799,3.8133,3.7397,3.6615,3.5943,3.5587,3.5504,3.5504,3.5459,3.5385,3.5474,3.5459,3.5385,3.5474,3.5504,3.5504,3.5504,3.5504,3.5504,3.5504,3.5504,3.5504,3.5504,3.5055,3.4503,3.4503,3.4114,3.3709,3.4324,3.4099,3.3724,3.4339,3.4039,3.3499,3.3499,3.344,3.3365,3.329,3.2303,3.1525,3.2063,0.0,2.9651,3.0178,0.0,2.8487,2.8487,0.0,0.0,2.7484,2.6852,2.5922,2.4568,2.3728,2.3018,2.2279,2.2681,2.3007,2.3007,2.3615,2.4029,2.4092,2.5021,2.5598,2.5598,2.6185,2.6499,2.6499,2.6499,2.6499,2.6499,2.704,2.7557,2.8109,2.8624,2.9239,2.9792,2.9792,2.9792,2.9792,2.9792,2.9792,2.9792,2.9792,2.9792,2.9675,2.8459,2.7365,2.6373,2.5621,2.5002,2.4551,4.0096,4.0096,0.0,0.0,4.1188,4.1467,4.1779,4.3589,4.5128,4.5771,4.6887,4.7248,4.6287,4.5301,4.4358,4.3525,4.1024,3.985,4.079,3.9619,0.0,3.8832,4.0061,4.0167,3.8924,3.9049,3.8541,3.7308,3.7011,3.6368,3.5504,3.5504,3.5295,3.4921,3.5325,3.528,3.4966,3.5744,3.5848,3.5534,3.5923,3.5848,3.5504,3.5504,3.5504,3.5504,3.5504,3.5325,3.507,3.507,3.4891,3.4711,3.4981,3.4891,3.4711,3.4996,3.4876,3.4666,3.4666,3.4367,3.4099,3.4099,3.308,3.2138,3.2452,3.127,3.0193,3.0447,0.0,0.0,0.0,0.0,0.0,0.0,2.7231,2.6304,2.5753,2.4654,2.3287,2.1579,2.2121,2.2757,2.307,2.3321,2.3471,2.3471,2.4519,2.5146,2.5146,2.6021,2.6499,2.6499,2.6499,2.6499,2.6499,2.704,2.7394,2.7645,2.8511,2.9013,2.9302,2.9641,2.9792,2.9792,2.9792,2.9792,2.9792,2.9792,2.9792,2.9753,2.9275,2.8398,2.7383,2.6993,2.6237,2.5503,4.0367,0.0,0.0,4.1078,4.1027,4.1221,4.2151,4.4147,4.5781,4.6337,4.7348,4.7679,4.6867,4.6114,4.5212,4.4012,4.1724,4.0427,4.0641,3.9516,3.8628,3.8233,3.9717,3.9945,3.8624,3.8951,3.858,3.7485,3.7265,3.6616,3.5504,3.5504,3.5235,3.4786,3.528,3.5235,3.4848,3.5804,3.5938,3.5549,3.6028,3.5923,3.5504,3.5504,3.5504,3.5504,3.5504,3.5504,3.5504,3.5504,3.5504,3.5504,3.5504,3.5504,3.5504,3.5504,3.5504,3.5504,3.5504,3.513,3.4756,3.4756,3.3769,3.2781,3.2781,3.1749,3.0763,3.0763,3.0283,0.0,0.0,0.0,0.0,0.0,0.0,2.6924,2.6551,2.5398,2.3874,2.1911,2.2189,2.2669,2.3058,2.3108,2.3108,2.3108,2.401,2.4625,2.4775,2.5711,2.6336,2.6487,2.6499,2.6499,2.6499,2.704,2.7356,2.7519,2.8473,2.8976,2.9176,2.9603,2.9792,2.9792,2.9792,2.9792,2.9792,2.9792,2.9624,2.9365,2.9663,2.9106,2.8122,2.8176,2.7294,2.6229,4.1018,4.0578,0.0,4.0146,4.0146,4.062,4.2066,4.2371,4.316,4.5162,4.548,4.5357,4.4939,4.4287,4.4682,4.6586,4.2293,4.0395,4.2665,4.0184,3.8024,3.6723,3.8092,3.8555,3.7867,3.7084,3.6691,3.6646,3.5926,3.5569,3.5504,3.5504,3.5489,3.5474,3.5489,3.5489,3.5474,3.5519,3.5534,3.5504,3.5534,3.5534,3.5504,3.5504,3.5504,3.5504,3.5504,3.5504,3.5504,3.5504,3.5504,3.5504,3.5504,3.5504,3.5504,3.5504,3.5504,3.5504,3.5504,3.5489,3.5474,3.5474,3.4457,3.3469,3.3469,3.2437,3.1466,3.1466,3.0956,3.0477,3.0477,0.0,0.0,0.0,0.0,0.0,0.0,2.5837,2.5064,2.4271,2.3522,2.3083,2.3108,2.3108,2.3108,2.3108,2.369,2.4255,2.4763,2.5335,2.5921,2.6474,2.6499,2.6499,2.6499,2.704,2.7557,2.8084,2.8624,2.9227,2.9767,2.9779,2.9792,2.9792,2.9792,2.9792,2.9792,2.9792,2.9157,2.8255,2.9365,2.9106,2.8155,2.869,2.7685,2.6187,0.0,0.0,0.0,4.0832,4.0409,4.0773,4.2726,4.3824,4.5282,4.7735,4.8949,4.935,4.8752,4.8501,4.7855,4.6603,4.4519,4.3082,4.2599,4.1392,3.9797,3.7879,3.9345,3.9182,3.7071,3.769,3.7585,3.6615,3.6368,3.6203,3.6148,3.5714,3.5744,3.6133,3.5699,3.5504,3.5534,3.5968,3.5908,3.5504,3.5504,3.5774,3.6103,3.5669,3.5504,3.5504,3.5504,3.5504,3.5504,3.5504,3.5504,3.5504,3.5504,3.5504,3.5504,3.5504,3.5504,3.5504,3.5504,3.5504,3.5504,3.5504,3.4816,3.4038,3.3589,3.2811,3.2034,3.1585,3.1316,3.1152,3.1152,0.0,0.0,0.0,0.0,0.0,0.0,2.6162,2.4922,2.3649,2.2959,2.2706,2.307,2.3108,2.3108,2.3108,2.3665,2.4243,2.4763,2.531,2.5862,2.6474,2.6499,2.6499,2.6499,2.704,2.7228,2.7065,2.831,2.88,2.8699,2.9453,2.9792,2.9792,2.9792,2.9792,2.9792,2.9792,2.9573,2.9275,2.9663,2.9573,2.9335,3.0223,2.9108,2.7171,4.0838,4.1247,4.1593,4.1593,4.0944,4.101,4.2702,4.4276,4.5925,4.7814,4.9716,5.0779,5.0235,5.0199,4.9344,4.7188,4.6187,4.4721,4.2545,4.2311,4.1003,3.8172,3.9539,3.916,3.6626,3.7499,3.7514,3.6548,3.6778,3.6854,3.6806,3.6163,3.6088,3.6462,3.5804,3.5504,3.5534,3.5953,3.5893,3.5504,3.5504,3.5759,3.6088,3.5669,3.5654,3.5818,3.5594,3.5504,3.5504,3.5504,3.5504,3.5504,3.5504,3.5504,3.5504,3.5504,3.5504,3.5504,3.5504,3.5504,3.5504,3.5504,3.4996,3.4399,3.3933,3.3335,3.2677,3.1989,3.1854,3.178,3.154,0.0,0.0,0.0,0.0,0.0,0.0,2.5769,2.4525,2.3245,2.2794,2.2719,2.307,2.3108,2.3108,2.3108,2.3446,2.4017,2.475,2.5146,2.5674,2.6461,2.6499,2.6499,2.6499,2.7241,2.7394,2.7102,2.8536,2.9051,2.8725,2.9465,2.9792,2.9792,2.9792,2.9792,2.9792,2.9792,2.9573,2.9236,2.9624,2.9658,2.9631,3.0926,3.0368,2.8932,4.2216,4.2334,4.2388,4.2354,4.1633,4.1354,4.2173,4.3848,4.5171,4.5727,4.8229,4.9849,4.9464,4.9524,4.9239,4.8401,4.7189,4.5364,4.277,4.3105,4.166,3.7823,3.8856,3.8571,3.6582,3.6567,3.6552,3.6492,3.7105,3.7419,3.7449,3.6791,3.6507,3.6507,3.5848,3.5534,3.5504,3.5549,3.5534,3.5504,3.5504,3.5534,3.5549,3.5519,3.5908,3.6402,3.5744,3.5504,3.5504,3.5504,3.5504,3.5504,3.5504,3.5504,3.5504,3.5504,3.5504,3.5504,3.5504,3.5504,3.5504,3.5504,3.5011,3.4548,3.4518,3.3993,3.335,3.2662,3.2512,3.2288,3.163,3.1467,0.0,0.0,0.0,0.0,0.0,0.0,2.4028,2.3198,2.3108,2.3108,2.3108,2.3108,2.3108,2.3108,2.3108,2.3597,2.4725,2.4788,2.5322,2.6461,2.6524,2.6537,2.6537,2.757,2.8109,2.8122,2.9227,2.9754,2.9754,2.9779,2.9792,2.9792,2.9792,2.9792,2.9792,2.9792,2.9145,2.8307,2.9365,2.9502,2.9222,3.079,3.132,3.1267,4.227,4.3198,4.3809,4.3234,4.2427,4.2321,4.3575,4.6061,4.7961,4.8581,5.2488,5.4285,5.1721,5.2702,5.2307,4.9329,4.8745,4.7593,4.5439,4.499,4.3688,4.1227,4.095,3.9709,3.7225,3.7659,3.7434,3.6492,3.7105,3.7659,3.8108,3.7015,3.6731,3.715,3.6507,3.5968,3.5534,3.6028,3.5953,3.5504,3.5504,3.5804,3.6178,3.5684,3.5908,3.6402,3.5744,3.5504,3.5504,3.5504,3.5504,3.5504,3.5504,3.5504,3.5504,3.5504,3.5504,3.5504,3.5504,3.5504,3.5504,3.5504,3.537,3.51,3.4623,3.4384,3.3903,3.2751,3.2512,3.2288,3.163,3.0999,3.0587,0.0,0.0,0.0,0.0,0.0,2.4454,2.3236,2.3108,2.3108,2.3108,2.3108,2.3108,2.3108,2.3108,2.3597,2.4725,2.4788,2.5322,2.6461,2.6889,2.7102,2.7102,2.7758,2.8109,2.8109,2.8812,2.9113,2.9164,2.9591,2.9792,2.9792,2.9792,2.9792,2.9792,2.9792,2.9624,2.9404,2.9702,3.0186,3.0774,3.0664,3.1467,3.2531,4.2739,4.4252,4.5314,4.4553,4.492,4.5259,4.5048,4.6413,4.7882,4.8967,5.267,5.4199,5.163,5.2789,5.2549,4.9554,4.9314,4.8297,4.6022,4.5798,4.4736,4.25,4.2051,4.0598,3.7898,3.8197,3.7898,3.6881,3.7524,3.8018,3.8362,3.736,0.0,0.0,0.0,3.6282,3.5953,3.6327,3.6267,3.5908,3.5624,3.5729,0.0,3.5639,3.5729,3.6013,3.5639,3.5504,3.5504,3.5504,3.5504,3.5504,3.5504,3.5504,3.5504,3.5504,3.5504,3.5504,3.5504,3.5504,3.5504,3.5504,3.5504,3.54,3.5011,3.4921,3.4637,3.3589,3.314,3.2736,3.2049,3.1324,3.0646,0.0,0.0,0.0,0.0,2.5166,2.4615,2.3608,2.3484,2.3484,2.3484,2.3246,2.3108,2.3108,2.3108,2.3597,2.4725,2.4788,2.5322,2.6461,2.7027,2.7281,2.7281,2.8072,2.8461,2.8473,2.9038,2.9302,2.9315,2.9641,2.9792,2.9792,2.9792,2.9792,2.9792,2.9792,2.9792,2.9842,3.0306,3.0859,3.1405,3.1534,3.2358,3.3395,4.3438,4.5153,4.6448,4.5928,4.7555,4.8359,4.6809,4.6755,4.7305,4.8413,5.1313,5.2516,5.0423,5.146,5.1446,4.9344,4.9179,4.8117,4.5708,4.6112,4.5349,4.289,4.262,4.1287,3.8586,3.8437,3.8063,3.7404,3.8063,3.8437,3.8512,3.7838,0.0,0.0,0.0,0.0,3.6596,3.6522,3.6432,3.6312,3.5729,3.5504,3.5504,3.5504,3.5504,3.5504,3.5504,3.5504,3.5504,3.5504,3.5504,3.5504,3.5504,3.5504,3.5504,3.5504,3.5504,3.5504,3.5504,3.5504,3.5504,3.5504,3.5504,3.5504,3.5504,3.5504,3.5277,3.448,3.3792,3.3092,3.2301,3.1619,3.0734,0.0,0.0,2.7622,2.6177,2.5371,2.472,2.4167,2.4104,0.0,2.4004,2.3446,2.3133,2.3208,2.3145,2.3597,2.4725,2.4788,2.5322,2.6461,2.7102,2.7394,2.7394,2.8486,2.9001,2.9013,2.9553,2.9792,2.9792,2.9792,2.9792,2.9792,2.9792,2.9792,2.9792,2.9792,2.9829,2.9993,3.0997,3.1436,3.1637,3.2767,3.3483,3.3909,4.4094,4.4979,4.5837,4.6482,4.6423,4.7128,4.9717,5.1627,5.2113,5.011,5.3963,5.5158,5.0696,5.1789,5.1662,4.8744,4.8461,4.8027,4.7025,4.707,4.6426,4.4855,4.3733,4.1899,3.929,3.8676,3.8063,3.7404,3.8063,3.8676,3.923,3.8542,0.0,0.0,0.0,0.0,3.721,3.6701,3.6178,3.5669,3.5549,3.5504,3.5504,3.5504,3.5504,3.5504,3.5504,3.5504,3.5504,3.5504,3.5504,3.5504,3.5504,3.5504,3.5504,3.5504,3.5504,3.5504,3.5504,3.5504,3.5504,3.5504,3.5504,3.5504,3.5504,3.5504,3.51,3.3642,3.2843,3.1985,3.053,2.9831,2.9196,2.8434,2.8009,2.7453,2.6536,2.5849,2.5259,2.4713,2.4669,2.4506,2.4042,2.3446,2.3308,2.3803,2.3371,2.3597,2.4725,2.4788,2.5322,2.6461,2.7444,2.7959,2.7959,2.9076,2.9641,2.9641,2.9741,2.9792,2.9792,2.9792,2.9792,2.9792,2.9792,2.9792,2.9792,2.9792,3.0068,3.0532,3.1148,3.1675,3.2202,3.3345,3.3822,3.396,4.4854,4.6173,4.7456,4.8046,4.8937,5.0175,5.2075,5.3412,5.3392,5.1054,5.268,5.2859,4.9554,5.0335,5.0332,4.8475,4.8282,4.8012,4.7354,4.6651,4.5963,4.5319,4.4032,4.2228,3.9978,3.9604,3.8931,3.7913,3.8227,3.8556,3.8871,3.8542,3.8197,3.7883,0.0,3.7898,3.7853,3.6896,3.6297,3.5983,3.5639,3.5504,3.5504,3.5504,3.5504,3.5504,3.5504,3.5504,3.5504,3.5504,3.5504,3.5504,3.5504,3.5504,3.5504,3.5504,3.5504,3.5504,3.5504,3.5504,3.5504,3.5504,3.5504,3.5504,3.5504,3.51,3.4489,3.3734,3.2663,3.1559,3.0414,2.9989,2.9604,2.8892,2.8656,2.8304,2.7448,2.6829,2.6276,2.5737,2.541,2.5121,2.4858,2.433,2.3973,2.4004,2.4004,2.4336,2.5184,2.5222,2.5737,2.6889,2.7682,2.8247,2.8499,2.9365,2.9792,2.9792,2.9792,2.9792,2.9792,2.9792,2.9792,2.9792,2.9792,2.9792,2.9817,3.0105,3.0206,3.0294,3.1386,3.18,3.1913,3.3056,3.3834,3.4399,4.5881,4.7457,4.8994,4.9841,5.1534,5.2899,5.3311,5.3743,5.3428,5.1843,5.1273,5.0386,4.8685,4.9,4.8985,4.8147,4.8072,4.7863,4.7339,4.6307,4.5589,4.5304,4.4167,4.2551,4.0442,4.0262,3.9604,3.8392,3.8392,3.8467,3.8601,3.8601,3.8257,3.7614,3.7614,3.7764,3.7928,3.7045,3.6522,3.6237,3.5863,3.5624,3.5504,3.5504,3.5504,3.5504,3.5504,3.5504,3.5504,3.5504,3.5504,3.5504,3.5504,3.5504,3.5504,3.5504,3.5504,3.5504,3.5504,3.5504,3.5504,3.5504,3.5504,3.5424,3.5246,3.4576,3.3876,3.3484,3.2159,3.0861,3.0333,3.0144,2.9937,2.9545,2.9282,2.8928,2.8333,2.7808,2.7291,2.6738,2.6239,2.5862,2.5624,2.5335,2.4946,2.4381,2.4644,2.5046,2.5573,2.5598,2.6113,2.7243,2.7821,2.8373,2.8888,2.9503,2.9792,2.9792,2.9792,2.9792,2.9792,2.9792,2.9792,2.9792,2.9792,2.9792,2.9829,3.0382,3.0419,3.0269,3.1675,3.2089,3.2039,3.3056,3.3972,3.4813,4.7501,4.7855,4.8671,5.1383,5.1611,5.1666,5.2547,5.3031,5.3219,5.3025,5.2462,5.1354,4.9419,4.9269,4.8805,4.7504,4.7399,4.7369,4.7309,4.7189,4.6576,4.5349,4.4601,4.3015,4.0457,3.9813,3.914,3.8392,3.8392,3.8706,3.9334,3.9334,3.896,3.8302,3.8302,3.7689,3.6701,3.7135,3.6656,3.5639,3.6178,3.6028,3.5504,3.5504,3.5504,3.5504,3.5504,3.5504,3.5504,3.5504,3.5504,3.5504,3.5504,3.5504,3.5504,3.5504,3.5504,3.5504,3.5504,3.5504,3.5504,3.5504,3.5504,3.5246,3.4361,3.4061,3.3518,3.1815,3.0229,2.9112,2.9062,2.8644,2.8644,2.9606,2.8911,2.8346,2.8787,2.8373,2.7821,2.7268,2.719,2.6728,2.5699,2.6059,2.6097,2.5485,2.5059,2.5046,2.5573,2.5598,2.6113,2.7243,2.7821,2.8373,2.8888,2.9503,2.9792,2.9792,2.9792,2.9792,2.9792,2.9792,2.9792,2.9792,2.9792,2.9792,2.9829,3.0382,3.0871,3.1298,3.1951,3.2805,3.3746,3.4349,3.4625,3.4864,4.8896,4.9761,5.0875,5.2676,5.2467,5.2597,5.4299,5.3474,5.2713,5.2994,5.1846,5.0571,4.9434,4.8566,4.7878,4.7354,4.7309,4.7309,4.7309,4.6935,4.6292,4.5334,4.4661,4.3269,4.104,4.0726,4.0068,3.9005,3.9394,3.9738,4.0008,4.0008,3.9649,3.899,3.8571,3.8108,3.7614,3.7479,3.712,3.6671,3.6926,3.6656,3.6088,3.6088,3.5848,3.5504,3.5504,3.5504,3.5504,3.5504,3.5504,3.5504,3.5504,3.5504,3.5504,3.5504,3.5504,3.5504,3.5504,3.5504,3.5504,3.5504,3.5504,3.5392,3.4986,3.4007,3.2961,3.2213,3.0651,2.9453,2.9453,2.9264,2.9264,2.9716,2.9415,2.9202,2.9415,2.895,2.8398,2.7846,2.7482,2.6967,2.6223,2.6361,2.6399,2.6172,2.5925,2.59,2.6135,2.6461,2.6967,2.7758,2.831,2.8875,2.944,2.9679,2.9792,2.9792,2.9792,2.9792,2.9792,2.9792,2.9792,2.9792,2.9792,2.998,3.0331,3.0859,3.1198,3.1512,3.2742,3.3294,3.3508,3.4399,3.4881,3.5232,5.0398,5.17,5.3067,5.4359,5.3866,5.3819,5.5426,5.3506,5.1962,5.2106,5.0865,4.9703,4.9045,4.8147,4.7519,4.7324,4.7309,4.7309,4.7309,4.6696,4.6022,4.5334,4.4661,4.3479,4.1752,4.1512,4.0831,3.9709,3.9978,4.0113,4.0113,4.0113,3.9753,3.9095,3.8601,3.8287,3.8078,3.7808,3.7584,3.7419,3.7614,3.721,3.6507,3.6686,3.6237,3.5549,3.5923,3.5833,3.5534,3.5729,3.5669,3.5504,3.5504,3.5504,3.5504,3.5504,3.5504,3.5504,3.5504,3.5504,3.5504,3.5504,3.5279,3.4986,3.4706,3.3359,3.2105,3.1829,3.0709,2.9792,2.9792,2.9792,2.9792,2.9792,2.9792,2.9792,2.9792,2.944,2.8976,2.8411,2.8009,2.7494,2.6801,2.6738,2.6663,2.6499,2.665,2.6738,2.6738,2.7102,2.7607,2.8323,2.8687,2.9202,2.9779,2.9792,2.9792,2.9792,2.9792,2.9792,2.9792,2.9792,2.988,3.003,3.003,3.0344,3.0884,3.1411,3.1738,3.2014,3.337,3.3859,3.3897,3.4675,3.527,3.578,5.201,5.3307,5.4603,5.6636,5.5876,5.4976,5.5007,5.2854,5.099,5.0331,4.9673,4.9075,4.8371,4.8282,4.8012,4.7369,4.7309,4.7309,4.7309,4.6696,4.6022,4.5334,4.4661,4.3688,4.2425,4.1752,4.1055,4.0382,3.9753,3.9388,3.9388,3.9388,3.9065,3.8407,3.8392,3.8033,3.7464,3.8108,3.8003,3.7464,3.8123,3.7614,3.6552,3.7165,3.6611,3.5669,3.6941,3.6582,3.5609,3.6252,3.6043,3.5504,3.5504,3.5504,3.5504,3.5504,3.5504,3.5504,3.5504,3.5504,3.5504,3.5504,3.4758,3.3774,3.2855,3.1888,3.097,3.0037,2.983,2.9792,2.9792,2.9792,2.9792,2.9792,2.9792,2.9792,2.9792,2.9779,2.9566,2.895,2.8875,2.8473,2.7381,2.7268,2.7077,2.6537,2.7002,2.7268,2.7268,2.7281,2.7783,2.885,2.8888,2.9202,2.9779,2.9792,2.9792,2.9792,2.9792,2.9792,2.9792,2.9792,3.0093,3.0608,3.0608,3.0896,3.1424,3.1976,3.2541,3.3106,3.3684,3.4562,3.547,3.5483,3.5881,3.6405,5.3174,5.3484,5.3683,5.4271,5.3665,5.3342,5.4112,5.2504,5.1239,5.1357,5.0169,4.906,4.8356,4.7878,4.7534,4.7324,4.7309,4.7309,4.7309,4.6696,4.6022,4.5334,4.4661,4.3703,4.2425,4.1752,4.1055,4.0397,4.0187,4.0083,4.0083,4.0083,3.9723,3.9095,3.9095,3.8975,3.8796,3.9005,3.8975,3.8796,3.9005,3.8571,3.7808,3.8003,3.7554,3.6866,3.7255,3.6881,3.6207,3.6417,3.6043,3.5504,3.5504,3.5504,3.5504,3.5504,3.5504,3.5359,3.4658,3.4461,3.4327,3.3685,3.3739,3.3739,3.282,3.1852,3.0932,2.9998,2.9792,2.9792,2.9792,2.9792,2.9792,2.9792,2.9792,2.9792,2.9792,2.9792,2.9578,2.8963,2.8888,2.8599,2.7908,2.7846,2.777,2.7595,2.7745,2.7682,2.7341,2.7996,2.8561,2.8888,2.9315,2.9603,2.9792,2.9792,2.998,3.0357,2.9967,2.9792,2.9804,3.0181,3.0457,3.0633,3.0984,3.1675,3.2516,3.2303,3.2993,3.4211,3.4399,3.4856,3.5545,3.5968,3.6267,3.6405,5.3192,5.3602,5.3899,5.3899,5.3338,5.3131,5.3817,5.2154,5.0862,5.0902,4.9747,4.8656,4.7997,4.7549,4.7309,4.7309,4.7309,4.7309,4.7309,4.6456,4.5738,4.5319,4.4421,4.3569,4.2746,4.1848,4.1175,4.0771,4.0277,4.0023,4.0023,4.0023,3.9813,3.9388,3.9388,3.9388,3.9388,3.9388,3.9388,3.9388,3.9388,3.9005,3.8422,3.8676,3.8197,3.7479,3.7973,3.7599,3.6836,3.6836,3.6402,3.5833,3.5579,3.5504,3.5504,3.5504,3.5504,3.5359,3.4725,3.4576,3.4327,3.3394,3.3567,3.3671,3.2393,3.1365,3.052,2.9934,2.9792,2.9792,2.9792,2.9792,2.9792,2.9792,2.9792,2.9792,2.9792,2.9792,2.9654,2.9302,2.9252,2.9038,2.8461,2.8411,2.8335,2.8122,2.8298,2.826,2.7921,2.8561,2.8988,2.9252,2.9804,3.0105,3.0105,3.0294,3.057,3.0896,3.0557,3.0394,3.0407,3.0746,3.1135,3.1549,3.165,3.2453,3.3658,3.3081,3.3709,3.4994,3.4994,3.532,3.5893,3.6279,3.6405,3.6405,5.2476,5.3589,5.473,5.473,5.4219,5.383,5.383,5.179,5.0077,4.9419,4.876,4.8102,4.7444,4.7339,4.7309,4.7309,4.7309,4.7309,4.7309,4.6082,4.5349,4.5289,4.4077,4.3349,4.329,4.2102,4.1399,4.1347,4.0038,3.9388,3.9388,3.9388,3.9388,3.9388,3.9388,3.9388,3.9388,3.9388,3.9388,3.9388,3.9388,3.9035,3.8527,3.917,3.8646,3.7719,3.894,3.8586,3.7479,3.7479,3.703,3.6372,3.5774,3.5549,3.5504,3.5504,3.5504,3.5472,3.5392,3.5392,3.5166,3.4143,3.3842,3.338,3.1669,3.052,2.9792,2.9792,2.9792,2.9792,2.9792,2.9792,2.9792,2.9792,2.9792,2.9792,2.9792,2.9792,2.9792,2.9792,2.9792,2.9578,2.9001,2.895,2.875,2.831,2.8712,2.8963,2.9013,2.9013,2.9289,2.9829,3.0382,3.067,3.067,3.1148,3.1386,3.1386,3.1461,3.1486,3.1449,3.1537,3.2139,3.3106,3.2604,3.3282,3.4675,3.4173,3.4587,3.5495,3.5495,3.5881,3.6405,3.6405,3.6405,3.6417,5.2806,5.2383,5.2118,5.2118,5.1982,5.1861,5.1861,5.1356,5.075,5.0092,4.9449,4.8835,4.8132,4.7608,4.7309,4.7309,4.7309,4.7309,4.7309,4.6531,4.5843,4.5319,4.4511,4.3798,4.3305,4.2536,4.1677,4.0636,3.9813,3.9388,3.9388,3.9388,3.9388,3.9388,3.9388,3.9388,3.9388,3.9388,3.9388,3.9388,3.9388,3.932,3.9185,3.9328,3.9179,3.899,3.9305,3.8871,3.8153,3.8153,3.7404,3.6462,3.6297,3.5908,3.5504,3.5504,3.5504,3.5326,3.4576,3.4361,3.4143,3.3171,3.2393,3.1924,3.2213,3.0983,2.9792,2.9792,2.9792,2.9792,2.9792,2.9792,2.9792,2.9792,2.9792,2.9792,2.9792,2.9792,2.9792,2.9792,2.9792,2.9741,2.9603,2.9591,2.9704,3.0005,2.9754,2.9779,3.0193,3.0218,3.0281,3.0419,3.0934,3.121,3.121,3.1336,3.1386,3.1399,3.2265,3.2453,3.2051,3.2905,3.3458,3.3721,3.401,3.4304,3.4668,3.4575,3.4881,3.5495,3.5495,3.5881,3.6405,3.6405,3.6405,3.6468,5.2291,5.1635,5.1214,5.1214,5.1214,5.1214,5.1214,5.096,5.048,4.9883,4.9224,4.8566,4.7908,4.7519,4.7309,4.7309,4.7309,4.7309,4.7309,4.6396,4.5678,4.5304,4.4377,4.3663,4.3305,4.2701,4.1752,4.0397,4.0053,3.9709,3.9388,3.9388,3.9388,3.9388,3.9388,3.9388,3.9388,3.9388,3.9388,3.9388,3.9388,3.9388,3.9388,3.9388,3.9388,3.9388,3.9388,3.9185,3.8811,3.8497,3.7928,3.7255,3.6671,3.6237,3.5893,3.5594,3.5504,3.5392,3.4839,3.4361,3.3876,3.338,3.2213,3.1462,3.2393,3.1169,2.9792,2.9792,2.9792,2.9792,2.9792,2.9792,2.9792,2.9792,2.9792,2.9792,2.9792,2.9792,2.9792,2.9792,3.0018,3.0168,3.0168,3.0382,3.0545,3.0608,3.0557,3.0545,3.062,3.1072,3.1122,3.0633,3.1361,3.1763,3.1763,3.2026,3.229,3.2541,3.3156,3.342,3.3382,3.3997,3.4412,3.4605,3.4655,3.5014,3.5454,3.5203,3.5416,3.5918,3.5918,3.6094,3.6405,3.6405,3.6568,3.6832,5.1538,5.1214,5.1214,5.1214,5.1214,5.1214,5.1214,5.0704,5.0152,4.9494,4.8835,4.8192,4.7519,4.7369,4.7309,4.7309,4.7309,4.7264,4.716,4.6082,4.5364,4.5155,4.4077,4.3394,4.329,4.2701,4.1796,4.0546,4.0442,4.0068,3.9388,3.9388,3.9388,3.9388,3.9388,3.9388,3.9388,3.9388,3.9388,3.9388,3.9388,3.9388,3.9388,3.9388,3.9388,3.9388,3.9388,3.9388,3.932,3.8616,3.8392,3.8182,3.7,3.6626,3.6507,3.5953,3.5789,3.5744,3.5549,3.4773,3.4007,3.4142,3.2662,3.1426,3.2213,3.1057,2.9817,2.9892,2.9854,2.9817,2.9905,2.9842,2.9792,2.9792,2.9792,2.9792,2.9792,2.9792,2.9829,2.9905,3.0331,3.0645,3.0721,3.121,3.1336,3.0896,3.126,3.1361,3.1009,3.1851,3.1964,3.1135,3.1913,3.234,3.234,3.2993,3.352,3.3897,3.4073,3.4399,3.4806,3.4939,3.5228,3.5596,3.5165,3.5454,3.6207,3.583,3.5893,3.6292,3.6367,3.6455,3.6531,3.6531,3.6835,3.7324,5.1448,5.1214,5.1214,5.1214,5.1214,5.1214,5.1214,5.1124,5.0825,5.0121,4.9523,4.891,4.8207,4.7638,4.7309,4.7309,4.7309,4.707,4.6516,4.6234,4.5663,4.4511,4.4272,4.3898,4.3305,4.2701,4.2036,4.1235,4.0666,4.0068,3.9388,3.9388,3.9388,3.9388,3.9388,3.9388,3.9388,3.9388,3.9388,3.9388,3.9388,3.9388,3.9388,3.9388,3.9388,3.9388,3.9388,3.9388,3.932,3.8616,3.8392,3.8257,3.7509,3.727,3.724,3.715,3.712,3.6881,3.5804,3.4773,3.4157,3.471,3.3016,3.1254,3.1389,3.0595,2.993,3.0394,3.0118,2.993,3.0407,3.0105,2.9792,2.9792,2.9792,2.9792,2.9792,2.9792,2.9967,3.0432,3.057,3.0783,3.1223,3.1763,3.2051,3.1976,3.2039,3.2265,3.2667,3.2855,3.3081,3.3382,3.3106,3.2943,3.2943,3.396,3.4274,3.3909,3.4806,3.5295,3.5382,3.5893,3.6204,3.6279,3.6191,3.5943,3.5658,3.6081,3.6019,3.5671,3.6182,3.6694,3.7109,3.7109,3.7412,3.7952,5.1493,5.1214,5.1214,5.1214,5.1214,5.1214,5.1214,5.1214,5.0943,5.0285,4.9673,4.906,4.8356,4.7698,4.7309,4.7309,4.7309,4.686,4.5843,4.5768,4.5334,4.4362,4.3932,4.3604,4.3305,4.3045,4.2387,4.1422,4.107,4.0412,3.9388,3.9388,3.9388,3.9388,3.9388,3.9388,3.9388,3.9388,3.9388,3.9388,3.9388,3.9388,3.9388,3.9388,3.9388,3.9388,3.9388,3.9388,3.9328,3.905,3.8945,3.8826,3.8153,3.7943,3.7868,3.7509,3.7404,3.7167,3.6065,3.582,3.5658,3.4881,3.3781,3.2758,3.218,3.1344,3.0721,3.0984,3.0834,3.0733,3.0984,3.0595,3.0331,3.0608,3.0168,2.9892,3.0193,3.0231,3.0432,3.0972,3.1298,3.1813,3.2654,3.2968,3.3119,3.3119,3.3395,3.3545,3.352,3.3796,3.4211,3.4718,3.4248,3.396,3.396,3.4462,3.4705,3.4788,3.5257,3.5658,3.5994,3.6292,3.6405,3.6405,3.6405,3.6267,3.6006,3.6304,3.6267,3.6044,3.6596,3.696,3.7224,3.7513,3.7977,3.8504,5.1523,5.1214,5.1214,5.1214,5.1214,5.1214,5.1214,5.1214,5.1035,5.048,4.9763,4.912,4.8566,4.7788,4.7309,4.7309,4.7309,4.68,4.5603,4.5394,4.493,4.4122,4.3559,4.329,4.329,4.329,4.2761,4.1647,4.1497,4.0786,3.9649,3.9448,3.9388,3.9388,3.9388,3.9388,3.9388,3.9388,3.9388,3.9388,3.9388,3.9388,3.9388,3.9388,3.9388,3.9388,3.9388,3.9388,3.9394,3.923,3.929,3.929,3.8601,3.8497,3.8527,3.8033,3.7868,3.7685,3.681,3.6805,3.6696,3.5032,3.4362,3.3772,3.2712,3.1915,3.1424,3.1549,3.1486,3.1436,3.1549,3.1148,3.0884,3.1173,3.062,3.0269,3.057,3.0821,3.1185,3.1712,3.2265,3.2993,3.3997,3.4211,3.4223,3.4098,3.46,3.4726,3.4299,3.4675,3.5119,3.5671,3.5328,3.4977,3.468,3.4977,3.5253,3.5495,3.5621,3.5956,3.6405,3.6405,3.6405,3.6417,3.6543,3.6606,3.6606,3.6732,3.6782,3.6784,3.7211,3.7462,3.7626,3.8052,3.8567,3.9108,5.1433,5.1214,5.1214,5.1214,5.1214,5.1214,5.1214,5.1214,5.1199,5.1154,5.0047,4.9284,4.9239,4.8057,4.7309,4.7309,4.7309,4.6995,4.6249,4.5648,4.4721,4.3424,4.3319,4.329,4.329,4.329,4.2985,4.2336,4.1707,4.1025,4.0307,3.9709,3.9388,3.9388,3.9388,3.9388,3.9388,3.9388,3.9388,3.9388,3.9388,3.9388,3.9388,3.9388,3.9388,3.9388,3.9388,3.9388,3.932,3.8676,3.8901,3.929,3.8601,3.8826,3.9298,3.9254,3.9275,3.9089,3.8411,3.7193,3.5971,3.544,3.4219,3.2817,3.1739,3.1468,3.1537,3.2051,3.175,3.1549,3.2051,3.17,3.1185,3.0746,3.1009,3.1122,3.067,3.1474,3.2303,3.288,3.3432,3.401,3.4555,3.5082,3.5169,3.47,3.5132,3.542,3.5382,3.542,3.5742,3.6329,3.6317,3.5755,3.4726,3.573,3.6006,3.5508,3.6056,3.6367,3.6405,3.6405,3.6405,3.643,3.6958,3.7123,3.7161,3.7676,3.7889,3.7889,3.7939,3.8278,3.8806,3.8844,3.9157,3.9634,5.1418,5.1214,5.1214,5.1214,5.1214,5.1214,5.1214,5.1214,5.1214,5.1214,5.0077,4.9314,4.9314,4.8087,4.7309,4.7309,4.7309,4.7025,4.6324,4.6082,4.5155,4.3364,4.329,4.329,4.329,4.329,4.3015,4.2396,4.2156,4.1482,4.0397,4.0142,3.9813,3.9388,3.9388,3.9388,3.9388,3.9388,3.9388,3.9388,3.9388,3.9388,3.9388,3.9388,3.9388,3.9388,3.9388,3.9388,3.9379,3.9125,3.92,3.9379,3.911,3.8736,3.8271,3.761,3.8368,3.9205,3.8275,3.8062,3.7733,3.6252,3.5427,3.4526,3.2822,3.2704,3.3006,3.3219,3.337,3.352,3.3734,3.3319,3.2993,3.3144,3.2754,3.2491,3.2629,3.3006,3.347,3.4035,3.4286,3.4763,3.5655,3.5617,3.5558,3.573,3.5931,3.6056,3.6056,3.6056,3.6144,3.6405,3.6405,3.6204,3.5742,3.6204,3.6304,3.6056,3.6304,3.6405,3.6417,3.6757,3.692,3.6958,3.745,3.7701,3.7713,3.7914,3.8002,3.804,3.8404,3.868,3.8957,3.9258,3.9521,3.9697,5.1388,5.1214,5.1214,5.1214,5.1214,5.1214,5.1214,5.1214,5.1139,5.0883,5.0137,4.9419,4.9045,4.8147,4.7534,4.7324,4.7309,4.7115,4.6623,4.6232,4.5379,4.4003,4.3708,4.3604,4.3604,4.3409,4.312,4.2671,4.25,4.1931,4.101,4.0801,4.0367,3.9738,3.9948,3.9798,3.9388,3.9634,3.9604,3.9388,3.9388,3.9388,3.9388,3.9388,3.9388,3.9388,3.9388,3.9388,3.9388,3.9388,3.9388,3.9454,3.9664,3.9098,3.8135,3.7071,3.777,3.8777,3.8018,3.8381,3.8529,3.6914,3.6359,3.5788,3.3992,3.3884,3.4161,3.4161,3.4462,3.468,3.468,3.4412,3.4223,3.4437,3.3972,3.3671,3.3872,3.4198,3.4562,3.4893,3.5127,3.5529,3.6329,3.6031,3.5956,3.638,3.6405,3.6405,3.6405,3.6405,3.6405,3.6405,3.6405,3.6405,3.6405,3.6405,3.6405,3.6405,3.6405,3.6505,3.6681,3.701,3.7274,3.7475,3.8027,3.8278,3.8291,3.8467,3.853,3.8567,3.8969,3.9132,3.9182,3.9546,3.9697,3.9697,5.1297,5.1214,5.1214,5.1214,5.1214,5.1214,5.1214,5.1214,5.0943,5.0285,5.0196,4.9687,4.8431,4.8282,4.8012,4.7369,4.7309,4.7309,4.7309,4.6052,4.5304,4.5304,4.4661,4.4302,4.4302,4.3618,4.329,4.329,4.2686,4.2396,4.2396,4.1737,4.104,4.0442,4.1085,4.0651,3.9448,4.0113,4.0023,3.9388,3.9388,3.9388,3.9388,3.9424,3.9388,3.9388,3.9424,3.9388,3.9388,3.9388,3.9388,3.9508,4.0187,4.0015,3.9367,3.8214,3.7882,3.7924,3.7882,3.7882,3.7786,3.7235,3.6707,3.6013,3.4925,3.468,3.4726,3.4726,3.4726,3.4726,3.4726,3.4726,3.4562,3.401,3.4374,3.455,3.3997,3.4818,3.5508,3.5508,3.6031,3.6405,3.6405,3.6405,3.6405,3.6405,3.6405,3.6417,3.6417,3.6417,3.6417,3.6417,3.6417,3.6417,3.6417,3.6417,3.6405,3.6405,3.6417,3.6707,3.7186,3.7199,3.75,3.8052,3.863,3.8932,3.8969,3.9471,3.9697,3.9697,3.9697,3.9697,3.9697,3.9697,3.9697,3.9697,5.1216,5.1214,5.1214,5.1214,5.1214,5.1214,5.1214,5.1214,5.1154,5.0945,5.0122,4.9404,4.906,4.8147,4.7519,4.7324,4.7309,4.7309,4.7309,4.6935,4.6501,4.6037,4.4441,4.3589,4.3589,4.3394,4.329,4.329,4.3135,4.2806,4.2396,4.2201,4.1752,4.107,4.0816,4.0726,4.0741,4.0023,3.9858,4.0068,3.9604,3.9388,3.9433,3.9933,3.9828,3.9448,3.9948,3.9813,3.9388,3.9388,3.9388,3.9384,3.9308,3.9088,3.8649,3.7298,3.7965,3.8924,3.8214,3.8324,3.8279,3.6889,3.6432,3.6013,3.4925,3.4969,3.5257,3.5257,3.5604,3.5868,3.5868,3.5868,3.5818,3.5701,3.5814,3.5864,3.5701,3.5906,3.6119,3.6119,3.6304,3.6405,3.6405,3.6405,3.6405,3.6405,3.6769,3.6935,3.6935,3.7312,3.7513,3.7513,3.7149,3.7123,3.7513,3.6795,3.6405,3.6417,3.6807,3.7023,3.7211,3.8052,3.8454,3.8642,3.9207,3.9446,3.9459,3.9622,3.9697,3.9697,3.9697,3.9697,3.9697,3.9697,3.9697,3.9697,5.1169,5.1214,5.1214,5.1214,5.1214,5.1214,5.1214,5.1214,5.1124,5.0823,5.0137,4.9449,4.8985,4.8162,4.7593,4.7324,4.7309,4.7309,4.7309,4.7055,4.6741,4.6337,4.462,4.3678,4.3678,4.3424,4.329,4.329,4.329,4.3135,4.2746,4.2746,4.2402,4.1796,4.1624,4.1354,4.095,4.0427,4.0127,3.9978,3.9574,3.9574,3.9843,4.0247,4.0307,4.0247,4.0651,4.0367,3.9813,3.9813,3.9978,4.0018,3.9115,3.9259,3.9353,3.7122,3.8011,3.9368,3.7839,3.8007,3.8226,3.6739,3.6347,3.618,3.5537,3.5629,3.5868,3.5868,3.6132,3.6405,3.6405,3.6581,3.6669,3.6443,3.6593,3.6732,3.6732,3.6732,3.6732,3.6732,3.6872,3.6883,3.6455,3.6606,3.6732,3.6732,3.7199,3.7513,3.7513,3.7826,3.8002,3.8002,3.7688,3.7663,3.8002,3.7349,3.701,3.7023,3.7349,3.7626,3.7877,3.8605,3.9045,3.922,3.9546,3.9697,3.9697,3.9697,3.9697,3.9697,3.9697,3.9697,3.9697,3.9697,3.9697,3.9697,5.1094,5.1214,5.1214,5.1214,5.1214,5.1214,5.1214,5.1214,5.1005,5.036,5.0181,4.9703,4.8506,4.8267,4.7952,4.7354,4.7309,4.7309,4.7309,4.6741,4.6339,4.6279,4.5155,4.4436,4.4317,4.3618,4.329,4.329,4.329,4.329,4.329,4.329,4.3015,4.2515,4.3015,4.2282,4.0696,4.1115,4.0666,3.9679,3.9559,3.9903,4.0502,4.0546,4.0905,4.1384,4.1482,4.1055,4.0487,4.0487,4.0891,4.1154,3.9686,4.0181,4.0732,3.7619,3.8134,3.9271,3.7116,3.7368,3.7984,3.6849,3.6572,3.6609,3.648,3.648,3.6505,3.6543,3.6556,3.6556,3.6556,3.6923,3.7098,3.6631,3.6923,3.7262,3.7262,3.7262,3.7262,3.7262,3.7701,3.7613,3.6656,3.696,3.7262,3.7262,3.7764,3.809,3.809,3.814,3.8153,3.8153,3.8115,3.8103,3.8153,3.8103,3.8052,3.8002,3.8052,3.8366,3.8919,3.8969,3.922,3.9697,3.9697,3.9697,3.9697,3.9697,3.9697,3.9697,3.9697,3.9697,3.9697,3.9697,3.9697,3.9697,5.1184,5.1214,5.1214,5.1214,5.1214,5.1214,5.1214,5.1214,5.1169,5.102,5.0107,4.9374,4.912,4.8132,4.7459,4.7309,4.7309,4.7309,4.7309,4.7174,4.686,4.6309,4.5995,4.5394,4.4332,4.3618,4.329,4.329,4.329,4.329,4.329,4.329,4.3215,4.3105,4.2746,4.2626,4.2572,4.1205,4.104,4.1677,4.0606,4.0576,4.122,4.1782,4.1737,4.1444,4.2006,4.1767,4.1175,4.1175,4.1265,4.1413,4.1597,4.0656,3.9463,3.9223,3.8827,3.8379,3.7848,3.8604,3.9227,3.803,3.805,3.8122,3.7225,3.7059,3.7123,3.7563,3.7651,3.7651,3.7651,3.7751,3.7789,3.7663,3.7751,3.7826,3.7826,3.7826,3.7826,3.7826,3.7939,3.7914,3.7676,3.7764,3.7826,3.7826,3.8354,3.868,3.868,3.9094,3.9333,3.9333,3.8906,3.8894,3.932,3.8894,3.8454,3.8015,3.8467,3.8743,3.8881,3.932,3.9584,3.9697,3.9697,3.9697,3.9697,3.9697,3.9697,3.9697,3.9697,3.9697,3.9697,3.9697,3.9697,3.9697,5.1214,5.1214,5.1214,5.1214,5.1214,5.1214,5.1214,5.1214,5.1109,5.0749,4.9883,4.9194,4.888,4.7908,4.7309,4.7309,4.7309,4.7309,4.7309,4.7309,4.7145,4.68,4.6444,4.595,4.5289,4.4616,4.3958,4.329,4.3604,4.3604,4.3305,4.3618,4.3604,4.329,4.297,4.2836,4.2806,4.1773,4.1587,4.1871,4.1145,4.1265,4.1931,4.2276,4.2381,4.2357,4.2701,4.2402,4.1886,4.1886,4.1886,4.1876,4.1976,4.1535,4.0741,3.9426,3.9784,4.0247,3.8545,3.939,4.0331,3.8861,3.8708,3.8619,3.745,3.7387,3.7663,3.7952,3.8002,3.8002,3.8002,3.8228,3.8329,3.8052,3.8241,3.8417,3.8417,3.8417,3.8417,3.8417,3.8655,3.8705,3.8442,3.8417,3.8417,3.8417,3.8944,3.927,3.927,3.9534,3.9697,3.9697,3.9421,3.9408,3.9697,3.9408,3.9107,3.8818,3.912,3.927,3.927,3.9559,3.9697,3.9697,3.9697,3.9697,3.9697,3.9697,3.9697,3.9697,3.9697,3.9697,3.9697,3.9697,3.9697,3.9697,5.1214,5.1214,5.1214,5.1214,5.1214,5.1214,5.1214,5.1124,5.0808,5.0255,4.9568,4.894,4.8341,4.7698,4.7309,4.7309,4.7309,4.7309,4.7309,4.7309,4.7309,4.7309,4.6785,4.6441,4.6279,4.5768,4.4885,4.3618,4.4067,4.4032,4.3469,4.3902,4.3813,4.329,4.329,4.303,4.256,4.244,4.2156,4.1713,4.1594,4.1976,4.256,4.256,4.2865,4.329,4.329,4.2985,4.256,4.256,4.256,4.2494,4.2033,4.2412,4.2426,3.9552,4.066,4.223,3.9349,3.9966,4.1071,3.9459,3.9077,3.8789,3.7728,3.7826,3.8178,3.8278,3.8291,3.8291,3.8291,3.8693,3.8856,3.8366,3.8693,3.9057,3.9057,3.9057,3.9057,3.9057,3.9421,3.9521,3.9108,3.9057,3.9057,3.9057,3.9433,3.9697,3.9697,3.9697,3.9697,3.9697,3.9697,3.9697,3.9697,3.9697,3.9697,3.9697,3.9697,3.9697,3.9697,3.9697,3.9697,3.9697,3.9697,3.9697,3.9697,3.9697,3.9697,3.9697,3.9697,3.9697,3.9697,3.9697,3.9697,3.9697,5.1214,5.1214,5.1214,5.1214,5.1214,5.1214,5.1214,5.0689,5.0285,5.0196,4.9179,4.8386,4.8297,4.7698,4.7309,4.7309,4.7309,4.7309,4.7309,4.7309,4.7309,4.7309,4.7219,4.6905,4.6294,4.619,4.5798,4.5035,4.4541,4.4272,4.4167,4.3648,4.3379,4.329,4.329,4.3245,4.3125,4.2635,4.2641,4.3015,4.2447,4.2626,4.317,4.317,4.3215,4.329,4.329,4.3245,4.317,4.317,4.317,4.3185,4.3086,4.2508,4.1726,4.1239,4.1141,4.1028,4.0587,4.0675,4.0725,3.9981,3.973,3.9473,3.8817,3.8756,3.8894,3.9371,3.9471,3.9471,3.9471,3.9534,3.9559,3.9471,3.9534,3.9584,3.9584,3.9584,3.9584,3.9584,3.9647,3.9659,3.9584,3.9584,3.9584,3.9584,3.9647,3.9697,3.9697,3.9697,3.9697,3.9697,3.9697,3.9697,3.9697,3.9697,3.9697,3.9697,3.9697,3.9697,3.9697,3.9697,3.9697,3.9697,3.9697,3.9697,3.9697,3.9697,3.9697,3.9697,3.9697,3.9697,3.9697,3.9697,3.9697,3.9697,5.1214,5.1214,5.1214,5.1214,5.1214,5.1214,5.1214,5.0928,5.0599,5.024,4.9419,4.8745,4.8327,4.7698,4.7309,4.7309,4.7309,4.7309,4.7309,4.7309,4.7309,4.7309,4.7309,4.7174,4.6875,4.6875,4.6726,4.6426,4.5364,4.4481,4.3723,4.3798,4.3648,4.329,4.329,4.329,4.3275,4.303,4.3075,4.3275,4.3015,4.3075,4.329,4.329,4.329,4.329,4.329,4.329,4.329,4.329,4.329,4.329,4.329,4.2941,4.2485,4.2228,4.2448,4.2709,4.2436,4.284,4.2983,4.1657,4.1322,4.0975,3.9626,3.9333,3.9396,3.9647,3.9697,3.9697,3.9697,3.9697,3.9697,3.9697,3.9697,3.9697,3.9697,3.9697,3.9697,3.9697,3.9697,3.9697,3.9697,3.9697,3.9697,3.9697,3.9697,3.9697,3.9697,3.9697,3.9697,3.9697,3.9697,3.9697,3.9697,3.9998,4.0162,4.0162,4.0463,4.0287,3.9697,3.9697,3.986,4.0136,3.9823,3.9873,4.0124,3.9823,3.9697,3.9697,3.9697,3.9697,3.9697,3.9697,3.9697,3.9697]}]]